     2.11           OBSERVATION DATA    G (GPS)             RINEX VERSION / TYPE
teqc 2010Oct21 OPUS Account 20111027 18:42:15UTC            PGM / RUN BY / DATE
Q 1525                                                      MARKER NAME
3023                                                        MARKER NUMBER
CSMIDDLETON NGS                                             OBSERVER / AGENCY
4820152812 TRIMBLE R7 2.32                                  REC # / TYPE / VERS
60244996 TRM41249.00 NONE                                   ANT # / TYPE
  -761515.6649 -5552548.5174  3034588.7130                  APPROX POSITION XYZ
        2.0030        0.0000        0.0000                  ANTENNA: DELTA H/E/N
     1     1                                                WAVELENGTH FACT L1/2
     5    L1    L2    C1    P1    P2                        # / TYPES OF OBSERV
    15                                                      LEAP SECONDS
  2011     8    18     0     0   30.0000000     GPS         TIME OF FIRST OBS
                                                            END OF HEADER
 11  8 18  0  0 30.0000000  0  8G17G09G12G04G10G02G28G05
  14867070.30557  11598817.07855  22654626.5634                   22654623.7034
   3316263.07857   2601549.92255  22886055.7814                   22886055.0474
  -8172824.34057  -6354555.71155  22191302.0634                   22191299.2194
  -3445815.55158  -2668490.63756  20927211.4534                   20927209.2234
 -10741226.56258  -8266263.81256  21084808.3674                   21084805.8674
 -11285863.74258  -8776157.34456  20708461.9844                   20708456.6024
  32040266.99756  24973302.90053  24264840.0004                   24264841.3134
  -5779793.78657  -4495885.37455  23028340.6174                   23028339.8554
 11  8 18  0  1  0.0000000  0  8G17G09G12G04G10G02G28G05
  14949508.54347  11663054.62945  22670314.4454                   22670310.9184
   3417511.55947   2680444.82444  22905322.9614                   22905321.3284
  -8215362.44948  -6387702.22345  22183207.2504                   22183204.3364
  -3342679.94948  -2588125.23846  20946837.7114                   20946834.7154
 -10738155.54748  -8263870.77346  21085392.6564                   21085390.2034
 -11266467.87148  -8761043.66846  20712153.0314                   20712147.4734
  32179542.14546  25081828.77043  24291343.2584                   24291344.7304
  -5844558.91447  -4546351.59845  23016015.7114                   23016014.6214
 11  8 18  0  1 30.0000000  0  8G17G09G12G04G10G02G28G05
  15032125.84447  11727431.67245  22686035.3364                   22686033.3204
   3519172.60547   2759661.21944  22924668.4384                   22924666.9344
  -8257554.44147  -6420579.04745  22175178.9534                   22175175.1214
  -3239225.02048  -2507511.01646  20966523.9844                   20966521.7194
 -10734456.33648  -8260988.24246  21086096.3754                   21086093.8284
 -11246670.22348  -8745616.91446  20715920.4064                   20715915.2304
  32319069.52346  25190551.24243  24317894.2894                   24317895.3444
  -5909129.07847  -4596665.90645  23003728.6644                   23003726.8754
 11  8 18  0  2  0.0000000  0  7G17G09G12G04G10G02G05
  15114918.68447  11791945.53545  22701790.2814                   22701788.4104
   3621239.09847   2839193.50844  22944091.4774                   22944090.1134
  -8299401.69548  -6453187.24246  22167215.4614                   22167212.2114
  -3135456.94548  -2426652.80146  20986270.8914                   20986268.1994
 -10730130.91448  -8257617.74646  21086919.8134                   21086916.9654
 -11226475.44948  -8729880.71546  20719763.1334                   20719757.7034
  -5973505.29347  -4646829.07845  22991477.9844                   22991477.0354
 11  8 18  0  2 30.0000000  0  7G17G09G12G04G10G02G05
  15197888.07047  11856596.97245  22717579.3594                   22717576.8594
   3723707.65747   2919039.07944  22963590.0554                   22963589.0594
  -8340901.53048  -6485524.73246  22159318.1414                   22159314.6254
  -3031378.27748  -2345552.55246  21006076.3364                   21006074.0394
 -10725177.57048  -8253757.96546  21087862.1414                   21087859.3754
 -11205884.54248  -8713835.84146  20723681.5704                   20723676.3984
  -6037684.73847  -4696838.94145  22979264.5084                   22979262.9884
 11  8 18  0  3  0.0000000  0  7G17G09G12G04G10G02G05
  15281040.43047  11921391.02745  22733401.7974                   22733400.0434
   3826581.28147   2999200.29344  22983166.0394                   22983165.0474
  -8382045.40247  -6517584.83645  22151488.5864                   22151485.1024
  -2926985.35548  -2264207.44146  21025941.7894                   21025939.4534
 -10719588.63748  -8249402.91846  21088925.9924                   21088923.1884
 -11184892.19148  -8697478.15246  20727676.2114                   20727670.8284
  -6101658.58247  -4746688.58245  22967091.5474                   22967089.9734
 11  8 18  0  3 30.0000000  0  7G17G09G12G04G10G02G05
  15364377.97347  11986329.34445  22749260.8834                   22749258.8134
   3929857.84047   3079675.48444  23002818.9534                   23002817.8014
  -8422829.43047  -6549364.54345  22143727.2894                   22143724.5434
  -2822279.12148  -2182618.19146  21045866.8524                   21045864.5434
 -10713360.84848  -8244550.06646  21090110.7504                   21090108.7234
 -11163497.59448  -8680807.02346  20731747.3594                   20731742.1254
  -6165421.89847  -4796374.18745  22954957.1564                   22954955.7304
 11  8 18  0  4  0.0000000  0  7G17G09G12G04G10G02G05
  15447915.22347  12051423.24645  22765157.7114                   22765155.3204
   4033548.29647   3160473.18844  23022551.0084                   23022550.4104
  -8463236.78947  -6580850.74645  22136038.2114                   22136034.9264
  -2717247.60948  -2100775.46946  21065853.2424                   21065850.8754
 -10706478.19548  -8239186.93046  21091420.1174                   21091417.5274
 -11141687.66248  -8663812.25046  20735897.2814                   20735891.8914
  -6228957.86747  -4845882.60945  22942866.0004                   22942864.7154
 11  8 18  0  4 30.0000000  0  7G17G09G12G04G10G02G05
  15531641.87147  12116664.71945  22781090.7734                   22781087.1604
   4137638.53947   3241582.41444  23042358.5004                   23042357.4574
  -8503275.90647  -6612050.02045  22128419.3914                   22128416.2384
  -2611904.23848  -2018689.75046  21085899.8284                   21085897.8524
 -10698950.10948  -8233320.86746  21092852.9144                   21092850.6214
 -11119474.10948  -8646502.97746  20740124.6724                   20740119.2074
  -6292274.43447  -4895220.09045  22930817.9384                   22930816.5744
 11  8 18  0  5  0.0000000  0  7G17G09G12G04G10G02G05
  15615558.00047  12182053.88345  22797059.4924                   22797056.7974
   4242124.67247   3323000.12144  23062242.5394                   23062240.7234
  -8542944.49647  -6642960.56645  22120870.6414                   22120867.1024
  -2506251.71948  -1936363.14146  21106004.6884                   21106002.3324
 -10690775.63748  -8226951.12546  21094408.7114                   21094405.7974
 -11096858.21148  -8628880.18746  20744428.4064                   20744423.0784
  -6355369.09847  -4944384.65245  22918811.1484                   22918809.3284
 11  8 18  0  5 30.0000000  0  7G17G09G12G04G10G02G05
  15699662.44547  12247589.75045  22813063.1954                   22813060.9144
   4347001.30547   3404722.10944  23082198.8054                   23082198.0124
  -8582242.13748  -6673582.06646  22113392.5394                   22113389.3674
  -2400294.52348  -1853799.10246  21126167.5704                   21126164.9734
 -10681955.10548  -8220077.96546  21096087.0314                   21096084.5984
 -11073842.53548  -8610945.87946  20748807.8754                   20748802.9964
  -6418240.49647  -4993375.25045  22906847.0864                   22906845.4414
 11  8 18  0  6  0.0000000  0  7G17G09G12G04G10G02G05
  15783957.78547  12313274.40645  22829103.9614                   22829102.2504
   4452267.17647   3486747.38344  23102230.9534                   23102229.8134
  -8621164.27347  -6703910.97345  22105985.7814                   22105982.5394
  -2294032.96148  -1770997.89846  21146388.4384                   21146386.2934
 -10672484.70348  -8212698.40646  21097889.2974                   21097886.9224
 -11050426.06648  -8592699.27046  20753264.2194                   20753258.8484
  -6480884.35547  -5042188.51645  22894926.3364                   22894924.8134
 11  8 18  0  6 30.0000000  0  7G17G09G12G04G10G02G05
  15868437.68047  12379102.87945  22845180.0084                   22845178.0044
   4557912.14147   3569068.07844  23122334.3754                   23122333.2234
  -8659715.06647  -6733950.51246  22098649.7584                   22098646.6294
  -2187475.91448  -1687966.44946  21166665.7274                   21166663.3014
 -10662369.49248  -8204816.39146  21099814.0084                   21099811.9264
 -11026616.34848  -8574146.23046  20757795.1644                   20757789.8834
  -6543304.20747  -5090827.26645  22883048.0164                   22883046.6884
 11  8 18  0  7  0.0000000  0  7G17G09G12G04G10G02G05
  15953106.99347  12445078.92945  22861292.7814                   22861290.0394
   4663937.23947   3651684.98545  23142510.4844                   23142509.3244
  -8697887.67647  -6763695.37145  22091385.8524                   22091382.4734
  -2080621.52348  -1604703.31846  21186999.6804                   21186996.8094
 -10651603.98048  -8196427.65446  21101862.9224                   21101860.3284
 -11002410.11748  -8555284.21146  20762401.4454                   20762396.3714
  -6605492.69447  -5139285.71345  22871214.0704                   22871212.8754
 11  8 18  0  7 30.0000000  0  7G17G09G12G04G10G02G05
  16037961.68847  12511199.42645  22877440.3594                   22877437.4414
   4770334.32447   3734591.74244  23162757.3444                   23162755.8134
  -8735684.31647  -6793147.28946  22084193.2194                   22084189.7464
  -1973477.11748  -1521214.20746  21207388.4774                   21207386.0554
 -10640191.28548  -8187534.60946  21104034.6334                   21104031.7774
 -10977812.87948  -8536117.50446  20767081.9224                   20767076.1914
  -6667451.71547  -5187565.35245  22859423.0164                   22859422.1844
 11  8 18  0  8  0.0000000  0  7G17G09G12G04G10G02G05
  16123011.70347  12577472.10545  22893624.6334                   22893622.3324
   4877109.35247   3817793.00444  23183075.3134                   23183075.0594
  -8773093.44148  -6822297.26246  22077074.7274                   22077071.1294
  -1866035.77048  -1437493.68446  21227833.8364                   21227831.2974
 -10628120.75048  -8178128.97346  21106331.5164                   21106328.9414
 -10952816.62548  -8516639.89546  20771838.4454                   20771833.1954
  -6729169.30147  -5235656.87945  22847679.0314                   22847677.2624
 11  8 18  0  8 30.0000000  0  8G17G09G12G04G10G02G30G05
  16208243.28147  12643886.28145  22909843.6414                   22909841.2304
   4984244.96147   3901275.24644  23203462.5864                   23203461.7344
  -8810126.30148  -6851154.00845  22070027.4304                   22070023.8714
  -1758313.70748  -1353554.42646  21248332.6644                   21248330.3284
 -10615404.76648  -8168220.38746  21108750.9844                   21108748.5824
 -10927435.87148  -8496862.66046  20776668.2894                   20776663.4384
    -87611.65256    -52127.53553  24460497.8364                   24460495.6914
  -6790656.14547  -5283568.58645  22835978.4534                   22835976.9804
 11  8 18  0  9  0.0000000  0  8G17G09G12G04G10G02G30G05
  16293660.80547  12710445.37145  22926097.5474                   22926095.3874
   5091741.25847   3985038.55544  23223918.5004                   23223917.9614
  -8846776.54348  -6879712.64146  22063053.2034                   22063049.5474
  -1650309.43048  -1269395.26646  21268884.9144                   21268882.5044
 -10602038.60248  -8157805.16846  21111294.5164                   21111291.7344
 -10901668.18448  -8476783.93046  20781571.7974                   20781566.7664
   -154776.49646   -104463.73043  24447715.6024                   24447714.5824
  -6851905.92247  -5331295.56245  22824322.5864                   22824320.6644
 11  8 18  0  9 30.0000000  0  8G17G09G12G04G10G02G30G05
  16379261.89547  12777147.47345  22942387.1334                   22942385.0004
   5199591.78147   4069077.88344  23244442.0704                   23244441.3164
  -8883044.88348  -6907973.67646  22056151.4304                   22056148.5514
  -1542028.49648  -1185020.52746  21289490.4694                   21289487.8554
 -10588023.60948  -8146884.35246  21113961.1334                   21113959.3284
 -10875517.42648  -8456406.69146  20786548.3204                   20786542.7894
   -221724.52046   -156630.95343  24434976.1094                   24434975.4924
  -6912918.56647  -5378837.76645  22812712.4694                   22812711.3594
 11  8 18  0 10  0.0000000  0  8G17G09G12G04G10G02G30G05
  16465043.59847  12843990.34045  22958711.0234                   22958708.8674
   5307789.49247   4153387.75844  23265031.3594                   23265030.3364
  -8918932.54748  -6935938.08246  22049322.3834                   22049318.6374
  -1433477.14548  -1100435.06646  21310146.9144                   21310144.7814
 -10573362.32048  -8135459.94146  21116751.4304                   21116748.5514
 -10848988.04748  -8435734.42646  20791596.2894                   20791591.2114
   -288456.64146   -208629.97743  24422277.3914                   24422276.5084
  -6973694.89147  -5426195.81645  22801146.7894                   22801144.6644
 11  8 18  0 10 30.0000000  0  8G17G09G12G04G10G02G30G05
  16551001.20347  12910970.23445  22975068.3754                   22975065.6914
   5416326.37547   4237961.89544  23285684.9144                   23285684.8404
  -8954441.59848  -6963607.46546  22042564.9774                   22042562.0164
  -1324661.93748  -1015644.01246  21330853.6414                   21330851.8404
 -10558057.99248  -8123534.46546  21119663.1954                   21119661.2854
 -10822086.00848  -8414771.77346  20796715.3834                   20796710.6764
   -354975.01246   -260462.44143  24409618.7504                   24409618.7154
  -7034236.31247  -5473370.85945  22789626.3134                   22789624.5984
 11  8 18  0 11  0.0000000  0  8G17G09G12G04G10G02G30G05
  15061725.55547  11750495.64545  22691668.7734                   22691665.8834
   3949789.05547   3095205.50844  23006612.3754                   23006611.4494
 -10564983.99648  -8218575.55146  21736088.9844                   21736085.7894
  -2790995.36748  -2158241.49646  21051819.8284                   21051817.6414
 -12117522.14548  -9338701.32046  20822907.0084                   20822904.6524
 -12370224.27748  -9621113.25846  20502114.3674                   20502109.3554
  -1996692.28946  -1539722.62143  24097211.0164                   24097209.8444
  -8669955.62947  -6747957.23845  22478359.3674                   22478357.1134
 11  8 18  0 11 30.0000000  0  8G17G09G12G04G10G02G30G05
  15148048.53147  11817760.25045  22708095.1724                   22708093.5394
   4059004.00847   3180308.03144  23027395.5634                   23027394.7034
 -10599717.43748  -8245640.55546  21729479.4384                   21729476.5704
  -2681649.49248  -2073036.91846  21072627.7194                   21072625.5824
 -12100917.45747  -9325762.57446  20826066.8674                   20826064.5354
 -12342568.64148  -9599563.38746  20507377.5164                   20507372.0204
  -2062764.29346  -1591207.21943  24084637.5234                   24084637.1094
  -8730008.71947  -6794751.76245  22466931.5634                   22466929.9614
 11  8 18  0 12  0.0000000  0  8G17G09G12G04G10G02G30G05
  15234556.94347  11885169.36345  22724557.5164                   22724554.8874
   4168555.17147   3265672.53044  23048242.6724                   23048241.4384
 -10634057.65248  -8272399.13746  21722944.6804                   21722941.4804
  -2572039.53148  -1987626.56246  21093485.7194                   21093483.6484
 -12083658.70748  -9312314.18046  20829351.3524                   20829349.3594
 -12314535.70748  -9577719.51646  20512712.2814                   20512706.6994
  -2128606.95346  -1642513.14643  24072108.4144                   24072107.5354
  -8789811.15647  -6841350.97345  22455551.5864                   22455549.7114
 11  8 18  0 12 30.0000000  0  8G17G09G12G04G10G02G30G05
  15321247.81647  11952720.68045  22741053.6564                   22741051.7504
   4278436.23047   3351294.11744  23069152.1484                   23069151.2974
 -10668004.84848  -8298851.47746  21716484.5864                   21716481.3284
  -2462170.81248  -1902014.56246  21114392.8524                   21114391.0234
 -12065747.46148  -9298357.34446  20832759.7034                   20832757.3134
 -12286129.37148  -9555584.69546  20518117.3984                   20518112.2734
  -2194220.68746  -1693640.65143  24059622.5554                   24059620.9804
  -8849362.71947  -6887754.69545  22444218.4384                   22444217.2234
 11  8 18  0 13  0.0000000  0  8G17G09G12G04G10G02G30G05
  15408127.70347  12020419.25045  22757586.7344                   22757583.9064
   4388648.97747   3437174.11344  23090124.8204                   23090123.8404
 -10701551.12148  -8324991.39546  21710100.8834                   21710098.0124
  -2352040.11748  -1816198.44546  21135350.3204                   21135348.2114
 -12047177.32848  -9283887.09846  20836293.2274                   20836291.0784
 -12257345.30148  -9533155.52746  20523594.8524                   20523589.4264
  -2259597.07446  -1744583.19943  24047181.6724                   24047180.3914
  -8908655.17247  -6933956.51245  22432935.7814                   22432934.1484
 11  8 18  0 13 30.0000000  0  8G17G09G12G04G10G02G30G05
  15495197.97747  12088266.17644  22774155.5084                   22774153.0634
   4499190.85547   3523310.59044  23111160.1414                   23111159.2774
 -10734693.21947  -8350816.36346  21703794.1414                   21703791.0984
  -2241649.09848  -1730179.46946  21156356.6564                   21156354.5824
 -12027946.52748  -9268902.03546  20839953.1884                   20839950.2114
 -12228183.57848  -9510432.09446  20529143.9774                   20529138.8754
  -2324732.96146  -1795338.34843  24034786.3754                   24034784.5124
  -8967685.13347  -6979953.79345  22421702.7894                   22421700.9614
 11  8 18  0 14  0.0000000  0  8G17G09G12G04G10G02G30G05
  15582456.42647  12156259.70345  22790760.6804                   22790758.1724
   4610055.43447   3609698.51244  23132257.3754                   23132256.6334
 -10767431.61748  -8376326.75846  21697564.4064                   21697561.0474
  -2131003.13348  -1643961.84446  21177412.3364                   21177409.9104
 -12008056.64148  -9253403.42246  20843738.2584                   20843735.4414
 -12198648.03548  -9487417.36346  20534764.5164                   20534759.5124
  -2389628.39846  -1845906.12542  24022437.5784                   24022435.4924
  -9026452.32047  -7025746.31645  22410519.6334                   22410517.8014
 11  8 18  0 14 30.0000000  0  8G17G09G12G04G10G02G30G05
  15669900.71947  12224398.07845  22807401.0784                   22807398.4104
   4721236.97747   3696333.43444  23153414.3674                   23153413.3794
 -10799766.03947  -8401522.36746  21691411.4454                   21691408.0084
  -2020106.59848  -1557548.95346  21198515.2894                   21198512.7734
 -11987508.75848  -9237392.06646  20847648.0784                   20847645.6604
 -12168742.21948  -9464114.10946  20540455.3834                   20540450.0634
  -2454282.88346  -1896286.19942  24010133.3524                   24010132.3834
  -9084956.19947  -7071333.66045  22399386.5784                   22399385.3594
 11  8 18  0 15  0.0000000  0  8G17G09G12G04G10G02G30G05
  15757537.47347  12292686.43445  22824077.4534                   22824074.6414
   4832737.69947   3783217.06644  23174631.9924                   23174631.4454
 -10831688.05948  -8426396.60546  21685336.7584                   21685333.3364
  -1908956.12148  -1470938.19545  21219666.0164                   21219663.6054
 -11966296.28948  -9220862.83646  20851684.4694                   20851681.9804
 -12138461.41848  -9440518.66846  20546217.2974                   20546212.2154
  -2518688.07846  -1946472.01243  23997878.1094                   23997875.7734
  -9143187.89447  -7116708.90845  22388305.5314                   22388303.6764
 11  8 18  0 15 30.0000000  0  9G17G09G12G04G10G02G30G05G25
  15845369.20447  12361126.68745  22840791.5164                   22840788.5944
   4944556.20347   3870348.30544  23195910.4224                   23195910.1254
 -10863193.55848  -8450946.29446  21679340.9454                   21679338.2344
  -1797551.73848  -1384129.59446  21240865.7584                   21240863.2274
 -11944416.11748  -9203813.33246  20855848.3284                   20855845.6174
 -12107804.53148  -9416630.17246  20552051.1644                   20552046.1564
  -2582839.43046  -1996460.01243  23985669.6174                   23985668.5204
  -9201142.47747  -7161868.24245  22377276.5004                   22377275.0274
  -1670096.68456  -1287913.97753  24561391.8834                   24561391.4734
 11  8 18  0 16  0.0000000  0  9G17G09G12G04G10G02G30G05G25
  15933397.87947  12429720.43045  22857542.6804                   22857540.0434
   5056690.12547   3957725.33644  23217249.1024                   23217247.9144
 -10894279.09448  -8475168.74646  21673425.9454                   21673422.6414
  -1685894.76248  -1297124.16046  21262113.5704                   21262111.6094
 -11921866.03548  -9186241.81646  20860139.7344                   20860136.0864
 -12076771.52048  -9392448.59446  20557956.6414                   20557951.9494
  -2646732.75446  -2046246.93443  23973511.6024                   23973509.6604
  -9258816.08647  -7206808.62145  22366301.8054                   22366300.5824
  -1734060.96146  -1337756.22343  24549220.1414                   24549219.7624
 11  8 18  0 16 30.0000000  0  9G17G09G12G04G10G02G30G05G25
  16021615.33247  12498461.27345  22874329.3134                   22874327.4734
   5169127.44947   4045338.76644  23238645.0004                   23238644.2034
 -10924950.23847  -8499068.28546  21667589.6254                   21667585.6644
  -1573996.18048  -1209930.46146  21283407.1564                   21283405.2734
 -11898653.72748  -9168154.27746  20864556.9304                   20864553.9344
 -12045372.05548  -9367981.47346  20563931.8984                   20563926.5824
  -2710374.02346  -2095837.48843  23961401.5004                   23961399.6054
  -9316214.20747  -7251534.32445  22355379.2424                   22355377.4884
  -1797870.18046  -1387477.62144  24537076.8834                   24537077.6214
 11  8 18  0 17  0.0000000  0  9G17G09G12G04G10G02G30G05G25
  16110030.26247  12567356.00445  22891154.2664                   22891152.7974
   5281872.92247   4133192.32444  23260099.7424                   23260098.9414
 -10955196.87947  -8522637.04746  21661833.6024                   21661829.9534
  -1461850.09448  -1122543.90246  21304747.8524                   21304745.8094
 -11874770.13348  -9149543.66846  20869101.4454                   20869098.7854
 -12013599.12548  -9343223.34046  20569978.1024                   20569973.0704
  -2773752.41046  -2145223.18443  23949340.9384                   23949339.3324
  -9373326.17647  -7296037.05945  22344510.8134                   22344509.4144
  -1861513.81246  -1437070.00443  24524966.2814                   24524967.2114
 11  8 18  0 17 30.0000000  0  9G17G09G12G04G10G02G30G05G25
  16198644.22747  12636405.81345  22908017.0474                   22908015.6094
   5394924.25046   4221284.21944  23281613.0944                   23281611.9264
 -10985015.30948  -8545872.13746  21656159.7974                   21656155.8404
  -1349457.25848  -1034965.07046  21326135.4844                   21326133.0904
 -11850213.06248  -9130408.26646  20873774.5474                   20873771.6254
 -11981452.34848  -9318173.89546  20576095.4064                   20576090.1724
  -2836863.97346  -2194400.97743  23937331.3674                   23937329.1564
  -9430147.69547  -7340313.48445  22333698.8984                   22333696.5164
  -1924988.23446  -1486530.53943  24512886.8834                   24512888.0044
 11  8 18  0 18  0.0000000  0  9G17G09G12G04G10G02G30G05G25
  16287458.38347  12705611.59045  22924918.0554                   22924915.7274
   5508277.85247   4309611.63344  23303183.9694                   23303182.6094
 -11014402.58648  -8568771.27346  21650567.1334                   21650563.7114
  -1236820.06248   -947195.83645  21347569.6414                   21347567.5354
 -11824981.53148  -9110747.30946  20878576.2504                   20878573.0314
 -11948932.90648  -9292834.05546  20582283.5784                   20582278.0744
  -2899706.02746  -2243368.77743  23925372.8524                   23925370.6684
  -9486675.75447  -7384361.23445  22322941.5864                   22322939.3524
  -1988291.00046  -1535857.33644  24500841.2274                   24500842.3014
 11  8 18  0 18 30.0000000  0  9G17G09G12G04G10G02G30G05G25
  16376474.18847  12774974.50044  22941857.9144                   22941855.3324
   5621932.22747   4398173.41044  23324811.0554                   23324810.7814
 -11043355.26247  -8591331.75846  21645057.3444                   21645054.1174
  -1123939.14548   -859236.68046  21369049.9774                   21369047.5944
 -11799073.08648  -9090558.89546  20883506.3834                   20883503.2774
 -11916040.05148  -9267203.24246  20588542.8134                   20588537.5274
  -2962273.95746  -2292122.96143  23913466.3754                   23913464.6914
  -9542905.68047  -7428176.68445  22312241.4384                   22312238.6254
  -2051417.91446  -1585047.07444  24488827.9694                   24488829.4144
 11  8 18  0 19  0.0000000  0  9G17G09G12G04G10G02G30G05G25
  16465702.62947  12844503.13744  22958837.1334                   22958834.6954
   5735894.16847   4486974.86344  23346497.6484                   23346497.0314
 -11071860.16447  -8613543.32846  21639633.0554                   21639629.5984
  -1010806.25448   -771081.19545  21390578.3914                   21390576.2114
 -11772476.62148  -9069834.35546  20888567.0474                   20888564.3054
 -11882764.71548  -9241274.40246  20594874.8054                   20594869.6294
  -3024554.79346  -2340653.41844  23901614.6724                   23901613.7154
  -9598823.95747  -7471749.28545  22301600.7034                   22301597.8134
  -2114356.36746  -1634089.95743  24476850.9774                   24476852.6954
 11  8 18  0 19 30.0000000  0  9G17G09G12G04G10G02G30G05G25
  16555137.24347  12914192.44345  22975855.6564                   22975854.0864
   5850152.64547   4576007.37544  23368240.5784                   23368240.0984
 -11099922.44947  -8635410.01646  21634293.1414                   21634289.5904
   -897431.18148   -682736.99645  21412153.0554                   21412150.6804
 -11745198.63748  -9048578.75246  20893758.3594                   20893755.7344
 -11849115.49648  -9215054.22746  20601278.2664                   20601273.2034
  -3086553.18746  -2388963.80143  23889815.7424                   23889815.5044
  -9654435.86347  -7515083.17845  22291018.3364                   22291015.8954
  -2177111.29746  -1682989.80943  24464909.3834                   24464910.6414
 11  8 18  0 20  0.0000000  0  9G17G09G12G04G10G02G30G05G25
  16644784.55547  12984047.43845  22992915.4064                   22992913.2074
   5964710.06647   4665272.82844  23390040.3524                   23390039.0664
 -11127533.69947  -8656925.25046  21629039.0394                   21629035.3794
   -783810.12948   -594201.11745  21433774.6644                   21433772.0164
 -11717232.74648  -9026787.12146  20899079.6094                   20899077.3634
 -11815087.11348  -9188538.59046  20607753.6094                   20607748.2894
  -3148260.52346  -2437047.42243  23878074.4064                   23878072.2114
  -9709732.27347  -7558171.21145  22280494.8444                   22280492.7774
  -2239674.27746  -1731740.07843  24453004.2274                   24453004.7504
 11  8 18  0 20 30.0000000  0  9G17G09G12G04G10G02G30G05G25
  16734639.62547  13054064.32045  23010014.0944                   23010012.4844
   6079558.10247   4754764.77344  23411895.3054                   23411893.6724
 -11154696.49247  -8678091.03946  21623869.6804                   21623866.2384
   -669950.34048   -505479.21146  21455441.3914                   21455439.4304
 -11688582.70348  -9004462.39546  20904531.5944                   20904528.7344
 -11780685.66048  -9161732.24246  20614299.9064                   20614294.4494
  -3209679.00046  -2484905.93043  23866386.2274                   23866383.9924
  -9764715.03947  -7601014.83645  22270031.9304                   22270029.8794
  -2302047.88746  -1780342.83243  24441134.8594                   24441135.2814
 11  8 18  0 21  0.0000000  0  9G17G09G12G04G10G02G30G05G25
  16824708.26247  13124247.62145  23027153.1804                   23027151.4304
   6194698.39147   4844484.43844  23433805.4224                   23433804.3954
 -11181403.46947  -8698901.64546  21618787.8834                   21618784.4614
   -555848.89548   -416569.01245  21477154.1174                   21477151.8244
 -11659243.05548  -8981600.30946  20910114.7584                   20910112.0234
 -11745907.79348  -9134632.59846  20620918.2424                   20620912.8754
  -3270800.71946  -2532533.21143  23854755.1484                   23854753.6724
  -9819376.49647  -7643608.12545  22259630.0394                   22259627.7624
  -2364224.56646  -1828792.14143  24429302.5784                   24429302.7504
 11  8 18  0 21 30.0000000  0  9G17G09G12G04G10G02G30G05G25
  16915001.36747  13194605.84445  23044335.8594                   23044333.8244
   6310137.62147   4934437.00444  23455772.4304                   23455772.1604
 -11207641.89148  -8719347.15246  21613794.5554                   21613791.3554
   -441497.77348   -327464.25845  21498914.6094                   21498912.3524
 -11629202.98048  -8958192.45346  20915831.4064                   20915829.1884
 -11710743.87548  -9107232.13346  20627609.3364                   20627604.6134
  -3331612.68446  -2579919.15643  23843182.9064                   23843181.0044
  -9873703.05947  -7685940.43445  22249292.3364                   22249289.8524
  -2426191.64146  -1877078.09043  24417511.1884                   24417511.4844
 11  8 18  0 22  0.0000000  0  9G17G09G12G04G10G02G30G05G25
  17005509.35547  13265131.49245  23061559.2344                   23061556.5824
   6425862.01247   5024611.77744  23477794.4384                   23477794.4804
 -11233419.30548  -8739433.42646  21608889.1414                   21608885.7344
   -326909.18048   -238174.45345  21520720.0554                   21520717.7424
 -11598471.37948  -8934245.71546  20921679.6174                   20921677.0164
 -11675204.96148  -9079539.45746  20634372.2584                   20634367.4414
  -3392122.12546  -2627069.36343  23831668.4614                   23831667.1604
  -9927702.31647  -7728017.70745  22239016.7974                   22239014.2274
  -2487956.64546  -1925206.60943  24405757.7894                   24405757.9494
 11  8 18  0 22 30.0000000  0  9G17G09G12G04G10G02G30G05G25
  17096234.52047  13335826.35945  23078823.4144                   23078821.9534
   6541870.20347   5115007.69544  23499870.2584                   23499869.7544
 -11258731.66448  -8759157.34046  21604072.5634                   21604069.3914
   -212083.75848   -148700.11345  21542570.2584                   21542568.0984
 -11567046.00448  -8909758.38346  20927659.1174                   20927656.9574
 -11639290.75048  -9051554.34446  20641206.0474                   20641201.2664
  -3452324.61346  -2673980.36743  23820212.1024                   23820211.3834
  -9981369.62947  -7769836.32845  22228803.7504                   22228802.2664
  -2549515.43746  -1973174.44543  24394043.1884                   24394043.6054
 11  8 18  0 23  0.0000000  0  9G17G09G12G04G10G02G30G05G25
  17187181.27347  13406693.93845  23096130.3134                   23096128.2114
   6658162.61346   5205625.09044  23522000.2194                   23521999.5004
 -11283572.72748  -8778513.99646  21599345.4694                   21599341.8014
    -97019.40248    -59039.58245  21564466.4144                   21564464.4304
 -11534922.55948  -8884727.08246  20933772.2344                   20933769.4734
 -11602998.44148  -9023274.60546  20648112.5234                   20648107.5634
  -3512213.56646  -2720647.04344  23808816.3134                   23808814.7074
 -10034698.10247  -7811390.89145  22218655.6804                   22218653.5474
  -2610861.68747  -2020976.66444  24382370.1724                   24382370.1684
 11  8 18  0 23 30.0000000  0  9G17G09G12G04G10G02G30G05G25
  17278357.85547  13477740.56645  23113480.3834                   23113478.6294
   6774743.18047   5296467.01644  23544183.9224                   23544184.3554
 -11307932.30548  -8797495.48046  21594710.0394                   21594706.5744
     18289.06648     30811.15245  21586409.2034                   21586406.3834
 -11502092.86748  -8859145.48446  20940019.3984                   20940016.5864
 -11566321.50048  -8994695.15246  20655092.1884                   20655086.9534
  -3571778.46146  -2767061.19143  23797480.8444                   23797479.3364
 -10087677.25047  -7852673.27045  22208573.7974                   22208571.9144
  -2671985.26647  -2068605.40244  24370738.2114                   24370738.8874
 11  8 18  0 24  0.0000000  0  9G17G09G12G04G10G02G30G05G25
  17369754.42247  13548958.60945  23130872.8594                   23130871.0474
   6891598.53947   5387523.07044  23566421.5554                   23566421.3794
 -11331818.37148  -8816108.00446  21590164.3134                   21590161.1994
    133829.57448    120842.68845  21608395.2034                   21608393.0824
 -11468566.84448  -8833021.30146  20946399.2664                   20946396.5864
 -11529271.13348  -8965824.72746  20662142.6414                   20662137.5314
  -3631026.68747  -2813228.61344  23786206.2344                   23786204.9494
 -10140314.43747  -7893689.19945  22198557.4224                   22198556.0164
  -2732893.77747  -2116066.52744  24359147.9384                   24359148.2304
 11  8 18  0 24 30.0000000  0  9G17G09G12G04G10G02G30G05G25
  17461376.55147  13620352.44545  23148308.3524                   23148305.8244
   7008729.77747   5478794.09844  23588710.5314                   23588710.9344
 -11355223.98448  -8834346.12946  21585710.7734                   21585707.1054
    249604.61748    211056.98445  21630426.8914                   21630424.7734
 -11434338.86748  -8806350.12146  20952912.4534                   20952909.5514
 -11491843.65648  -8936660.44146  20669264.9144                   20669259.6214
  -3689950.77747  -2859143.42243  23774993.5944                   23774992.1294
 -10192601.77047  -7934432.50046  22188607.3594                   22188605.3364
  -2793579.96547  -2163354.43744  24347600.0394                   24347600.0594
 11  8 18  0 25  0.0000000  0  9G17G09G12G04G10G02G30G05G25
  17553229.98447  13691926.49244  23165787.5234                   23165784.3714
   7126138.82447   5570281.58644  23611052.5314                   23611052.0824
 -11378141.10548  -8852203.62146  21581349.7584                   21581346.2704
    365617.45348    301456.58245  21652503.5554                   21652500.9694
 -11399402.90248  -8779127.25846  20959560.8594                   20959557.9264
 -11454034.82848  -8907199.00446  20676459.4534                   20676454.0354
  -3748542.38347  -2904799.14843  23763843.6484                   23763842.6604
 -10244531.00847  -7974896.77045  22178725.6414                   22178723.4964
  -2854035.91047  -2210462.95344  24336095.3834                   24336095.2384
 11  8 18  0 25 30.0000000  0  9G17G09G12G04G10G02G30G05G25
  17645309.35947  13763676.62144  23183309.3754                   23183306.5744
   7243816.44547   5661978.35944  23633446.0634                   23633445.6844
 -11400573.38348  -8869683.32446  21577081.0944                   21577077.5514
    481859.94948    392035.12145  21674623.8524                   21674621.1994
 -11363764.30147  -8751356.91046  20966342.4454                   20966339.5784
 -11415851.90248  -8877446.05946  20683725.5554                   20683720.3484
  -3806804.85947  -2950198.41444  23752757.3284                   23752755.1174
 -10296104.91847  -8015084.16045  22168911.5394                   22168909.5044
  -2914265.15247  -2257394.82944  24324634.1484                   24324634.2934
 11  8 18  0 26  0.0000000  0  9G17G09G12G04G10G02G30G05G25
  17737619.36547  13835606.46044  23200875.0234                   23200873.0634
   7361763.19546   5753884.83244  23655891.0474                   23655890.1954
 -11422514.33548  -8886780.17546  21572905.8594                   21572902.2544
    598334.36448    482794.38745  21696788.8364                   21696786.1294
 -11327418.67847  -8723035.62646  20973258.5784                   20973255.9884
 -11377291.58348  -8847399.04746  20691063.4614                   20691058.0664
  -3864731.20747  -2995335.77744  23741734.2424                   23741732.0394
 -10347317.22547  -8054989.78846  22159166.0234                   22159164.0594
  -2974260.82647  -2304144.66144  24313217.0944                   24313217.5124
 11  8 18  0 26 30.0000000  0  9G17G09G12G04G10G02G30G05G25
  17830166.57847  13907721.10244  23218486.7194                   23218484.4304
   7479981.46147   5846002.89544  23678387.5474                   23678387.1804
 -11443955.66448  -8903487.69146  21568825.6024                   21568822.4104
    715044.22748    573737.11345  21718997.6334                   21718994.9844
 -11290359.92647  -8694158.65646  20980310.6094                   20980308.0124
 -11338349.15648  -8817054.28946  20698473.7734                   20698468.5474
  -3922312.53146  -3040204.26643  23730776.0164                   23730774.6604
 -10398158.91047  -8094606.62945  22149491.0944                   22149488.8524
  -3034014.51346  -2350705.99244  24301845.8834                   24301846.7584
 11  8 18  0 27  0.0000000  0  9G17G09G12G04G10G02G30G05G25
  17922945.43447  13980016.29345  23236141.8594                   23236139.8794
   7598461.80547   5938325.15944  23700933.4694                   23700933.1054
 -11464901.16048  -8919808.85946  21564839.6724                   21564836.5784
    831981.37548    664856.93645  21741250.1334                   21741247.7504
 -11252593.71048  -8664730.41146  20987497.1094                   20987494.7074
 -11299032.06648  -8786417.58946  20705955.6024                   20705950.0354
  -3979552.35546  -3084806.61743  23719883.2114                   23719882.6604
 -10448633.26247  -8133937.21745  22139885.7424                   22139883.5984
  -3093529.94746  -2397081.62444  24290520.8984                   24290521.1214
 11  8 18  0 27 30.0000000  0  9G17G09G12G04G10G02G30G05G25
  18015954.80547  14052491.09845  23253840.6954                   23253839.0314
   7717199.46546   6030847.92244  23723528.1804                   23723528.4924
 -11485350.05148  -8935743.03946  21560948.2424                   21560944.7154
    949142.44548    756151.25445  21763544.7504                   21763542.9144
 -11214120.84048  -8634751.52346  20994818.8834                   20994815.9964
 -11259342.85948  -8755490.92646  20713507.8134                   20713502.6844
  -4036449.32346  -3129141.81843  23709056.0554                   23709055.6294
 -10498738.94547  -8172980.55145  22130351.2194                   22130349.0124
  -3152805.82446  -2443270.60243  24279240.6804                   24279241.0314
 11  8 18  0 28  0.0000000  0  9G17G09G12G04G10G02G30G05G25
  18109202.87547  14125151.89144  23271584.8524                   23271583.4574
   7836198.40246   6123574.27744  23746173.2894                   23746172.8794
 -11505292.36748  -8951282.48846  21557153.7034                   21557149.8714
   1066532.82448    847624.25045  21785883.5164                   21785881.1374
 -11174933.59048  -8604215.98046  21002275.3594                   21002273.1684
 -11219275.28148  -8724269.42646  20721132.5944                   20721127.1844
  -4092992.98846  -3173201.75443  23698296.0394                   23698294.9614
 -10548465.24248  -8211728.23845  22120888.3054                   22120886.5744
  -3211832.19946  -2489265.14843  24268007.8134                   24268008.8324
 11  8 18  0 28 30.0000000  0  9G17G09G12G04G10G02G30G05G25
  18202688.30947  14197997.64145  23289374.8284                   23289373.5594
   7955453.43847   6216500.20744  23768867.3524                   23768866.1254
 -11524727.59048  -8966426.79346  21553455.5554                   21553451.8674
   1184148.71548    939272.96545  21808265.1254                   21808262.8164
 -11135033.55148  -8573125.00446  21009868.4144                   21009865.3674
 -11178831.93048  -8692755.11746  20728828.7344                   20728823.5984
  -4149182.41846  -3216985.62543  23687603.3594                   23687602.9654
 -10597810.82048  -8250179.27046  22111498.2274                   22111496.0904
  -3270608.20746  -2535064.55143  24256823.2424                   24256824.3284
 11  8 18  0 29  0.0000000  0  9G17G09G12G04G10G02G30G05G25
  18296412.45347  14271029.40644  23307210.2504                   23307208.4694
   8074961.63746   6309623.42644  23791608.5784                   23791607.8524
 -11543652.88748  -8981173.75946  21549853.7894                   21549850.4574
   1301988.77348   1031096.35545  21830689.2894                   21830686.6024
 -11094419.81448  -8541477.91746  21017597.0234                   21017593.6564
 -11138013.43448  -8660948.47746  20736595.7034                   20736590.4614
  -4205014.15346  -3260490.77243  23676979.8054                   23676978.2304
 -10646772.69348  -8288331.31146  22102180.9454                   22102179.0824
  -3329130.68046  -2580666.44344  24245686.7974                   24245688.1764
 11  8 18  0 29 30.0000000  0  9G17G09G12G04G10G02G30G05G25
  18390370.55547  14344243.46544  23325089.6954                   23325088.5514
   8194714.52747   6402937.32443  23814397.2894                   23814396.4184
 -11562070.69548  -8995525.26246  21546349.0784                   21546345.3914
   1420045.74248   1123088.78545  21853155.1094                   21853152.3244
 -11053096.93748  -8509278.24646  21025460.4694                   21025456.9804
 -11096826.02748  -8628854.37946  20744433.9614                   20744428.8094
  -4260490.38747  -3303718.92643  23666423.0864                   23666421.3794
 -10695352.85548  -8326185.90246  22092936.8524                   22092934.0554
  -3387402.02746  -2626072.61344  24234597.5944                   24234599.3404
 11  8 18  0 30  0.0000000  0  9G17G09G12G04G10G02G30G05G25
  18484570.14147  14417645.68044  23343015.7344                   23343013.4574
   8314715.65247   6496444.62144  23837232.3984                   23837231.5164
 -11579971.96548  -9009474.27346  21542942.5314                   21542938.7154
   1538324.46948   1215253.99245  21875662.4534                   21875660.1804
 -11011058.16848  -8476520.73846  21033459.7114                   21033457.2584
 -11055263.89848  -8596468.30546  20752342.8364                   20752337.5904
  -4315601.45747  -3346662.53144  23655935.7894                   23655933.8134
 -10743541.71947  -8363735.62946  22083766.7664                   22083764.0784
  -3445412.89547  -2671275.76644  24223559.2344                   24223560.2034
 11  8 18  0 30 30.0000000  0  9G17G09G12G04G10G02G30G05G25
  18579009.96147  14491235.12944  23360986.2344                   23360984.3754
   8434959.77347   6590141.27744  23860114.0704                   23860113.9804
 -11597356.08648  -9023020.29746  21539634.4924                   21539631.4024
   1656821.32448   1307589.18445  21898211.7344                   21898209.4924
 -10968304.97348  -8443206.53946  21041595.8834                   21041592.4414
 -11013329.88748  -8563792.44946  20760323.3054                   20760317.6454
  -4370346.30947  -3389320.77044  23645518.2194                   23645516.0354
 -10791338.22347  -8400979.57846  22074670.9534                   22074669.0164
  -3503162.37547  -2716275.25044  24212570.0394                   24212570.9264
 11  8 18  0 31  0.0000000  0  9G17G09G12G04G10G02G30G05G25
  17098268.35547  13337410.42644  23079210.7114                   23079209.5004
   6980022.03146   5456423.50844  23583248.4224                   23583248.2504
 -13189647.41848 -10263766.74246  21236631.3284                   21236628.1954
    200112.88748    172491.67245  21621009.4694                   21621006.8364
 -12500261.27047  -9636938.69146  20750074.0784                   20750071.0944
 -12546449.61748  -9758431.21146  20468579.8834                   20468574.2274
  -6000149.43747  -4659297.15244  23335376.6644                   23335373.9344
 -12414166.48047  -9665521.01646  21765856.9454                   21765855.1134
  -5136075.34447  -3988674.85944  23901836.7344                   23901837.6174
 11  8 18  0 31 30.0000000  0  9G17G09G12G04G10G02G30G05G25
  17193177.98047  13411365.93844  23097271.7424                   23097270.1764
   7100729.51647   5550481.23843  23606218.5784                   23606218.2384
 -13206003.59048 -10276511.77746  21233518.9064                   21233515.4654
    319027.52048    265152.40645  21643638.2734                   21643635.6804
 -12456091.23047  -9602520.45746  20758479.3134                   20758476.6294
 -12503788.26248  -9725188.58246  20476697.8834                   20476692.5474
  -6054165.87147  -4701387.80544  23325097.8754                   23325095.2624
 -12461181.96947  -9702156.39546  21756910.8674                   21756908.5944
  -5193306.76647  -4033270.64544  23890945.7504                   23890946.9534
 11  8 18  0 32  0.0000000  0  9G17G09G12G04G10G02G30G05G25
  17288325.82847  13485507.04444  23115377.5704                   23115375.8834
   7221666.30047   5644717.63243  23629231.9454                   23629231.3594
 -13221839.83048 -10288851.65746  21230505.4534                   21230501.7734
    438150.57648    357975.54545  21666306.3674                   21666304.4264
 -12411209.85948  -9567547.92646  20767019.8444                   20767016.8874
 -12460762.33648  -9691661.88746  20484885.7114                   20484879.9104
  -6107811.22747  -4743189.32944  23314889.3444                   23314887.1294
 -12507800.22347  -9738482.23446  21748039.2734                   21748037.0864
  -5250272.70947  -4077659.59944  23880106.1884                   23880106.5164
 11  8 18  0 32 30.0000000  0  9G17G09G12G04G10G02G30G05G25
  17383714.18047  13559835.59844  23133529.8594                   23133527.7194
   7342830.81347   5739131.48444  23652289.1804                   23652288.5274
 -13237151.91848 -10300783.11346  21227591.3674                   21227587.9964
    557482.02048    450961.06345  21689014.2664                   21689011.9734
 -12365615.14547  -9532019.56246  20775696.0164                   20775693.0944
 -12417370.99248  -9657850.45346  20493142.2974                   20493136.8014
  -6161080.99247  -4784698.17644  23304752.4144                   23304750.8444
 -12554016.38747  -9774494.77746  21739244.7814                   21739242.1684
  -5306968.74647  -4121838.22744  23869316.8444                   23869317.3054
 11  8 18  0 33  0.0000000  0  9G17G09G12G04G10G02G30G05G25
  17479340.45347  13634349.55144  23151726.9144                   23151724.3594
   7464216.27746   5833717.53544  23675387.2504                   23675387.5594
 -13251940.63347 -10312306.75046  21224777.1254                   21224773.4184
    677016.76648    544105.00445  21711761.6174                   21711759.3634
 -12319310.45748  -9495937.98046  20784507.9064                   20784505.1644
 -12373618.66448  -9623757.73046  20501468.1804                   20501462.9224
  -6213975.29347  -4825914.46944  23294686.9534                   23294685.0394
 -12599830.74247  -9810194.21546  21730526.4454                   21730524.1484
  -5363395.37547  -4165806.93444  23858579.0164                   23858579.6764
 11  8 18  0 33 30.0000000  0  9G17G09G12G04G10G02G30G05G25
  17575208.50047  13709051.85944  23169970.0784                   23169968.7234
   7585822.44546   5928475.51243  23698528.7114                   23698528.8834
 -13266200.56247 -10323418.34446  21222063.9774                   21222060.0474
    796755.73848    637408.07045  21734547.2894                   21734544.3284
 -12272292.64147  -9459300.70346  20793454.8284                   20793452.6374
 -12329503.57848  -9589382.34046  20509863.1954                   20509857.7384
  -6266488.34047  -4866833.71144  23284693.6254                   23284692.4574
 -12645237.58247  -9845576.10946  21721885.5784                   21721883.4694
  -5419546.88747  -4209561.28544  23847893.4454                   23847893.4184
 11  8 18  0 34  0.0000000  0  9G17G09G12G04G10G02G30G05G25
  17671313.66047  13783938.94544  23188258.0474                   23188256.5004
   7707640.96546   6023398.98043  23721709.5634                   23721709.9454
 -13279934.65247 -10334120.19146  21219450.0944                   21219446.7814
    916692.34448    730865.14545  21757369.9224                   21757367.7114
 -12224566.55548  -9422111.53146  20802537.0474                   20802534.4264
 -12285031.61748  -9554728.85946  20518325.8134                   20518320.6054
  -6318622.10547  -4907457.39144  23274773.4614                   23274771.5944
 -12690239.01647  -9880642.11346  21713322.1884                   21713319.6294
  -5475425.60546  -4253103.05544  23837259.4614                   23837260.2274
 11  8 18  0 34 30.0000000  0  9G17G09G12G04G10G02G30G05G25
  17767655.81347  13859010.72744  23206591.7114                   23206589.6724
   7829668.01646   6118484.91443  23744930.5164                   23744929.9104
 -13293141.50447 -10344411.20346  21216936.5784                   21216933.6254
   1036823.71948    824473.98045  21780230.2504                   21780227.7734
 -12176133.10548  -9384371.16046  20811753.3524                   20811750.9144
 -12240204.86048  -9519798.91346  20526856.0784                   20526850.8554
  -6370374.69147  -4947784.05244  23264924.5474                   23264922.9064
 -12734832.97347  -9915390.58646  21704835.9694                   21704833.6254
  -5531029.69146  -4296430.82744  23826678.3754                   23826679.6764
 11  8 18  0 35  0.0000000  0  9G17G09G12G04G10G02G30G05G25
  17864238.55947  13934269.98444  23224970.7194                   23224968.6914
   7951903.35947   6213733.21944  23768192.1804                   23768191.6564
 -13305815.33247 -10354286.89146  21214525.3984                   21214521.5784
   1157151.35248    918235.73445  21803127.9694                   21803125.3054
 -12126989.04348  -9346077.07446  20821105.2974                   20821102.2584
 -12195020.98448  -9484590.69146  20535454.3914                   20535449.6644
  -6421739.91046  -4987808.90244  23255150.5474                   23255148.5514
 -12779013.35547  -9949816.80946  21696428.2274                   21696426.7194
  -5586353.11747  -4339539.91444  23816150.4304                   23816151.3874
 11  8 18  0 35 30.0000000  0  9G17G09G12G04G10G02G30G05G25
  17961055.58247  14009711.77044  23243394.0084                   23243392.6884
   8074336.29347   6309135.46544  23791490.2814                   23791489.6994
 -13317961.32847 -10363751.26646  21212213.7344                   21212210.5594
   1277666.24248   1012143.42245  21826061.1804                   21826058.8484
 -12077141.45348  -9307234.78546  20830590.6644                   20830588.4534
 -12149488.25048  -9449110.62946  20544118.9534                   20544113.5164
  -6472721.87547  -5027535.03944  23245448.2194                   23245447.1994
 -12822784.12547  -9983923.82846  21688099.5164                   21688097.1134
  -5641400.40247  -4382433.81244  23805675.5164                   23805675.9104
 11  8 18  0 36  0.0000000  0  9G17G09G12G04G10G02G30G05G25
  18058106.19947  14085335.56644  23261861.9694                   23261861.2854
   8196962.26247   6404688.11743  23814824.8754                   23814824.8404
 -13329578.52347 -10372803.60546  21210003.0704                   21209999.6174
   1398364.98048   1106194.35945  21849029.6334                   21849027.0004
 -12026591.88348  -9267845.49646  20840210.5314                   20840207.3914
 -12103609.17248  -9413360.68746  20552849.5554                   20552844.1914
  -6523319.34847  -5066961.59844  23235820.4384                   23235818.0204
 -12866144.41447 -10017711.00446  21679847.8674                   21679845.7424
  -5696170.23447  -4425111.54344  23795253.3284                   23795253.6254
 11  8 18  0 36 30.0000000  0  9G17G09G12G04G10G02G30G05G25
  18155396.65247  14161146.24244  23280375.7734                   23280374.8594
   8319784.12147   6500393.38743  23838197.7034                   23838197.3364
 -13340658.27748 -10381437.16046  21207894.5474                   21207891.1094
   1519252.09448   1200392.10245  21872033.6024                   21872031.0514
 -11975334.23048  -9227904.44946  20849964.3674                   20849961.4304
 -12057378.82048  -9377337.03146  20561646.8134                   20561641.1884
  -6573523.09847  -5106081.35244  23226267.4384                   23226264.9494
 -12909085.00048 -10051171.13746  21671676.8754                   21671674.5984
  -5750653.72747  -4467566.13344  23784885.4144                   23784886.0664
 11  8 18  0 37  0.0000000  0  9G17G09G12G04G10G02G30G05G25
  18252923.40247  14237141.04744  23298934.2194                   23298933.5274
   8442794.15247   6596245.31343  23861605.4304                   23861605.3404
 -13351203.15247 -10389653.92646  21205887.8444                   21205884.5514
   1640321.40648   1294731.78945  21895072.2584                   21895070.0984
 -11923372.87548  -9187415.07046  20859852.3674                   20859849.6334
 -12010802.77348  -9341044.00046  20570510.0474                   20570504.2974
  -6623334.70746  -5144895.52744  23216788.1094                   23216786.3094
 -12951607.16048 -10084305.22346  21663585.2344                   21663582.6374
  -5804852.57847  -4509798.94144  23774571.5164                   23774572.7344
 11  8 18  0 37 30.0000000  0  9G17G09G12G04G10G02G30G05G25
  18350682.80147  14313317.13744  23317538.3054                   23317536.8444
   8565984.98847   6692238.12143  23885048.2664                   23885047.6214
 -13361215.14547 -10397455.46946  21203982.6094                   21203979.4494
   1761566.70348   1389208.64145  21918144.4924                   21918142.0554
 -11870712.40248  -9146380.92646  20869873.4614                   20869870.1604
 -11963886.40648  -9304485.78546  20579438.0164                   20579432.6564
  -6672755.44147  -5183405.12144  23207383.6094                   23207381.7074
 -12993712.52347 -10117114.54746  21655572.9774                   21655570.5354
  -5858768.27347  -4551811.12544  23764312.4304                   23764312.2504
 11  8 18  0 38  0.0000000  0  9G17G09G12G04G10G02G30G05G25
  18448678.78547  14389677.60544  23336186.2344                   23336184.7034
   8689356.70347   6788371.86744  23908524.9064                   23908524.6454
 -13370688.53548 -10404837.31246  21202179.9454                   21202176.4104
   1882989.94148   1483824.14145  21941250.3054                   21941248.7734
 -11817349.24248  -9104799.22346  20880027.6334                   20880024.8364
 -11916627.03548  -9267660.28946  20588431.0864                   20588425.6954
  -6721778.95347  -5221605.18444  23198054.3284                   23198052.6524
 -13035394.81647 -10149594.17646  21647640.8284                   21647638.0474
  -5912394.59447  -4593597.82844  23754107.3444                   23754107.1644
 11  8 18  0 38 30.0000000  0  9G17G09G12G04G10G02G30G05G25
  18546912.43047  14466223.25844  23354879.4384                   23354878.0394
   8812906.63746   6884644.46144  23932035.9304                   23932035.3484
 -13379620.68048 -10411797.41846  21200480.4534                   21200476.4654
   2004589.58248   1578577.09445  21964390.2814                   21964387.9694
 -11763283.20348  -9062669.84046  20890316.4694                   20890312.9884
 -11869025.82448  -9230568.41046  20597489.5164                   20597483.8244
  -6770402.08147  -5259493.24144  23188802.0474                   23188800.0634
 -13076650.84448 -10181741.67646  21639790.3284                   21639787.9064
  -5965728.45347  -4635156.66844  23743958.7194                   23743958.4184
 11  8 18  0 39  0.0000000  0  9G17G09G12G04G10G02G30G05G25
  18645380.00447  14542951.19144  23373617.1254                   23373615.5704
   8936626.78546   6981049.71143  23955578.2584                   23955578.6524
 -13388013.64547 -10418337.37946  21198883.0394                   21198879.5824
   2126359.44948   1673462.68845  21987562.0634                   21987559.7384
 -11708518.89548  -9019996.32446  20900737.4304                   20900734.4344
 -11821087.80548  -9193214.09046  20606611.5314                   20606606.7074
  -6818626.25447  -5297070.43044  23179624.7974                   23179622.5784
 -13117481.79348 -10213557.93446  21632020.0474                   21632017.6484
  -6018771.53947  -4676488.91044  23733864.4694                   23733864.4064
 11  8 18  0 39 30.0000000  0  9G17G09G12G04G10G02G30G05G25
  18744085.48847  14619864.55145  23392400.1564                   23392399.4884
   9060517.70747   7077588.01643  23979154.7504                   23979154.4384
 -13395861.89548 -10424452.89846  21197389.8444                   21197386.3674
   2248301.35948   1768482.32045  22010767.2194                   22010765.2814
 -11653053.16448  -8976776.25046  20911292.2194                   20911289.5744
 -11772810.49248  -9155595.39146  20615798.5004                   20615792.8594
  -6866444.96947  -5334331.68444  23170524.7034                   23170523.2114
 -13157881.77347 -10245038.40246  21624332.1484                   21624329.6524
  -6071517.35547  -4717589.54744  23723826.9774                   23723827.7074
 11  8 18  0 40  0.0000000  0  9G17G09G12G04G10G02G30G05G25
  18843031.14147  14696965.03944  23411229.3134                   23411227.6764
   9184578.03547   7174258.33644  24002762.3834                   24002762.0234
 -13403161.24248 -10430140.70346  21196000.7194                   21195997.5164
   2370415.45348   1863636.16445  22034004.7424                   22034002.5904
 -11596884.35248  -8933008.34046  20921980.7814                   20921977.6484
 -11724193.64848  -9117712.12146  20625049.4924                   20625044.5704
  -6913853.53147  -5371273.36344  23161503.6174                   23161502.2464
 -13197845.98048 -10276179.27046  21616727.1954                   21616724.9964
  -6123961.43447  -4758455.03544  23713847.2274                   23713847.6294
 11  8 18  0 40 30.0000000  0  9G17G09G12G04G10G02G30G05G25
  18942212.43447  14774249.12544  23430102.8754                   23430101.0784
   9308798.78946   7271053.65243  24026400.8364                   24026400.8914
 -13409915.24648 -10435403.55946  21194715.4384                   21194712.0594
   2492694.49248   1958918.51245  22057273.5704                   22057271.9534
 -11540018.30548  -8888697.12946  20932801.9694                   20932799.4924
 -11675243.64848  -9079569.24646  20634364.7344                   20634359.6484
  -6960854.66047  -5407897.57044  23152560.0864                   23152557.9264
 -13237377.38748 -10306982.92246  21609204.6094                   21609201.7734
  -6176106.66447  -4799087.65244  23703924.2504                   23703924.9804
 11  8 18  0 41  0.0000000  0  9G17G09G12G04G10G02G30G05G25
  19041626.27347  14851714.43444  23449020.3914                   23449019.0704
   9433173.65246   7367969.05143  24050069.0314                   24050068.6994
 -13416124.52348 -10440241.94946  21193533.7584                   21193530.1604
   2615133.73048   2054325.70345  22080572.7344                   22080570.9924
 -11482458.55948  -8843845.36746  20943755.3054                   20943752.5784
 -11625964.59848  -9041169.96546  20643742.1564                   20643736.8054
  -7007448.49647  -5444204.39544  23143693.2974                   23143690.5434
 -13276475.84048 -10337449.18746  21601764.2274                   21601761.6024
  -6227953.18447  -4839487.49644  23694057.5864                   23694058.6214
 11  8 18  0 41 30.0000000  0  9G17G09G12G04G10G02G30G05G25
  19141271.57047  14929360.07444  23467982.6564                   23467980.9924
   9557697.68846   7465000.66443  24073764.8754                   24073765.3674
 -13421789.38348 -10444656.13346  21192455.9224                   21192452.0904
   2737729.55148   2149854.89145  22103902.1644                   22103900.2234
 -11424207.09848  -8798454.60546  20954840.2344                   20954837.4184
 -11576359.68448  -9002516.76246  20653181.7504                   20653176.2424
  -7053634.03547  -5480193.07844  23134903.9694                   23134902.0434
 -13315140.29348 -10367577.28146  21594406.9454                   21594403.7814
  -6279500.22747  -4879653.98044  23684248.7734                   23684249.2154
 11  8 18  0 42  0.0000000  0  9G17G09G12G04G10G02G30G05G25
  19241151.73447  15007188.73844  23486989.3914                   23486987.1254
   9682370.30546   7562148.07043  24097489.3754                   24097489.8524
 -13426904.88748 -10448642.23846  21191482.5634                   21191478.7304
   2860482.92248   2245506.84845  22127261.3524                   22127259.1764
 -11365261.59848  -8752523.03546  20966057.4534                   20966054.2814
 -11526427.06248  -8963608.19546  20662683.3284                   20662678.0124
  -7099405.72747  -5515859.28144  23126194.5234                   23126191.8984
 -13353366.03548 -10397363.51646  21587132.3674                   21587129.8444
  -6330742.27747  -4919582.81244  23674497.8444                   23674498.0824
 11  8 18  0 42 30.0000000  0  9G17G09G12G04G10G02G30G05G25
  19341266.66847  15085200.32444  23506040.0864                   23506037.6174
   9807187.94546   7659408.43443  24121241.1024                   24121242.1214
 -13431469.29348 -10452198.91846  21190613.9454                   21190610.0394
   2983391.58647   2341279.81345  22150650.0474                   22150647.9694
 -11305623.15248  -8706051.50846  20977405.9454                   20977402.8324
 -11476168.51648  -8924445.67246  20672247.4224                   20672242.2194
  -7144761.13747  -5551201.11344  23117563.1024                   23117561.5354
 -13391150.30548 -10426805.75046  21579942.6414                   21579939.7424
  -6381677.07447  -4959272.21544  23664805.7344                   23664805.6564
 11  8 18  0 43  0.0000000  0  9G17G09G12G04G10G02G30G05G25
  19441614.67247  15163393.53144  23525136.0004                   23525133.8284
   9932144.87946   7756777.39843  24145020.6254                   24145019.9614
 -13435482.80948 -10455326.33646  21189850.0474                   21189846.4614
   3106451.73447   2437170.82445  22174067.6644                   22174065.5474
 -11245294.46948  -8659042.13346  20988885.9144                   20988883.2624
 -11425587.38348  -8885031.78146  20681872.8284                   20681867.1724
  -7189699.73847  -5586218.16044  23109012.0234                   23109009.5354
 -13428492.74648 -10455903.70346  21572835.9224                   21572833.6954
  -6432304.18047  -4998721.84044  23655171.8204                   23655171.6484
 11  8 18  0 43 30.0000000  0  9G17G09G12G04G10G02G30G05G25
  19542191.63746  15241765.13344  23544274.2194                   23544273.3324
  10057233.21946   7854248.75443  24168823.7344                   24168823.5514
 -13438947.87948 -10458026.37946  21189190.9384                   21189186.7034
   3229656.82447   2533174.77045  22197512.7274                   22197511.0354
 -11184280.89148  -8611499.09046  21000496.3444                   21000493.9144
 -11374689.50848  -8845371.08246  20691558.0164                   20691552.8324
  -7234223.49647  -5620911.98444  23100538.9614                   23100537.0314
 -13465395.43448 -10484658.98046  21565813.6484                   21565811.3244
  -6482625.62547  -5037933.28544  23645595.7114                   23645595.6844
 11  8 18  0 44  0.0000000  0  9G17G09G12G04G10G02G30G05G25
  19643001.19147  15320317.98844  23563458.6884                   23563457.7664
  10182452.82046   7951822.39143  24192653.1414                   24192652.2234
 -13441859.87548 -10460295.46146  21188636.6024                   21188632.5824
   3353008.40247   2629292.84445  22220985.8984                   22220983.9574
 -11122579.62948  -8563420.16846  21012237.8444                   21012235.0704
 -11323473.28148  -8805462.31246  20701304.3594                   20701298.6134
  -7278326.46947  -5655277.87944  23092146.5394                   23092144.4104
 -13501852.45748 -10513066.99646  21558876.3594                   21558873.7814
  -6532635.65247  -5076902.05144  23636079.0704                   23636078.3284
 11  8 18  0 44 30.0000000  0  9G17G09G12G04G10G02G30G05G25
  19744039.25046  15399048.87944  23582684.5164                   23582683.5634
  10307796.09047   8049492.35944  24216504.5474                   24216504.4384
 -13444220.71148 -10462135.07846  21188187.5084                   21188183.9264
   3476500.55948   2725520.46545  22244485.6804                   22244483.1254
 -11060195.57848  -8514809.21546  21024108.9774                   21024106.3404
 -11271943.54348  -8765309.25046  20711109.9224                   20711104.6484
  -7322009.91047  -5689316.89144  23083833.7424                   23083831.8204
 -13537865.14548 -10541128.77046  21552023.3444                   21552020.8794
  -6582335.58247  -5115629.19544  23626621.5474                   23626620.7544
 11  8 18  0 45  0.0000000  0  9G17G09G12G04G10G02G30G05G25
  19845312.07847  15477962.68844  23601957.0944                   23601955.8444
  10433265.56646   8147260.69943  24240380.7814                   24240381.0204
 -13446023.00848 -10463539.46146  21187844.3674                   21187841.0354
   3600137.27047   2821860.71945  22268013.5554                   22268010.9144
 -10997123.75048  -8465662.32446  21036111.4924                   21036108.4734
 -11220095.81648  -8724908.41046  20720976.2194                   20720971.4224
  -7365265.41447  -5723022.42644  23075603.2974                   23075600.3594
 -13573425.46948 -10568838.06646  21545256.1094                   21545253.8014
  -6631717.10947  -5154108.21544  23617224.0634                   23617223.7894
 11  8 18  0 45 30.0000000  0  9G17G09G12G04G10G02G30G05G25
  19946812.33647  15557053.74244  23621272.4774                   23621269.8754
  10558850.07846   8245118.61743  24264278.6724                   24264279.2894
 -13447272.80148 -10464513.31246  21187606.8754                   21187603.1134
   3723908.62947   2918305.89845  22291566.0314                   22291563.8284
 -10933372.83248  -8415986.28546  21048242.6724                   21048240.6134
 -11167940.11748  -8684267.59846  20730901.2194                   20730896.1524
  -7408098.35247  -5756398.69944  23067451.7344                   23067449.7424
 -13608538.98448 -10596199.18446  21538574.1804                   21538571.8484
  -6680785.62947  -5192343.35544  23607886.4454                   23607886.8714
 11  8 18  0 46  0.0000000  0  9G17G09G12G04G10G02G30G05G25
  20048543.24647  15636324.53544  23640630.7584                   23640629.0354
  10684549.41846   8343066.03943  24288198.7274                   24288198.1604
 -13447965.06648 -10465052.71546  21187475.0314                   21187471.3554
   3847816.12547   3014857.15645  22315144.7974                   22315142.6884
 -10868940.41448  -8365779.20746  21060503.8444                   21060501.3444
 -11115473.95748  -8643384.86746  20740885.1094                   20740879.5124
  -7450502.84847  -5789441.10544  23059382.4304                   23059379.8404
 -13643199.75848 -10623207.53546  21531978.5634                   21531975.8014
  -6729535.39547  -5230330.08644  23598610.6724                   23598610.0044
 11  8 18  0 46 30.0000000  0  9G17G09G12G04G10G02G30G05G25
  20150501.01247  15715772.13344  23660032.2194                   23660031.2074
  10810355.97346   8441097.01243  24312138.6024                   24312138.5474
 -13448102.25048 -10465159.59046  21187448.7194                   21187445.2544
   3971853.73847   3111509.81645  22338748.7504                   22338746.4384
 -10803831.25848  -8315044.78146  21072893.7814                   21072891.0124
 -11062702.75048  -8602264.43746  20750927.3204                   20750921.9844
  -7492480.38747  -5822150.82444  23051394.2974                   23051392.2774
 -13677409.68748 -10649864.56246  21525468.5004                   21525465.9344
  -6777967.96547  -5268069.68044  23589393.6724                   23589393.3284
 11  8 18  0 47  0.0000000  0  9G17G09G12G04G10G02G30G05G25
  20252686.83947  15795397.41644  23679477.9614                   23679476.1214
  10936267.02047   8539209.41843  24336098.4774                   24336099.5744
 -13447681.82448 -10464831.95746  21187528.8674                   21187524.9574
   4096020.64847   3208263.22345  22362376.1884                   22362374.7974
 -10738045.64148  -8263783.26246  21085412.2504                   21085409.1644
 -11009627.35248  -8560906.96946  20761027.3674                   20761021.8874
  -7534027.73447  -5854525.31244  23043488.1954                   23043485.7544
 -13711165.42648 -10676167.68446  21519045.1724                   21519042.5274
  -6826080.07447  -5305559.55944  23580237.9384                   23580237.6024
 11  8 18  0 47 30.0000000  0  9G17G09G12G04G10G02G30G05G25
  20355103.35947  15875202.42244  23698966.5394                   23698966.1764
  11062281.63747   8637402.50443  24360079.4384                   24360078.8714
 -13446699.59048 -10464066.56246  21187715.7424                   21187712.0744
   4220317.27747   3305117.71945  22386029.2424                   22386027.3874
 -10671582.02348  -8211993.40646  21098059.8524                   21098056.9494
 -10956246.38348  -8519311.38346  20771185.2344                   20771179.8094
  -7575139.63747  -5886560.51244  23035664.5554                   23035662.1334
 -13744461.98848 -10702113.00846  21512709.1174                   21512706.0434
  -6873866.63747  -5342795.79744  23571144.6174                   23571143.9734
 11  8 18  0 48  0.0000000  0  9G17G09G12G04G10G02G30G05G25
  20457745.06347  15955182.96544  23718499.8754                   23718497.6644
  11188390.91046   8735669.32443  24384077.0864                   24384077.0514
 -13445159.27348 -10462866.29746  21188008.5864                   21188005.1254
   4344736.39547   3402067.64145  22409705.8914                   22409704.4804
 -10604447.24648  -8159680.57846  21110834.9924                   21110832.9144
 -10902566.90648  -8477483.21546  20781399.8444                   20781394.6214
  -7615819.24647  -5918258.84844  23027923.2344                   23027921.0984
 -13777302.66848 -10727703.10546  21506459.4224                   21506457.3834
  -6921330.88747  -5379780.84044  23562112.4224                   23562112.7154
 11  8 18  0 48 30.0000000  0  9G17G09G12G04G10G02G30G05G25
  20560619.56647  16035344.85944  23738076.2034                   23738074.8094
  11314598.52346   8834012.82843  24408093.4844                   24408093.6684
 -13443052.18048 -10461224.38746  21188409.3524                   21188405.7544
   4469283.15647   3499117.02745  22433405.7504                   22433404.1914
 -10536634.38348  -8106839.37546  21123739.3984                   21123736.2774
 -10848583.11348  -8435417.91846  20791672.6724                   20791667.3634
  -7656056.73447  -5949612.66444  23020265.9224                   23020264.4384
 -13809677.90648 -10752930.52046  21500298.4384                   21500295.2704
  -6968462.93447  -5416507.05944  23553143.3834                   23553143.3524
 11  8 18  0 49  0.0000000  0  9G17G09G12G04G10G02G30G05G25
  20663721.08247  16115683.69544  23757695.8984                   23757693.6134
  11440895.12946   8932425.66443  24432126.3204                   24432127.2894
 -13440382.96248 -10459144.45246  21188917.5784                   21188913.9574
   4593949.87447   3596259.89645  22457129.1564                   22457127.4144
 -10468151.21348  -8053475.85746  21136771.4844                   21136768.7384
 -10794302.73948  -8393121.51546  20802001.8204                   20801996.6914
  -7695855.81647  -5980624.85944  23012693.5394                   23012691.0234
 -13841591.52748 -10777798.22646  21494225.7974                   21494223.2234
  -7015266.48447  -5452977.28844  23544236.8444                   23544237.2154
 11  8 18  0 49 30.0000000  0  9G17G09G12G04G10G02G30G05G25
  19191630.73447  14968600.29344  23477566.4064                   23477564.7154
   9991859.33246   7803306.73843  24156384.2344                   24156384.3794
 -15012571.90648 -11684226.73046  20889740.0004                   20889736.4694
   3143316.47747   2465896.18045  22181082.6954                   22181080.7034
 -11974418.96148  -9227190.97746  20850138.1954                   20850135.3054
 -12315147.60248  -9578195.42646  20512594.7734                   20512589.6214
  -9310637.53947  -7238896.28544  22705410.2814                   22705408.0594
 -15448464.51248 -12029907.01246  21188447.6254                   21188445.0904
  -8637163.04347  -6716792.72345  23235599.3754                   23235600.7424
 11  8 18  0 50  0.0000000  0  9G17G09G12G04G10G02G30G05G25
  19295189.64146  15049295.52744  23497272.9614                   23497271.1484
  10118326.64546   7901852.60243  24180450.7274                   24180449.9734
 -15008770.71948 -11681264.74246  20890463.4384                   20890460.0044
   3268220.17247   2563223.69945  22204851.4384                   22204849.0124
 -11904595.48048  -9172783.05546  20863425.4064                   20863422.4144
 -12260275.30948  -9535437.80146  20523036.4694                   20523031.3324
  -9349549.28947  -7269217.05944  22698005.3204                   22698003.3164
 -15479445.01648 -12054047.61346  21182552.4614                   21182550.1054
  -8683299.32447  -6752743.01245  23226820.7974                   23226820.7974
 11  8 18  0 50 30.0000000  0  9G17G09G12G04G10G02G30G05G25
  19398974.53546  15130166.84044  23517021.5314                   23517021.5044
  10244871.49246   8000458.87143  24204531.0784                   24204531.2814
 -15004403.76248 -11677861.89146  20891294.1254                   20891290.8594
   3393237.21947   2660639.54345  22228641.2344                   22228639.3284
 -11834105.81248  -9117856.03546  20876839.0394                   20876836.4494
 -12205111.34848  -9492452.89546  20533533.7974                   20533528.6804
  -9388016.10547  -7299191.14544  22690685.1644                   22690682.4184
 -15509958.19548 -12077824.08246  21176745.9774                   21176743.2814
  -8729100.85947  -6788432.46544  23218104.7664                   23218104.8674
 11  8 18  0 51  0.0000000  0  9G17G09G12G04G10G02G30G05G25
  19502986.07047  15211214.75844  23536815.5944                   23536814.0664
  10371491.08246   8099123.40243  24228626.0864                   24228626.5204
 -14999469.13748 -11674016.71146  20892233.0784                   20892229.6214
   3518366.31647   2758142.71544  22252452.2584                   22252450.4574
 -11762951.08648  -9062410.77746  20890379.4064                   20890376.2114
 -12149656.78148  -9449241.54346  20544086.9534                   20544081.6994
  -9426035.04347  -7328816.22744  22683450.5314                   22683448.6764
 -15540000.99648 -12101234.01646  21171028.7584                   21171025.8204
  -8774564.57047  -6823858.66845  23209453.3834                   23209453.7464
 11  8 18  0 51 30.0000000  0  9G17G09G12G04G10G02G30G05G25
  19607227.52747  15292441.82444  23556652.1334                   23556651.1914
  10498184.68446   8197845.60943  24252735.7734                   24252735.1914
 -14993962.53948 -11669725.84046  20893281.1884                   20893277.5124
   3643608.25447   2855733.78944  22276285.8284                   22276283.3874
 -11691129.48448  -9006445.88746  20904046.2584                   20904043.5204
 -12093910.51648  -9405802.88746  20554694.8054                   20554689.5594
  -9463601.02047  -7358088.33644  22676302.1724                   22676299.6804
 -15569568.67248 -12124273.72346  21165402.4304                   21165399.5824
  -8819685.41447  -6859017.70745  23200867.3054                   23200867.2544
 11  8 18  0 52  0.0000000  0  9G17G09G12G04G10G02G30G05G25
  19711696.97347  15373846.56645  23576531.8674                   23576531.0824
  10624946.91446   8296621.28943  24276857.5164                   24276857.9774
 -14987884.15248 -11664989.41446  20894437.9774                   20894434.3874
   3768959.21947   2953409.84845  22300138.4774                   22300137.0944
 -11618644.14848  -8949963.78946  20917840.0084                   20917836.9224
 -12037875.76248  -9362139.44146  20565358.0164                   20565352.7814
  -9500713.53147  -7387007.11344  22669239.8594                   22669237.6524
 -15598660.80548 -12146942.86746  21159866.1414                   21159863.7384
  -8864462.85947  -6893909.19145  23192346.0474                   23192346.1254
 11  8 18  0 52 30.0000000  0  9G17G09G12G04G10G02G30G05G25
  19816389.06647  15455424.79745  23596454.2424                   23596453.0354
  10751768.73847   8395443.40243  24300991.6724                   24300991.8634
 -14981238.89848 -11659811.27746  20895702.4774                   20895698.4654
   3894411.87147   3051165.13344  22324011.7664                   22324009.9454
 -11545502.22748  -8892970.06246  20931758.2344                   20931755.7154
 -11981559.86748  -9318256.93446  20576074.5784                   20576068.9384
  -9537375.73047  -7415575.03144  22662262.8204                   22662260.5904
 -15627280.99248 -12169244.27046  21154419.8134                   21154417.3714
  -8908900.10547  -6928535.58245  23183889.8914                   23183889.8984
 11  8 18  0 53  0.0000000  0  9G17G09G12G04G10G02G30G05G25
  19921307.42647  15537179.32444  23616419.2274                   23616418.0434
  10878650.17246   8494311.98043  24325136.0314                   24325136.0314
 -14974021.13348 -11654187.02346  20897075.9304                   20897072.1024
   4019967.91447   3149000.99245  22347904.6254                   22347902.7034
 -11471701.42248  -8835462.93446  20945802.3834                   20945799.6954
 -11924960.45748  -9274153.50446  20586845.1254                   20586839.8164
  -9573581.71947  -7443787.43044  22655373.2194                   22655370.5704
 -15655423.49248 -12191173.44946  21149064.8594                   21149062.0474
  -8952991.17647  -6962892.19545  23175499.7584                   23175499.6954
 11  8 18  0 53 30.0000000  0  9G17G09G12G04G10G02G30G05G25
  20026451.89847  15619110.07444  23636427.4774                   23636425.8244
  11005588.09846   8593224.58243  24349290.5554                   24349291.5434
 -14966229.62148 -11648115.70346  20898558.1414                   20898554.3914
   4145625.52747   3246916.00045  22371816.1024                   22371814.2974
 -11397243.05948  -8777443.41846  20959970.6724                   20959968.0274
 -11868079.03548  -9229830.31246  20597669.2194                   20597664.0474
  -9609329.13347  -7471642.50444  22648570.9144                   22648568.1054
 -15683086.00448 -12212728.60546  21143800.4384                   21143798.1174
  -8996733.63347  -6996977.16444  23167175.6024                   23167175.9104
 11  8 18  0 54  0.0000000  0  9G17G09G12G04G10G02G30G05G25
  20131823.01247  15701217.42244  23656479.2194                   23656477.6884
  11132579.13746   8692178.52043  24373457.4614                   24373457.1054
 -14957862.94148 -11641596.20346  20900150.4384                   20900146.9144
   4271383.38747   3344909.12545  22395747.1564                   22395745.2154
 -11322128.43048  -8718912.53546  20974264.6804                   20974261.9534
 -11810916.71148  -9185288.25046  20608546.7584                   20608541.5514
  -9644615.18447  -7499138.07044  22641856.2664                   22641853.8014
 -15710266.02048 -12233907.81246  21138628.2894                   21138625.6524
  -9040124.71947  -7030788.37144  23158918.5234                   23158918.4414
 11  8 18  0 54 30.0000000  0  9G17G09G12G04G10G02G30G05G25
  20237417.84847  15783499.11144  23676573.4454                   23676571.6214
  11259617.11746   8791169.04343  24397631.3444                   24397631.9144
 -14948922.55648 -11634629.64446  20901851.7664                   20901848.0824
   4397236.64647   3442976.60045  22419696.1254                   22419694.0234
 -11246361.83748  -8659873.61246  20988682.7034                   20988680.1454
 -11753478.22748  -9140530.99146  20619476.8834                   20619471.5984
  -9679440.40647  -7526274.55144  22635228.8754                   22635226.6214
 -15736964.48848 -12254711.77046  21133548.0004                   21133545.0004
  -9083164.99647  -7064326.19944  23150728.2194                   23150728.4184
 11  8 18  0 55  0.0000000  0  9G17G09G12G04G10G02G30G05G25
  20343235.46146  15865954.37744  23696710.3444                   23696708.7384
  11386697.41046   8890192.54343  24421814.0394                   24421814.8444
 -14939408.28548 -11627215.91846  20903662.1724                   20903658.5314
   4523182.52747   3541116.24245  22443663.0084                   22443661.1174
 -11169945.41448  -8600328.34046  21003224.4534                   21003221.6684
 -11695765.95348  -9095560.40646  20630458.8984                   20630454.0354
  -9713803.71547  -7553051.09044  22628689.8054                   22628687.5474
 -15763180.82448 -12275140.03946  21128558.9694                   21128556.2814
  -9125853.35547  -7097589.80145  23142604.7504                   23142604.7074
 11  8 18  0 55 30.0000000  0  9G17G09G12G04G10G02G30G05G25
  20449274.32847  15948582.04344  23716888.0704                   23716886.6954
  11513815.21546   8989245.27343  24446004.2194                   24446004.4414
 -14929320.10948 -11619354.99646  20905582.3204                   20905578.5204
   4649217.69147   3639325.44545  22467647.2344                   22467645.2154
 -11092882.33248  -8540279.17246  21017889.1954                   21017886.1214
 -11637782.69148  -9050378.63746  20641493.0554                   20641487.8134
  -9747704.01247  -7579466.88344  22622238.9924                   22622236.0634
 -15788913.59448 -12295191.51646  21123662.1564                   21123658.8754
  -9168188.61347  -7130578.25445  23134548.2584                   23134548.4304
 11  8 18  0 56  0.0000000  0  9G17G09G12G04G10G02G30G05G25
  20555534.98046  16031382.53144  23737107.9454                   23737108.3594
  11640967.82446   9088325.05943  24470200.2424                   24470201.4064
 -14918656.26248 -11611045.50046  20907611.2734                   20907607.5394
   4775341.17247   3737603.48044  22491647.1254                   22491645.5474
 -11015173.40648  -8479726.75446  21032676.4774                   21032673.5434
 -11579529.38748  -9004986.44946  20652578.2114                   20652572.8284
  -9781138.33247  -7605519.55944  22615875.9694                   22615873.4224
 -15814160.35948 -12314864.28546  21118857.9224                   21118855.0044
  -9210167.73047  -7163289.18744  23126560.3594                   23126560.4344
 11  8 18  0 56 30.0000000  0  9G17G09G12G04G10G02G30G05G25
  20662023.86746  16114360.86343  23757371.8444                   23757371.9774
  11768157.83246   9187434.00443  24494403.9614                   24494405.2384
 -14907409.42248 -11602281.72746  20909751.5864                   20909747.7814
   4901557.33647   3835953.71144  22515665.3054                   22515663.8284
 -10936814.36748  -8418667.75046  21047587.9844                   21047585.0634
 -11521001.06248  -8959379.97346  20663715.6564                   20663710.8014
  -9814098.45347  -7631202.70744  22609603.8834                   22609601.4224
 -15838913.34448 -12334152.27746  21114147.5784                   21114144.6954
  -9251782.37547  -7195716.12144  23118641.0084                   23118640.7304
 11  8 18  0 57  0.0000000  0  9G17G09G12G04G10G02G30G05G25
  20768731.83246  16197509.86743  23777677.6334                   23777677.5354
  11895372.80146   9286562.47743  24518611.9144                   24518612.8284
 -14895587.59448 -11593069.90646  20912001.1414                   20911997.8874
   5027855.13747   3934367.57844  22539699.1414                   22539697.3754
 -10857815.92248  -8357110.50846  21062620.8444                   21062617.4694
 -11462209.09048  -8913568.05146  20674903.6884                   20674898.3094
  -9846591.14547  -7656521.64544  22603421.2424                   22603418.3914
 -15863179.29748 -12353060.77746  21109529.9144                   21109526.9734
  -9293039.31647  -7227864.32444  23110790.3364                   23110789.8284
 11  8 18  0 57 30.0000000  0  9G17G09G12G04G10G02G30G05G25
  20875663.19946  16280833.04343  23798026.5474                   23798024.8484
  12022613.87546   9385711.21143  24542825.9614                   24542825.8874
 -14883185.20348 -11583405.71146  20914361.4614                   20914357.3914
   5154237.30147   4032847.16444  22563748.8594                   22563747.0474
 -10778175.12148  -8295052.72746  21077776.0314                   21077772.7114
 -11403150.09848  -8867548.06246  20686142.3914                   20686136.2504
  -9878609.57847  -7681471.02745  22597328.2034                   22597325.5904
 -15886951.74648 -12371584.73446  21105006.2344                   21105002.9654
  -9333931.73847  -7259728.48445  23103009.0314                   23103008.0084
 11  8 18  0 58  0.0000000  0  9G17G09G12G04G10G02G30G05G25
  20982813.18846  16364326.57443  23818417.0944                   23818414.3554
  12149872.71546   9484873.79743  24567041.7974                   24567043.1054
 -14870205.51648 -11573291.66846  20916830.9844                   20916827.6724
   5280697.14147   4131387.28544  22587813.3754                   22587810.6764
 -10697898.21148  -8232499.27746  21093051.6334                   21093048.8914
 -11343830.31348  -8821324.85046  20697430.5004                   20697425.1724
  -9910156.38747  -7706052.91845  22591324.7584                   22591322.5904
 -15910233.63748 -12389726.41846  21100575.6804                   21100572.4574
  -9374462.08647  -7291310.50844  23095296.0314                   23095295.2194
 11  8 18  0 58 30.0000000  0  9G17G09G12G04G10G02G30G05G25
  21090187.99646  16447995.26243  23838850.3754                   23838847.7344
  12277151.88346   9584052.19843  24591263.0314                   24591263.6294
 -14856641.70748 -11562722.46146  20919412.1884                   20919408.5044
   5407239.12147   4229991.43844  22611893.7504                   22611891.3754
 -10616980.78548  -8169446.72746  21108450.0784                   21108446.5704
 -11284245.27348  -8774894.94546  20708769.1804                   20708763.6374
  -9941223.41047  -7730260.94145  22585413.0554                   22585410.1174
 -15933017.07048 -12407479.70746  21096239.9454                   21096237.0394
  -9414622.09047  -7322603.94145  23087652.9694                   23087653.1954
 11  8 18  0 59  0.0000000  0  9G17G09G12G04G10G02G30G05G25
  21197781.89547  16531834.63744  23859324.4304                   23859322.6094
  12404442.85946   9683239.82843  24615485.6174                   24615486.3014
 -14842497.75848 -11551701.20346  20922103.8444                   20922100.6564
   5533856.32847   4328654.18045  22635988.2974                   22635985.8364
 -10535430.01248  -8105900.66046  21123968.4534                   21123965.4734
 -11224401.72748  -8728263.61746  20720156.7814                   20720151.2034
  -9971813.47347  -7754097.31644  22579591.3914                   22579589.5514
 -15955305.19148 -12424847.03946  21091998.7424                   21091995.8364
  -9454414.52747  -7353610.97345  23080081.0314                   23080080.9104
 11  8 18  0 59 30.0000000  0  9G17G09G12G04G10G02G30G05G25
  21305594.52347  16615844.49444  23879840.2034                   23879839.1524
  12531741.64146   9782433.53143  24639710.1484                   24639710.9064
 -14827773.42648 -11540227.69946  20924905.7034                   20924902.3874
   5660546.18747   4427373.54744  22660096.5474                   22660094.4024
 -10453248.35948  -8041862.99246  21139607.3204                   21139604.6954
 -11164301.71948  -8681432.43946  20731593.4844                   20731588.3554
 -10001925.16047  -7777560.93744  22573861.6414                   22573859.0084
 -15977096.98848 -12441827.61746  21087852.1334                   21087849.2934
  -9493837.85547  -7384330.36745  23072579.1954                   23072579.1454
 11  8 18  1  0  0.0000000  0  9G17G09G12G04G10G02G30G05G25
  21413632.99647  16700030.29744  23900399.6564                   23900398.3284
  12659052.02046   9881636.26243  24663936.3754                   24663938.3164
 -14812460.29348 -11528295.37546  20927819.7114                   20927816.5164
   5787314.21147   4526153.81345  22684219.7734                   22684217.5354
 -10370430.55548  -7977329.62546  21155366.5314                   21155364.1844
 -11103940.10548  -8634397.40646  20743079.8054                   20743074.7114
 -10031549.02347  -7800644.42244  22568224.2664                   22568222.4734
 -15998383.14148 -12458414.20346  21083801.2344                   21083798.3054
  -9532882.59847  -7414754.78545  23065149.1564                   23065148.7854
 11  8 18  1  0 30.0000000  0  9G17G09G12G04G10G02G30G05G25
  21521889.04747  16784385.63744  23920999.7894                   23920998.6804
  12786362.47346   9980839.10543  24688162.7344                   24688163.9804
 -14796565.51648 -11515909.84446  20930844.5084                   20930840.5234
   5914150.41047   4624987.20744  22708355.8444                   22708353.5904
 -10286986.18448  -7912308.02346  21171245.7114                   21171243.2344
 -11043326.23848  -8587165.81646  20754614.3834                   20754609.3324
 -10060691.09047  -7823352.48044  22562678.5634                   22562676.0704
 -16019170.13748 -12474611.82846  21079845.7974                   21079842.6914
  -9571554.61347  -7444888.75045  23057790.0864                   23057789.7154
 11  8 18  1  1  0.0000000  0  9G17G09G12G04G10G02G30G05G25
  21630362.15647  16868910.15244  23941641.3134                   23941640.5204
  12913669.32846  10080039.10243  24712389.2974                   24712389.7774
 -14780088.48848 -11503070.59846  20933979.8594                   20933976.6094
   6041053.04747   4723872.37144  22732504.6254                   22732502.8054
 -10202917.52348  -7846799.96146  21187243.2504                   21187240.9614
 -10982461.68048  -8539738.87946  20766196.3834                   20766191.5004
 -10089349.35947  -7845683.57044  22557224.9144                   22557222.7304
 -16039456.11748 -12490419.04346  21075985.3444                   21075982.6174
  -9609851.77047  -7474730.62145  23050502.7274                   23050501.9574
 11  8 18  1  1 30.0000000  0  9G17G09G12G04G10G02G30G05G25
  21739060.36347  16953610.06344  23962326.8204                   23962325.2814
  13040977.10246  10179239.85243  24736614.7814                   24736615.8914
 -14763019.76248 -11489770.28946  20937227.9924                   20937223.8674
   6168028.37147   4822814.16444  22756666.8444                   22756665.3634
 -10118218.30548  -7780800.55546  21203361.3134                   21203358.4264
 -10921340.30148  -8492111.82446  20777827.3364                   20777822.1454
 -10117513.78947  -7867629.86345  22551865.8284                   22551862.9844
 -16059231.48448 -12505828.37946  21072222.0084                   21072219.2384
  -9647763.98047  -7504272.54745  23043288.1644                   23043288.0394
 11  8 18  1  2  0.0000000  0  9G17G09G12G04G10G02G30G05G25
  21847977.65947  17038480.64544  23983052.9694                   23983051.0394
  13168276.37346  10278433.89743  24760838.7274                   24760840.5784
 -14745364.99248 -11476013.32446  20940587.6644                   20940584.0474
   6295068.19947   4921806.24644  22780841.9454                   22780839.8714
 -10032896.45348  -7714315.99246  21219597.5554                   21219594.5084
 -10859969.83648  -8444290.67246  20789506.0634                   20789500.7774
 -10145188.44147  -7889194.48844  22546599.0864                   22546596.8324
 -16078500.43748 -12520843.10546  21068555.2274                   21068552.3404
  -9685295.00847  -7533517.46145  23036146.5554                   23036145.5124
 11  8 18  1  2 30.0000000  0  9G17G09G12G04G10G02G30G05G25
  21957112.79746  17123521.03544  24003820.1884                   24003818.4064
  13295562.75846  10377617.92643  24785061.3524                   24785062.0234
 -14727124.69548 -11461800.09846  20944058.5164                   20944055.0784
   6422170.11747   5020846.67644  22805028.2424                   22805026.0434
  -9946955.19148  -7647348.77346  21235951.3524                   21235948.9064
 -10798352.44548  -8396277.11346  20801231.0234                   20801226.3014
 -10172372.19147  -7910376.60245  22541426.2814                   22541424.5594
 -16097262.17248 -12535462.60546  21064985.0084                   21064982.3204
  -9722443.64847  -7562464.40245  23029077.0474                   23029076.4774
 11  8 18  1  3  0.0000000  0  9G17G09G12G04G10G02G30G05G25
  22066469.28146  17208733.85344  24024629.8284                   24024628.9384
  13422837.10246  10476792.55543  24809280.1484                   24809281.9734
 -14708293.18448 -11447126.19146  20947642.1484                   20947638.5204
   6549336.36347   5119937.25444  22829227.4304                   22829225.0514
  -9860392.41848  -7579897.25045  21252423.5004                   21252420.7934
 -10736485.82448  -8348069.34846  20813004.3444                   20812999.0514
 -10199058.92247  -7931171.43045  22536348.5234                   22536346.2074
 -16115511.28948 -12549682.66846  21061512.6254                   21061509.6454
  -9759203.73447  -7591108.60245  23022081.2274                   23022080.5944
 11  8 18  1  3 30.0000000  0  9G17G09G12G04G10G02G30G05G25
  22176040.44546  17294113.91844  24045480.5944                   24045480.0634
  13550089.11346  10575949.78543  24833494.7424                   24833496.8714
 -14688876.62548 -11431996.39846  20951336.8284                   20951332.9694
   6676558.52047   5219071.38744  22853437.3674                   22853434.9924
  -9773216.86348  -7511968.22746  21269012.7424                   21269009.7774
 -10674378.34048  -8299673.89546  20824822.9774                   20824817.5554
 -10225253.25847  -7951582.59045  22531363.8524                   22531361.6254
 -16133252.51648 -12563506.97346  21058136.2274                   21058133.0274
  -9795579.64847  -7619453.43445  23015159.4224                   23015159.3364
 11  8 18  1  4  0.0000000  0  9G17G09G12G04G10G02G30G05G25
  22285834.01646  17379667.32444  24066373.8444                   24066372.7974
  13677323.06446  10675092.95743  24857707.9694                   24857709.1644
 -14668866.56248 -11416404.12946  20955144.4534                   20955140.8204
   6803842.57847   5318253.73844  22877658.5234                   22877656.8014
  -9685422.67648  -7443557.15646  21285719.3204                   21285716.4844
 -10612023.73048  -8251085.86746  20836688.3594                   20836683.0044
 -10250945.41447  -7971602.43445  22526474.1724                   22526472.1134
 -16150476.37948 -12576928.12546  21054858.2894                   21054855.8594
  -9831561.44947  -7647491.18745  23008312.5314                   23008312.2424
 11  8 18  1  4 30.0000000  0  9G17G09G12G04G10G02G30G05G25
  22395847.76246  17465392.29744  24087308.0004                   24087308.0314
  13804534.18446  10774218.38343  24881916.1174                   24881916.6604
 -14648263.98848 -11400350.16846  20959065.1884                   20959062.0124
   6931185.13347   5417481.69944  22901891.0084                   22901889.7344
  -9597013.68048  -7374667.02046  21302543.0864                   21302540.3754
 -10549425.37148  -8202307.91846  20848600.5084                   20848595.3524
 -10276135.18747  -7991230.80545  22521681.1564                   22521678.4964
 -16167182.69148 -12589945.98846  21051679.4774                   21051676.7504
  -9867148.80547  -7675221.57445  23001540.7034                   23001539.6414
 11  8 18  1  5  0.0000000  0  9G17G09G12G04G10G02G30G05G25
  22506075.21146  17551283.75044  24108284.1564                   24108283.8794
  13931712.59046  10873318.26243  24906116.3054                   24906118.0084
 -14627074.52748 -11383838.87546  20963097.7664                   20963094.0004
   7058578.00847   5516748.83644  22926132.9224                   22926131.7154
  -9507998.12548  -7305304.24646  21319481.7974                   21319479.3164
 -10486591.30948  -8153346.29746  20860557.7034                   20860552.1134
 -10300826.94547  -8010471.13745  22516982.4064                   22516979.8914
 -16183376.87148 -12602564.80146  21048598.0864                   21048594.7704
  -9902345.82447  -7702647.81245  22994842.8054                   22994841.9614
 11  8 18  1  5 30.0000000  0  9G17G09G12G04G10G02G30G05G25
  22616520.52046  17637345.01244  24129300.7114                   24129300.6414
  14058859.23846  10972393.35542  24930311.8834                   24930313.5554
 -14605292.53548 -11366865.88746  20967242.2034                   20967239.0664
   7186024.00447   5616057.41444  22950385.3204                   22950383.4694
  -9418374.04348  -7235467.29346  21336536.9924                   21336534.7854
 -10423518.52748  -8104198.66846  20872559.6024                   20872554.5084
 -10325014.34447  -8029318.44945  22512380.1174                   22512376.6764
 -16199052.75048 -12614779.73846  21045614.6414                   21045611.6604
  -9937146.05947  -7729764.85945  22988220.5704                   22988219.3364
 11  8 18  1  6  0.0000000  0  9G17G09G12G04G10G02G30G05G25
  22727177.78546  17723571.44144  24150358.8834                   24150357.4184
  14185964.90646  11071436.50843  24954499.6414                   24954501.3094
 -14582923.52748 -11349435.47746  20971499.1414                   20971495.6994
   7313515.67247   5715401.55544  22974646.1254                   22974644.2774
  -9328149.13748  -7165162.17246  21353706.4224                   21353703.6804
 -10360214.38748  -8054870.76246  20884606.2734                   20884600.8484
 -10348701.06247  -8047775.62545  22507872.4304                   22507870.1484
 -16214214.05548 -12626593.71546  21042729.4534                   21042726.5434
  -9971552.94147  -7756575.43045  22981672.6484                   22981672.3984
 11  8 18  1  6 30.0000000  0  9G17G09G12G04G10G02G30G05G25
  22838054.79746  17809969.07044  24171458.5234                   24171456.5784
  14313034.37146  11170451.53942  24978680.6484                   24978681.7074
 -14559958.92248 -11331540.96946  20975869.1564                   20975865.6054
   7441059.22747   5814786.14144  22998916.9614                   22998915.1954
  -9237317.76648  -7094384.45746  21370990.9304                   21370988.2304
 -10296672.66848  -8005357.72346  20896697.6564                   20896692.4804
 -10371877.21147  -8065834.95345  22503461.7584                   22503459.2624
 -16228851.39848 -12637999.40246  21039944.3054                   21039941.4774
 -10005556.44947  -7783071.66045  22975202.2424                   22975201.6214
 11  8 18  1  7  0.0000000  0  9G17G09G12G04G10G02G30G05G25
  21373730.25547  16668936.98543  23892805.9454                   23892804.7304
  12864643.80546  10041835.30942  24703059.9534                   24703062.0204
 -16111821.90448 -12540784.84546  20680559.6174                   20680555.6334
   5993232.65747   4686609.58744  22723404.4224                   22723403.1374
 -10721303.48748  -8250736.95045  21088598.1724                   21088595.1174
 -11808317.43448  -9183262.72346  20609041.6724                   20609036.4924
 -11969966.39747  -9311099.22445  22199355.3984                   22199353.4774
 -17818388.48048 -13876599.68946  20737465.4534                   20737462.4654
 -11614580.27147  -9036856.45945  22669014.9844                   22669014.8594
 11  8 18  1  7 30.0000000  0  8G17G12G04G10G02G30G05G25
  21485037.87147  16755670.20744  23913988.2194                   23913984.9304
 -16087671.93448 -12521966.66846  20685155.1804                   20685151.0824
   6120866.98047   4786064.88344  22747692.6254                   22747691.1914
 -10629273.54748  -8179025.30146  21106110.5554                   21106107.7774
 -11744313.19148  -9133389.27746  20621220.8834                   20621215.6454
 -11992123.89547  -9328364.78545  22195139.7664                   22195136.6884
 -17831981.55148 -13887191.65246  20734878.7734                   20734875.3014
 -11647778.76647  -9062725.41445  22662697.3364                   22662697.7304
 11  8 18  1  8  0.0000000  0  8G17G12G04G10G02G30G05G25
  21596558.53547  16842569.43843  23935209.1564                   23935205.8754
 -16062930.26248 -12502687.43446  20689863.1884                   20689859.7114
   6248542.40647   4885552.20344  22771987.9224                   22771986.5984
 -10536649.47348  -8106850.68445  21123736.7504                   21123734.0204
 -11680081.87148  -9083338.89146  20633443.6804                   20633438.4774
 -12013770.99647  -9345232.63345  22191020.1024                   22191017.3954
 -17845051.87548 -13897376.28546  20732391.4064                   20732388.5904
 -11680573.33647  -9088279.62945  22656457.1804                   22656456.7384
 11  8 18  1  8 30.0000000  0  8G17G12G04G10G02G30G05G25
  21708294.50047  16929636.39544  23956472.4144                   23956470.0704
 -16037593.50048 -12482944.50046  20694684.6484                   20694681.2464
   6376259.86747   4985072.26244  22796292.2974                   22796290.7774
 -10443430.81247  -8034212.75446  21141475.1564                   21141472.6994
 -11615622.33248  -9033110.67646  20645710.0704                   20645705.0004
 -12034903.12147  -9361699.19145  22186998.4534                   22186996.1374
 -17857595.41848 -13907150.43446  20730004.6564                   20730001.3794
 -11712959.22347  -9113515.37145  22650294.2504                   22650294.0784
 11  8 18  1  9  0.0000000  0  8G17G12G04G10G02G30G05G25
  21820254.83247  17016878.20743  23977777.4064                   23977775.4844
 -16011652.16848 -12462730.47346  20699621.0704                   20699617.4654
   6504026.88347   5084630.94944  22820605.4454                   22820603.8054
 -10349610.69548  -7961106.16046  21159328.7974                   21159325.9884
 -11550927.04348  -8982698.75046  20658021.0394                   20658015.8484
 -12055509.37147  -9377755.97345  22183076.8444                   22183075.0124
 -17869601.61348 -13916505.89146  20727719.7424                   20727716.9924
 -11744925.23447  -9138423.94545  22644211.1564                   22644211.3404
 11  8 18  1  9 30.0000000  0  8G17G12G04G10G02G30G05G25
  21932428.25446  17104286.04343  23999122.8834                   23999120.9304
 -15985116.44948 -12442053.27046  20704670.4304                   20704666.9924
   6631830.99647   5184218.55544  22844925.5314                   22844925.0904
 -10255202.52348  -7887541.33246  21177293.8754                   21177291.3634
 -11486008.49648  -8932112.85946  20670374.6254                   20670369.5864
 -12075598.69547  -9393409.94545  22179254.2734                   22179252.2304
 -17881079.65648 -13925449.78546  20725535.7114                   20725532.6214
 -11776480.09847  -9163012.11745  22638207.0234                   22638206.3674
 11  8 18  1 10  0.0000000  0  8G17G12G04G10G02G30G05G25
  22044819.60246  17191863.66443  24020509.8834                   24020508.9884
 -15957980.44948 -12420908.33246  20709834.4224                   20709830.7114
   6759676.02047   5283837.99644  22869253.9224                   22869252.8444
 -10160202.87548  -7813515.61745  21195371.9304                   21195368.9104
 -11420862.69148  -8881349.89546  20682771.3834                   20682766.4264
 -12095163.85247  -9408655.47345  22175531.0234                   22175528.7704
 -17892023.05948 -13933977.07446  20723452.9224                   20723450.0274
 -11807616.27747  -9187274.05145  22632281.7974                   22632281.6254
 11  8 18  1 10 30.0000000  0  8G17G12G04G10G02G30G05G25
  22157427.20746  17279609.84043  24041938.7424                   24041938.2854
 -15930245.69548 -12399296.82846  20715112.2034                   20715108.5044
   6887558.50047   5383486.66744  22893589.4774                   22893588.1054
 -10064616.21148  -7739032.49645  21213561.3284                   21213558.6454
 -11355493.45348  -8830412.81846  20695211.0004                   20695206.0204
 -12114204.95247  -9423492.64845  22171907.6484                   22171905.5514
 -17902431.96948 -13942087.88346  20721472.2034                   20721469.5704
 -11838333.60547  -9211209.60945  22626436.4844                   22626435.8284
 11  8 18  1 11  0.0000000  0  8G17G12G04G10G02G30G05G25
  22270247.53146  17367521.79743  24063406.9844                   24063407.2584
 -15901914.33648 -12377220.43746  20720503.5314                   20720499.7624
   7015473.80147   5483160.88344  22917930.5004                   22917929.2544
  -9968447.57848  -7664095.89545  21231861.4384                   21231858.5044
 -11289904.85948  -8779304.82046  20707691.3594                   20707686.8164
 -12132723.03547  -9437922.28945  22168384.1334                   22168381.2194
 -17912307.74648 -13949783.25446  20719592.7974                   20719589.6764
 -11868632.83647  -9234819.35245  22620670.6724                   22620670.5004
 11  8 18  1 11 30.0000000  0  8G17G12G04G10G02G30G05G25
  22383279.82446  17455598.87943  24084916.0784                   24084916.7894
 -15872986.64848 -12354679.37146  20726008.1564                   20726004.3954
   7143419.89847   5582859.12144  22942278.3914                   22942276.3914
  -9871700.13747  -7588708.26246  21250271.9304                   21250269.3634
 -11224099.20348  -8728027.67646  20720214.4144                   20720209.4024
 -12150716.95347  -9451943.46145  22164959.4384                   22164956.9694
 -17921649.97348 -13957062.88346  20717815.0784                   20717812.6764
 -11898512.62947  -9258102.25045  22614984.5164                   22614983.9844
 11  8 18  1 12  0.0000000  0  8G17G12G04G10G02G30G05G25
  22496530.21946  17543845.91043  24106467.5474                   24106468.0744
 -15843455.84048 -12331668.34046  20731627.6024                   20731623.8404
   7271401.35247   5682584.91444  22966632.1094                   22966629.4574
  -9774369.80148  -7512866.43745  21268793.2504                   21268790.7154
 -11158071.71948  -8676577.67646  20732778.8914                   20732773.9304
 -12168178.53147  -9465549.84445  22161636.7034                   22161633.7034
 -17930450.72348 -13963920.57846  20716140.1724                   20716137.5514
 -11927964.53148  -9281051.72745  22609380.1564                   22609379.2624
 11  8 18  1 12 30.0000000  0  8G17G12G04G10G02G30G05G25
  22609995.53546  17632260.41843  24128058.9454                   24128059.9654
 -15813324.22748 -12308189.15646  20737361.5164                   20737357.6484
   7399414.21147   5782335.16844  22990991.9454                   22990989.9804
  -9676461.66448  -7436574.36746  21287424.3204                   21287422.0704
 -11091826.60548  -8624958.10946  20745385.1564                   20745379.6134
 -12185108.75847  -9478742.19145  22158414.8054                   22158412.1454
 -17938711.47748 -13970357.48446  20714568.5234                   20714565.1254
 -11956989.15647  -9303668.28145  22603856.9064                   22603856.2034
 11  8 18  1 13  0.0000000  0  8G17G12G04G10G02G30G05G25
  22723674.34846  17720841.30943  24149693.0704                   24149692.1954
 -15782592.84448 -12284242.62146  20743209.4384                   20743205.8984
   7527455.76247   5882107.78544  23015357.7974                   23015355.4384
  -9577979.28147  -7359834.84445  21306164.7344                   21306162.0394
 -11025366.15648  -8573170.73446  20758031.9454                   20758027.1374
 -12201507.12147  -9491520.08645  22155294.6884                   22155291.4694
 -17946432.14848 -13976373.57046  20713098.9224                   20713096.2664
 -11985585.62548  -9325951.19545  22598415.1254                   22598414.5784
 11  8 18  1 13 30.0000000  0  8G17G12G04G10G02G30G05G25
  22837559.52346  17809582.96543  24171364.0164                   24171362.9104
 -15751267.78548 -12259833.47746  20749170.2734                   20749166.9654
   7655517.75047   5981896.32044  23039727.0474                   23039725.1054
  -9478932.07048  -7282655.19545  21325013.1564                   21325010.4224
 -10958699.15648  -8521222.41446  20770718.1024                   20770712.7734
 -12217378.33247  -9503887.20745  22152274.2814                   22152271.3014
 -17953617.66448 -13981972.63746  20711731.8444                   20711728.6414
 -12013758.50047  -9347904.03545  22593053.5234                   22593053.3284
 11  8 18  1 14  0.0000000  0  8G17G12G04G10G02G30G05G25
  22951654.68446  17898488.25443  24193075.7344                   24193074.5744
 -15719344.84848 -12234958.45746  20755245.3674                   20755241.4964
   7783602.35247   6081702.46544  23064100.6804                   23064098.6454
  -9379318.40647  -7205034.14545  21343969.0474                   21343966.1414
 -10891823.00848  -8469111.12546  20783444.5004                   20783439.4774
 -12232716.94547  -9515839.34045  22149355.5864                   22149353.0274
 -17960263.04748 -13987150.82046  20710467.4304                   20710464.0354
 -12041501.99648  -9369522.28545  22587774.3834                   22587774.0434
 11  8 18  1 14 30.0000000  0  8G17G12G04G10G02G30G05G25
  23065963.43046  17987559.96544  24214828.0474                   24214826.0554
 -15686819.43448 -12209613.97346  20761434.5314                   20761430.7304
   7911712.26647   6181528.35544  23088479.4694                   23088477.4924
  -9279136.52047  -7126970.34045  21363032.8204                   21363030.1604
 -10824735.25048  -8416834.94146  20796210.9144                   20796205.4804
 -12247517.17647  -9527371.94545  22146538.9144                   22146536.5124
 -17966363.02748 -13991904.02346  20709306.3444                   20709303.3954
 -12068809.93747  -9390801.15245  22582577.5394                   22582577.1884
 11  8 18  1 15  0.0000000  0  8G17G12G04G10G02G30G05G25
  23180475.34046  18076789.97743  24236618.4384                   24236616.6094
 -15653701.77348 -12183808.00446  20767736.7274                   20767733.0204
   8039835.83247   6281364.90244  23112860.1954                   23112859.0594
  -9178399.16847  -7048473.69545  21382202.3284                   21382199.3094
 -10757447.50448  -8364402.91846  20809015.2584                   20809009.8914
 -12261787.52347  -9538491.64545  22143823.1334                   22143821.1684
 -17971926.63348 -13996239.26646  20708247.3754                   20708244.8054
 -12095690.50448  -9411746.99245  22577462.5234                   22577461.6484
 11  8 18  1 15 30.0000000  0  8G17G12G04G10G02G30G05G25
  23295204.35946  18166189.21143  24258450.4454                   24258448.6884
 -15619976.87948 -12157528.85546  20774154.3754                   20774150.8204
   8167985.87947   6381222.09444  23137246.0004                   23137245.0314
  -9077094.69547  -6969535.14145  21401480.2814                   21401477.5124
 -10689946.83648  -8311804.99646  20821860.5314                   20821855.0784
 -12275511.88347  -9549185.91045  22141211.3524                   22141209.4774
 -17976938.06648 -14000144.25046  20707294.1724                   20707291.2074
 -12122127.29348  -9432347.04345  22572432.2114                   22572431.4614
 11  8 18  1 16  0.0000000  0  8G17G12G04G10G02G30G05G25
  23410143.66046  18255752.28544  24280323.2894                   24280321.5634
 -15585651.91848 -12130782.12546  20780686.2114                   20780682.6054
   8296154.19947   6481093.50044  23161636.2034                   23161634.8134
  -8975232.42648  -6890161.93445  21420863.8754                   21420861.0784
 -10622241.60948  -8259047.66846  20834744.1564                   20834739.1134
 -12288695.52347  -9559458.85545  22138702.9614                   22138700.5944
 -17981403.09048 -14003623.44946  20706444.3444                   20706441.4304
 -12148125.13747  -9452605.05145  22567484.0634                   22567483.4024
 11  8 18  1 16 30.0000000  0  8G17G12G04G10G02G30G05G25
  23525285.81646  18345473.43444  24302233.8834                   24302233.4774
 -15550733.10548 -12103572.65646  20787330.8444                   20787327.4494
   8424332.80147   6580972.95344  23186027.5084                   23186026.2274
  -8872821.45748  -6810361.18445  21440352.2584                   21440349.2194
 -10554340.19548  -8206137.46946  20847665.3834                   20847660.0664
 -12301343.39847  -9569314.33645  22136296.1644                   22136293.5864
 -17985326.89148 -14006680.92246  20705697.7504                   20705694.9414
 -12173688.70747  -9472524.66045  22562620.0474                   22562619.2974
 11  8 18  1 17  0.0000000  0  8G17G12G04G10G02G30G05G25
  23640642.06346  18435361.42643  24324185.5004                   24324184.7584
 -15515208.69948 -12075891.29346  20794090.6954                   20794086.9734
   8552531.34847   6680867.90644  23210423.1724                   23210421.0204
  -8769852.93048  -6730125.95745  21459946.4614                   21459943.6054
 -10486232.43448  -8153066.48846  20860625.6484                   20860620.3714
 -12313442.48847  -9578742.17645  22133994.0314                   22133991.1884
 -17988697.25448 -14009307.14146  20705056.4064                   20705053.2274
 -12198804.64847  -9492095.49245  22557840.2664                   22557839.7544
 11  8 18  1 17 30.0000000  0  9G17G29G12G04G10G02G30G05G25
  23756207.82846  18525412.66043  24346176.9534                   24346176.3674
  -6337216.26656  -4930286.69953  24688380.6644                   24688378.6174
 -15479082.60948 -12047741.08646  20800965.5394                   20800962.1254
   8680744.44147   6780774.22744  23234821.5084                   23234819.3444
  -8666333.36747  -6649461.34445  21479645.4064                   21479642.6954
 -10417923.92248  -8099839.06646  20873624.5394                   20873618.6524
 -12324995.27747  -9587744.34045  22131795.2504                   22131792.7074
 -17991517.09048 -14011504.38746  20704519.7034                   20704517.0354
 -12223474.96547  -9511319.07045  22553145.8284                   22553145.0744
 11  8 18  1 18  0.0000000  0  9G17G29G12G04G10G02G30G05G25
  23871981.50446  18615625.91043  24368207.5634                   24368207.9494
  -6370778.87146  -4956439.30143  24681993.9774                   24681991.7154
 -15442355.80948 -12019122.79346  20807954.5784                   20807950.5864
   8808969.60547   6880689.89844  23259221.7274                   23259220.1134
  -8562266.73447  -6568370.44945  21499448.3364                   21499445.8674
 -10349417.21148  -8046457.21146  20886660.6724                   20886655.5084
 -12336001.34047  -9596320.47345  22129700.7194                   22129698.8094
 -17993786.09448 -14013272.40246  20704087.7114                   20704084.8444
 -12247698.96547  -9530194.86745  22548536.1724                   22548535.0824
 11  8 18  1 18 30.0000000  0  9G17G29G12G04G10G02G30G05G25
  23987958.40646  18705997.52743  24390277.5634                   24390277.4494
  -6404401.78546  -4982638.89543  24675595.7584                   24675593.9534
 -15405032.32848 -11990039.56246  20815057.0784                   20815053.1764
   8937201.41847   6980610.78144  23283623.2584                   23283621.9734
  -8457659.19948  -6486858.09445  21519355.2114                   21519352.6174
 -10280718.00448  -7992925.35246  20899733.6724                   20899728.6214
 -12346463.27347  -9604472.62545  22127710.1254                   22127707.6564
 -17995507.43448 -14014613.67246  20703760.0634                   20703757.3754
 -12271478.72747  -9548724.52745  22544010.9384                   22544009.9534
 11  8 18  1 19  0.0000000  0  9G17G29G12G04G10G02G30G05G25
  24104137.25846  18796526.46944  24412386.5164                   24412385.5234
  -6438085.79346  -5008886.08643  24669185.2664                   24669183.9774
 -15367113.02048 -11960492.04346  20822272.5554                   20822268.9344
   9065437.15647   7080534.72344  23308025.7894                   23308024.1954
  -8352514.87947  -6404927.45345  21539363.2274                   21539360.3404
 -10211828.66848  -7939245.34446  20912842.8134                   20912837.9344
 -12356380.34847  -9612200.23445  22125822.9844                   22125820.2504
 -17996680.98448 -14015528.08246  20703537.2274                   20703534.0744
 -12294813.28547  -9566907.27045  22539570.5084                   22539569.5594
 11  8 18  1 19 30.0000000  0  9G17G29G12G04G10G02G30G05G25
  24220524.28146  18887217.63743  24434533.5474                   24434532.8834
  -6471824.48046  -5035175.88743  24662765.3364                   24662763.8164
 -15328591.10548 -11930474.96546  20829603.2504                   20829599.1644
   9193682.07847   7180465.83644  23332429.8284                   23332428.0784
  -8246829.97748  -6322575.56645  21559474.4924                   21559471.8164
 -10142744.50048  -7885413.51646  20925989.1564                   20925984.1024
 -12365744.63348  -9619497.08645  22124040.7424                   22124038.1724
 -17997299.25048 -14016009.82046  20703419.3754                   20703416.2274
 -12317694.23847  -9584736.55145  22535216.1564                   22535215.6644
 11  8 18  1 20  0.0000000  0  9G17G29G12G04G10G02G30G05G25
  24337109.39846  18978063.18044  24456718.7114                   24456717.9344
  -6505627.18447  -5061515.59444  24656333.0004                   24656331.3594
 -15289476.74648 -11899996.24246  20837046.4844                   20837042.8364
   9321925.06347   7280395.42244  23356833.6334                   23356832.2384
  -8140616.85548  -6239812.09045  21579685.9304                   21579683.4654
 -10073476.12548  -7831438.14846  20939170.4534                   20939165.5744
 -12374564.34448  -9626369.59445  22122362.7424                   22122360.1454
 -17997370.73448 -14016065.48446  20703405.6484                   20703402.7464
 -12340129.35248  -9602218.44545  22530947.5004                   22530946.5124
 11  8 18  1 20 30.0000000  0  9G17G29G12G04G10G02G30G05G25
  24453905.00046  19069072.69543  24478944.1484                   24478943.3714
  -6539480.74647  -5087894.92644  24649890.7814                   24649889.2894
 -15249757.03548 -11869045.82046  20844605.1484                   20844601.1914
   9450177.72347   7380332.57044  23381239.7114                   23381237.7664
  -8033865.20348  -6156628.98445  21600000.0704                   21599997.7464
 -10004012.63348  -7777310.75046  20952388.9844                   20952383.5634
 -12382825.03148  -9632806.48845  22120790.7194                   22120788.5044
 -17996881.53948 -14015684.25446  20703498.7274                   20703495.6804
 -12362103.79347  -9619341.37145  22526765.7974                   22526764.7114
 11  8 18  1 21  0.0000000  0  9G17G29G12G04G10G02G30G05G25
  24570905.09846  19160241.54743  24501209.0084                   24501206.9184
  -6573390.87546  -5114318.35243  24643437.5784                   24643436.4264
 -15209437.36748 -11837627.90246  20852277.5394                   20852273.5164
   9578432.98047   7480271.69944  23405646.3754                   23405644.1374
  -7926583.48847  -6073032.83245  21620415.1564                   21620412.6844
  -9934360.76248  -7723036.55546  20965643.6024                   20965638.1724
 -12390530.84447  -9638811.02345  22119324.3984                   22119322.1564
 -17995836.35248 -14014869.78946  20703697.7194                   20703694.5944
 -12383621.34847  -9636108.29345  22522671.0554                   22522670.1024
 11  8 18  1 21 30.0000000  0  9G17G29G12G04G10G02G30G05G25
  24688108.57846  19251568.92643  24523511.7114                   24523509.6764
  -6607357.68746  -5140785.95744  24636974.1484                   24636972.6884
 -15168518.13348 -11805742.78046  20860064.1254                   20860060.7974
   9706689.14847   7580211.57844  23430052.3834                   23430050.3554
  -7818774.57047  -5989025.88845  21640930.5394                   21640927.6054
  -9864522.55948  -7668617.16846  20978933.3984                   20978928.3714
 -12397680.76648  -9644382.37545  22117963.8524                   22117961.0274
 -17994234.79348 -14013621.78946  20704002.1884                   20703999.2154
 -12404680.45447  -9652517.98145  22518663.4924                   22518662.8094
 11  8 18  1 22  0.0000000  0  9G17G29G12G04G10G02G30G05G25
  24805516.75846  19343055.81643  24545853.6174                   24545851.9414
  -6641379.95346  -5167296.78544  24630500.2034                   24630498.7544
 -15126998.00848 -11773389.43746  20867965.1484                   20867961.5744
   9834946.34446   7680152.22344  23454458.9924                   23454457.1954
  -7710440.03948  -5904609.37545  21661545.8284                   21661543.6724
  -9794498.36348  -7614052.85246  20992258.2034                   20992253.1414
 -12404272.07048  -9649518.43745  22116709.2274                   22116706.6884
 -17992074.41848 -14011938.34446  20704413.3914                   20704410.0784
 -12425278.08647  -9668568.08245  22514744.1174                   22514743.0044
 11  8 18  1 22 30.0000000  0  9G17G29G12G04G10G02G30G05G25
  24923135.25447  19434706.57043  24568235.8594                   24568234.9884
  -6675450.63346  -5193845.28544  24624016.5784                   24624014.5274
 -15084870.71148 -11740562.98046  20875981.3204                   20875977.9924
   9963209.43846   7780097.49644  23478866.4694                   23478864.9574
  -7601576.11747  -5819780.32445  21682262.1564                   21682259.5474
  -9724282.78148  -7559339.41446  21005619.8054                   21005614.8554
 -12410296.90248  -9654213.08645  22115562.6884                   22115560.6914
 -17989347.53948 -14009813.48446  20704931.9614                   20704928.7734
 -12445405.68047  -9684251.91045  22510913.8134                   22510912.8444
 11  8 18  1 23  0.0000000  0  9G17G29G12G04G10G02G30G05G25
  25040954.62146  19526513.84043  24590656.6564                   24590655.5744
  -6709578.33646  -5220438.27043  24617522.6484                   24617520.3014
 -15042145.42248 -11707270.54746  20884111.8674                   20884108.3714
  10091468.41446   7880039.54744  23503272.3594                   23503272.1094
  -7492194.37547  -5734547.81645  21703076.6484                   21703073.8874
  -9653886.03148  -7504484.78946  21019016.0864                   21019010.8054
 -12415762.50448  -9658471.98045  22114522.8674                   22114520.1804
 -17986062.33648 -14007253.54746  20705557.4844                   20705554.3524
 -12465070.27748  -9699574.97345  22507171.4774                   22507170.7624
 11  8 18  1 23 30.0000000  0  9G17G29G12G04G10G02G30G05G25
  25158976.22746  19618478.72743  24613114.8134                   24613114.6684
  -6743761.37146  -5247074.31643  24611017.0704                   24611015.3914
 -14998820.21548 -11673510.64546  20892356.6484                   20892352.5394
  10219723.69147   7979978.75444  23527679.0234                   23527678.0744
  -7382296.05547  -5648912.75045  21723989.7114                   21723986.9734
  -9583307.84448  -7449488.79346  21032446.3834                   21032440.6684
 -12420665.96947  -9662292.82045  22113589.5004                   22113586.7074
 -17982216.21548 -14004256.53946  20706289.3674                   20706285.8954
 -12484268.39547  -9714534.53945  22503518.2114                   22503517.8914
 11  8 18  1 24  0.0000000  0  9G17G29G12G04G10G02G30G05G25
  25277198.30546  19710599.83243  24635611.7974                   24635610.9614
  -6778001.12146  -5273754.55543  24604500.6254                   24604500.1684
 -14954897.23848 -11639284.95346  20900714.5314                   20900711.0744
  10347972.25447   8079912.72744  23552084.1884                   23552083.0004
  -7271885.16848  -5562878.27045  21745000.1414                   21744997.3954
  -9512551.50048  -7394353.97346  21045911.0314                   21045905.8324
 -12425007.60248  -9665675.85945  22112763.6254                   22112760.2814
 -17977810.07848 -14000823.15646  20707127.4614                   20707124.3524
 -12502999.81247  -9729130.42245  22499953.7894                   22499953.5204
 11  8 18  1 24 30.0000000  0  9G17G29G12G04G10G02G30G05G25
  23820208.71546  18575283.25043  24358355.7344                   24358355.0824
  -8387713.77546  -6528075.98843  24298182.9384                   24298181.5784
 -16485790.12548 -12832188.50046  20609395.6334                   20609391.7974
   8900802.00046   6952247.59044  23276696.9224                   23276695.1884
  -8736376.12148  -6704040.04345  21466316.9534                   21466314.4384
 -11017031.05548  -8566675.68746  20759618.0314                   20759612.8874
 -14004201.28548 -10896216.34045  21812252.4144                   21812250.0704
 -19548257.85548 -15224548.65646  20408281.1884                   20408278.3444
 -14096678.52748 -10970957.97345  22196686.7734                   22196686.2854
 11  8 18  1 25  0.0000000  0  8G29G12G04G10G02G30G05G25
  -8422058.34446  -6554837.95343  24291647.2114                   24291645.6374
 -16440663.82448 -12797025.15646  20617983.0314                   20617978.7624
   9029041.19147   7052174.23844  23301100.7734                   23301097.5944
  -8624940.95748  -6617207.44945  21487522.1954                   21487519.5274
 -10945914.74248  -8511260.37146  20773150.9454                   20773145.6454
 -14007407.26648 -10898714.46145  21811642.8444                   21811640.0634
 -19542720.89148 -15220234.10947  20409334.8444                   20409332.0594
 -14114463.25847 -10984816.16045  22193302.4694                   22193301.8244
 11  8 18  1 25 30.0000000  0  8G29G12G04G10G02G30G05G25
  -8456455.43046  -6581640.82043  24285101.5164                   24285100.0234
 -16394936.76248 -12761393.67246  20626684.1724                   20626680.4884
   9157273.22346   7152095.30544  23325501.5474                   23325499.2544
  -8512998.41448  -6529979.49245  21508824.2974                   21508821.4804
 -10874621.20748  -8455706.95346  20786717.4304                   20786712.6054
 -14010044.00448 -10900769.00845  21811141.2424                   21811138.2854
 -19536617.93048 -15215478.52046  20410495.8834                   20410492.9964
 -14131772.41847 -10998303.78545  22190008.7974                   22190008.2894
 11  8 18  1 26  0.0000000  0  8G29G12G04G10G02G30G05G25
  -8490903.42646  -6608483.36743  24278546.7274                   24278545.1454
 -16348607.60948 -12725293.03146  20635500.4844                   20635496.5744
   9285498.48846   7252011.09843  23349902.0864                   23349901.0124
  -8400549.72748  -6442357.12545  21530222.4534                   21530219.4654
 -10803149.79348  -8400014.94546  20800317.9534                   20800312.9344
 -14012108.90648 -10902377.98445  21810748.0314                   21810745.4224
 -19529946.79348 -15210280.19146  20411765.6884                   20411762.6294
 -14148602.89147 -11011418.40245  22186805.5474                   22186805.3794
 11  8 18  1 26 30.0000000  0  8G29G12G04G10G02G30G05G25
  -8525398.01646  -6635362.19544  24271982.9304                   24271981.5984
 -16301672.89548 -12688720.52046  20644432.0314                   20644428.3914
   9413719.39146   7351923.48843  23374302.2504                   23374301.0274
  -8287594.26248  -6354339.87545  21551717.1884                   21551714.0204
 -10731498.41448  -8344182.68046  20813952.9614                   20813947.8554
 -14013596.63348 -10903537.20745  21810465.0004                   21810462.3674
 -19522702.69148 -15204635.40246  20413144.0164                   20413141.0744
 -14164948.95347 -11024155.54345  22183695.2664                   22183694.7934
 11  8 18  1 27  0.0000000  0  8G29G12G04G10G02G30G05G25
  -8559939.64146  -6662277.66443  24265410.0314                   24265408.3594
 -16254133.76248 -12651677.03546  20653478.2814                   20653474.6914
   9541934.14547   7451831.13744  23398700.2814                   23398699.1994
  -8174135.48048  -6265930.42245  21573307.8444                   21573305.2344
 -10659669.12148  -8288211.78946  20827621.9774                   20827616.7424
 -14014506.70348 -10904246.30945  21810291.6484                   21810288.9184
 -19514885.48448 -15198544.03947  20414631.9384                   20414628.6724
 -14180809.55147 -11036514.40245  22180677.3134                   22180676.3364
 11  8 18  1 27 30.0000000  0  8G29G12G04G10G02G30G05G25
  -8594531.01647  -6689231.96143  24258827.1024                   24258824.7384
 -16205993.47748 -12614165.11746  20662639.2344                   20662635.6484
   9670138.50047   7551730.62144  23423096.5554                   23423095.5354
  -8060179.07048  -6177133.21945  21594992.8444                   21594990.2344
 -10587666.27348  -8232105.66446  20841323.2504                   20841318.0474
 -14014840.98847 -10904506.74645  21810227.7814                   21810225.2774
 -19506497.68048 -15192008.05547  20416227.7034                   20416224.9774
 -14196185.93447 -11048495.94945  22177750.8754                   22177750.3714
 11  8 18  1 28  0.0000000  0  8G29G12G04G10G02G30G05G25
  -8629175.14846  -6716227.32843  24252233.7664                   24252232.7624
 -16157255.80148 -12576187.69146  20671913.4924                   20671909.9964
   9798327.84846   7651618.43043  23447490.7424                   23447488.1024
  -7945731.52748  -6087953.31245  21616771.7894                   21616768.9734
 -10515494.71948  -8175868.07446  20855056.9844                   20855051.9454
 -14014601.71148 -10904320.26245  21810273.2814                   21810271.0704
 -19497542.07048 -15185029.62147  20417931.7894                   20417929.0704
 -14211079.80547 -11060101.52045  22174916.5634                   22174916.5354
 11  8 18  1 28 30.0000000  0  8G29G12G04G10G02G30G05G25
  -8663867.68047  -6743260.42543  24245632.5784                   24245630.5004
 -16107917.28148 -12537742.08246  20681302.1804                   20681298.7504
   9926504.94547   7751496.68443  23471881.8204                   23471879.5164
  -7830791.78548  -5998389.87145  21638643.7664                   21638640.7424
 -10443152.04348  -8119497.14846  20868823.5554                   20868818.6484
 -14013783.82047 -10903682.91845  21810428.8594                   21810426.3634
 -19488013.89148 -15177605.02747  20419745.1804                   20419742.3014
 -14225485.54347 -11071326.73045  22172175.1884                   22172174.6914
 11  8 18  1 29  0.0000000  0  8G29G12G04G10G02G30G05G25
  -8698614.75847  -6770336.02044  24239021.0554                   24239018.3714
 -16057984.36348 -12498833.30546  20690804.3524                   20690800.5314
  10054662.43346   7851359.68044  23496269.1484                   23496267.0594
  -7715368.97748  -5908450.02045  21660608.1564                   21660605.2234
 -10370645.72748  -8062998.70346  20882620.9454                   20882615.6094
 -14012392.18748 -10902598.50845  21810694.3204                   21810691.6024
 -19477918.70748 -15169738.60947  20421666.0164                   20421663.1414
 -14239407.60248 -11082175.04345  22169526.2504                   22169525.8714
 11  8 18  1 29 30.0000000  0  8G29G12G04G10G02G30G05G25
  -8733405.50847  -6797445.66043  24232400.2734                   24232397.6994
 -16007446.87548 -12459453.43746  20700421.2114                   20700417.6914
  10182809.60946   7951214.66043  23520654.7034                   23520652.9494
  -7599455.24248  -5818127.60945  21682665.7664                   21682662.5394
 -10297966.25848  -8006365.34846  20896451.4924                   20896445.8954
 -14010415.16848 -10901057.95745  21811070.4774                   21811067.2464
 -19467245.31648 -15161421.64847  20423696.8914                   20423694.1134
 -14252833.71948 -11092636.91445  22166971.0394                   22166970.6994
 11  8 18  1 30  0.0000000  0  8G29G12G04G10G02G30G05G25
  -8768245.47746  -6824593.62543  24225769.7194                   24225768.2234
 -15956311.38348 -12419607.59446  20710151.8834                   20710148.4734
  10310939.26247   8051055.93843  23545037.2584                   23545034.9414
  -7483059.50448  -5727429.63345  21704815.0234                   21704812.2704
 -10225121.03148  -7949602.81646  20910313.2814                   20910308.0234
 -14007857.71548 -10899065.12545  21811556.7974                   21811553.9224
 -19455999.05948 -15152658.30147  20425837.2034                   20425833.8984
 -14265768.27748 -11102715.75445  22164509.8054                   22164509.1254
 11  8 18  1 30 30.0000000  0  8G29G12G04G10G02G30G05G25
  -8803133.34046  -6851778.91443  24219130.8834                   24219128.7704
 -15904577.35548 -12379295.36346  20719996.3984                   20719992.3634
  10439051.31647   8150883.50843  23569416.1094                   23569414.2464
  -7366184.12548  -5636357.89545  21727055.9224                   21727052.6414
 -10152110.60948  -7892711.57446  20924206.8834                   20924201.5434
 -14004717.80147 -10896618.43745  21812154.0634                   21812151.7584
 -19444178.71148 -15143447.60247  20428086.1334                   20428083.8874
 -14278208.69548 -11112409.56245  22162142.5554                   22162141.9614
 11  8 18  1 31  0.0000000  0  8G29G12G04G10G02G30G05G25
  -8838065.89846  -6878999.02343  24212483.0704                   24212481.5634
 -15852242.49248 -12338514.94946  20729955.8284                   20729952.1054
  10567147.39847   8250698.62944  23593792.1564                   23593789.6094
  -7248829.11748  -5544912.43045  21749388.1414                   21749385.1804
 -10078933.64848  -7835690.55546  20938131.7424                   20938126.6994
 -14000991.44948 -10893714.77045  21812863.4144                   21812860.6334
 -19431780.55948 -15133786.66847  20430446.1414                   20430442.7344
 -14290150.38348 -11121714.73045  22159869.7194                   22159869.5904
 11  8 18  1 31 30.0000000  0  8G29G12G04G10G02G30G05G25
  -8873048.61346  -6906258.23444  24205826.5864                   24205824.5784
 -15799313.12148 -12297271.27746  20740027.4454                   20740024.0274
  10695220.51247   8350495.82844  23618163.8914                   23618161.7034
  -7131003.01248  -5453099.87545  21771808.8204                   21771806.0124
 -10005597.23448  -7778545.28546  20952087.3134                   20952082.0234
 -13996683.59848 -10890357.98845  21813682.8444                   21813680.5824
 -19418809.73048 -15123679.49647  20432914.1484                   20432910.7424
 -14301597.66448 -11130634.66845  22157691.4694                   22157690.8444
 11  8 18  1 32  0.0000000  0  8G29G12G04G10G02G30G05G25
  -8908078.38346  -6933554.09844  24199161.0944                   24199158.9654
 -15745787.23048 -12255562.80546  20750213.3134                   20750209.9534
  10823272.05947   8450276.23443  23642530.6804                   23642529.4654
  -7012706.19548  -5360920.52045  21794320.0474                   21794317.3094
  -9932099.87148  -7721274.60546  20966073.5004                   20966068.3054
 -13991790.54748 -10886545.20345  21814614.5084                   21814611.7274
 -19405263.75048 -15113124.16447  20435491.9614                   20435488.5164
 -14312546.28948 -11139166.03945  22155608.2664                   22155607.1954
 11  8 18  1 32 30.0000000  0  8G29G12G04G10G02G30G05G25
  -8943155.14146  -6960886.58644  24192485.6414                   24192483.2194
 -15691665.81648 -12213390.27346  20760512.1564                   20760508.8164
  10951300.96147   8550038.99644  23666893.8524                   23666891.9144
  -6893942.02748  -5268376.99245  21816920.4064                   21816917.1994
  -9858443.23848  -7663879.82046  20980089.7734                   20980084.5664
 -13986311.45348 -10882275.78145  21815656.7974                   21815654.3284
 -19391141.94948 -15102120.12947  20438178.9774                   20438175.7664
 -14322994.77048 -11147307.69545  22153620.0084                   22153618.9454
 11  8 18  1 33  0.0000000  0  8G29G12G04G10G02G30G05G25
  -8978276.64146  -6988253.91044  24185801.8204                   24185800.3324
 -15636947.50048 -12170752.62546  20770924.6564                   20770921.0904
  11079307.69947   8649784.46944  23691252.5944                   23691251.8094
  -6774711.69548  -5175470.24645  21839608.7664                   21839606.5164
  -9784626.64548  -7606360.39146  20994136.5634                   20994131.6954
 -13980243.59848 -10877547.56645  21816811.2584                   21816808.9734
 -19376442.11748 -15090665.67647  20440976.4774                   20440972.9884
 -14332939.85248 -11155057.08646  22151727.4614                   22151726.8984
 11  8 18  1 33 30.0000000  0  8G29G12G04G10G02G30G05G25
  -9013444.74247  -7015657.55144  24179109.3834                   24179108.0234
 -15581635.43448 -12127652.32446  20781450.3054                   20781446.7384
  11207289.05147   8749510.16444  23715606.8134                   23715605.8094
  -6655020.57048  -5082204.42245  21862385.5234                   21862382.7234
  -9710653.99648  -7548719.35546  21008212.9924                   21008207.6414
 -13973588.50448 -10872361.78145  21818078.2734                   21818075.9184
 -19361166.44548 -15078762.53547  20443883.1644                   20443879.9574
 -14342382.28948 -11162414.81645  22149930.5704                   22149929.7734
 11  8 18  1 34  0.0000000  0  8G29G12G04G10G02G30G05G25
  -9048655.77346  -7043094.65244  24172409.3524                   24172407.5554
 -15525726.86748 -12084087.21946  20792089.5634                   20792086.3754
  11335247.10547   8849217.69944  23739956.9694                   23739955.4844
  -6534868.50848  -4988579.43445  21885249.8594                   21885247.0274
  -9636523.15648  -7490955.06246  21022319.8444                   21022314.8014
 -13966341.75048 -10866714.96545  21819456.7814                   21819454.4924
 -19345310.77748 -15066407.44147  20446900.6024                   20446896.7464
 -14351317.18748 -11169377.07045  22148230.1884                   22148229.8554
 11  8 18  1 34 30.0000000  0  8G29G12G04G10G02G30G05G25
  -9083910.66446  -7070565.91844  24165700.3444                   24165698.4224
 -15469223.57048 -12040058.68746  20802841.6334                   20802837.9734
  11463179.37547   8948905.14844  23764301.3754                   23764300.2544
  -6414259.45747  -4894598.33645  21908201.2734                   21908197.5744
  -9562236.81248  -7433069.59046  21036456.3284                   21036450.7384
 -13958503.91048 -10860607.56245  21820948.4454                   21820945.7504
 -19328876.35548 -15053601.36347  20450027.8834                   20450024.5234
 -14359744.43048 -11175943.75846  22146626.4454                   22146625.9184
 11  8 18  1 35  0.0000000  0  8G29G12G04G10G02G30G05G25
  -9119205.94946  -7098068.69944  24158984.1484                   24158981.5824
 -15412124.09848 -11995565.60946  20813707.3834                   20813703.4774
  11591087.65647   9048573.93843  23788640.8834                   23788640.4774
  -6293194.00847  -4800261.60245  21931238.7424                   21931236.2624
  -9487793.45748  -7375061.77346  21050622.0394                   21050616.5474
 -13950071.30548 -10854036.69945  21822553.2274                   21822550.5164
 -19311859.96948 -15040341.80547  20453265.8134                   20453262.7234
 -14367659.67648 -11182111.47346  22145120.2424                   22145119.8134
 11  8 18  1 35 30.0000000  0  8G29G12G04G10G02G30G05G25
  -9154550.09046  -7125609.53144  24152258.1954                   24152255.8054
 -15354437.58648 -11950615.08646  20824684.6804                   20824680.9344
  11718962.21546   9148216.42643  23812974.6024                   23812974.1414
  -6171683.96548  -4705578.44545  21954361.4774                   21954358.6094
  -9413203.14148  -7316939.44146  21064816.3594                   21064810.7194
 -13941051.94148 -10847008.62145  21824269.4064                   21824267.1764
 -19294269.99248 -15026635.29747  20456613.1254                   20456609.8404
 -14375070.23048 -11187885.92646  22143710.0944                   22143709.5984
 11  8 18  1 36  0.0000000  0  8G29G12G04G10G02G30G05G25
  -9189931.90646  -7153179.72344  24145524.9224                   24145523.5904
 -15296154.22348 -11905199.49646  20835776.0314                   20835772.2624
  11846812.54346   9247840.03943  23837303.9534                   23837303.6954
  -6049721.49247  -4610542.75045  21977569.9694                   21977567.6564
  -9338456.51248  -7258695.30946  21079040.1804                   21079034.6024
 -13931434.18048 -10839514.26645  21826099.7814                   21826097.1954
 -19276095.46548 -15012473.30547  20460071.2034                   20460068.2974
 -14381963.89848 -11193257.59846  22142398.5944                   22142397.7934
 11  8 18  1 36 30.0000000  0  8G29G12G04G10G02G30G05G25
  -9225351.92646  -7180779.69144  24138785.0394                   24138783.6844
 -15237275.60948 -11859320.06646  20846980.0554                   20846976.6454
  11974636.65646   9347443.23444  23861628.6174                   23861628.6294
  -5927310.83247  -4515157.80545  22000863.9614                   22000861.1564
  -9263555.66848  -7200331.00446  21093293.1414                   21093287.7194
 -13921218.19548 -10831553.76245  21828043.7894                   21828040.8874
 -19257337.29748 -14997856.51247  20463640.9224                   20463637.6214
 -14388340.14548 -11198226.09846  22141184.9304                   22141184.5274
 11  8 18  1 37  0.0000000  0  8G29G12G04G10G02G30G05G25
  -9260814.96547  -7208413.17244  24132036.2504                   24132035.2504
 -15177808.12148 -11812981.77046  20858296.2274                   20858292.8634
  12102428.28946   9447021.12543  23885945.9304                   23885945.1884
  -5804460.35547  -4419430.16845  22024241.6024                   22024238.9924
  -9188507.42248  -7141851.83246  21107574.1804                   21107568.7384
 -13910408.68448 -10823130.76645  21830100.6804                   21830098.2974
 -19238000.27048 -14982788.68047  20467320.4844                   20467317.4064
 -14394202.94548 -11202794.52046  22140069.5474                   22140068.7974
 11  8 18  1 37 30.0000000  0  8G29G12G04G10G02G30G05G25
  -9296318.41847  -7236078.15244  24125280.8054                   24125278.6174
 -15117750.18048 -11766183.38746  20869725.1724                   20869721.4884
  12230188.53946   9546574.53544  23910258.3914                   23910257.5084
  -5681171.07447  -4323360.58245  22047702.7504                   22047699.6604
  -9113310.70348  -7083256.98846  21121883.5944                   21121878.6254
 -13899002.66448 -10814242.95345  21832271.1484                   21832268.2544
 -19218082.18748 -14967268.06247  20471110.9694                   20471107.5864
 -14399548.69148 -11206960.03146  22139051.8674                   22139051.3284
 11  8 18  1 38  0.0000000  0  8G29G12G04G10G02G30G05G25
  -9331861.03947  -7263773.64144  24118517.1024                   24118515.1954
 -15057102.19948 -11718925.22346  20881265.6254                   20881262.0434
  12357916.92647   9646103.17243  23934564.0944                   23934562.6254
  -5557445.10547  -4226950.72745  22071247.0164                   22071244.5904
  -9037966.03948  -7024546.84446  21136221.2504                   21136216.3714
 -13886998.69147 -10804889.21545  21834555.6954                   21834552.9104
 -19197582.13348 -14951293.98047  20475012.2504                   20475008.8054
 -14404375.22348 -11210720.95746  22138133.7974                   22138133.0234
 11  8 18  1 38 30.0000000  0  8G29G12G04G10G02G30G05G25
  -9367436.70346  -7291494.92244  24111747.2814                   24111744.9454
 -14995859.12148 -11671203.35546  20892920.0164                   20892916.5594
  12485618.40247   9745610.81343  23958864.6954                   23958863.9104
  -5433279.94147  -4130198.64845  22094874.8834                   22094871.8324
  -8962469.14548  -6965718.09446  21150587.6644                   21150582.8164
 -13874390.29348 -10795064.50045  21836954.8834                   21836952.3954
 -19176494.05148 -14934861.67647  20479024.9384                   20479021.4734
 -14408675.44148 -11214071.77346  22137315.1724                   22137314.7194
 11  8 18  1 39  0.0000000  0  8G29G12G04G10G02G30G05G25
  -9403052.96546  -7319247.81644  24104969.1644                   24104967.1024
 -14934030.50848 -11623025.21546  20904685.8444                   20904682.3714
  12613283.82847   9845090.39543  23983158.4924                   23983157.6484
  -5308687.08247  -4033113.31645  22118583.8524                   22118581.3404
  -8886829.10548  -6906777.79346  21164981.8524                   21164976.5204
 -13861184.98848 -10784774.65645  21839468.0554                   21839465.4264
 -19154825.86748 -14917977.34847  20483148.2504                   20483144.9064
 -14412456.01648 -11217017.66846  22136595.9924                   22136595.7464
 11  8 18  1 39 30.0000000  0  8G29G12G04G10G02G30G05G25
  -9438698.50046  -7347023.52344  24098185.7974                   24098183.7624
 -14871606.31248 -11574382.97746  20916564.7274                   20916561.0124
  12740922.83647   9944549.37143  24007447.6334                   24007446.8054
  -5183658.79747  -3935688.68045  22142376.1414                   22142373.5554
  -8811036.60948  -6847718.69546  21179404.5164                   21179399.2304
 -13847371.44548 -10774010.86345  21842096.3524                   21842093.7854
 -19132567.10948 -14900632.84047  20487384.1724                   20487380.8484
 -14415705.06248 -11219549.38346  22135978.0314                   22135977.1644
 11  8 18  1 40  0.0000000  0  8G29G12G04G10G02G30G05G25
  -9474380.62946  -7374827.76244  24091396.0944                   24091394.4534
 -14808594.76648 -11525283.05946  20928555.3984                   20928551.6414
  12868526.61747  10043980.93443  24031729.8914                   24031728.8094
  -5058205.83247  -3837933.12145  22166249.6564                   22166246.1604
  -8735100.65248  -6788547.80546  21193854.7194                   21193849.5944
 -13832956.92647 -10762778.76645  21844839.8524                   21844836.7384
 -19109725.10948 -14882833.84847  20491730.5704                   20491727.1804
 -14418429.05948 -11221671.96146  22135459.3754                   22135458.9184
 11  8 18  1 40 30.0000000  0  8G29G12G04G10G02G30G05G25
  -9510100.35247  -7402661.32044  24084598.8594                   24084596.2034
 -14744999.77048 -11475728.51646  20940656.6884                   20940653.7034
  12996092.39146  10143382.87143  24056005.0944                   24056002.7384
  -4932333.50847  -3739850.78545  22190202.2274                   22190198.9064
  -8659024.51248  -6729267.68446  21208331.4694                   21208325.9304
 -13817942.70348 -10751079.36345  21847696.9614                   21847693.6524
 -19086302.09848 -14864582.11747  20496187.6414                   20496184.4654
 -14420628.54748 -11223385.84046  22135040.6884                   22135040.5004
 11  8 18  1 41  0.0000000  0  8G29G12G04G10G02G30G05G25
 -11121274.78547  -8658121.94144  23778002.7194                   23778000.0164
 -16256235.94548 -12653315.14546  20653078.3754                   20653074.6254
  11548207.47346   9015160.84843  23780481.9534                   23780478.9964
  -6381456.65247  -4869037.64145  21914442.7504                   21914439.7504
 -10158222.53948  -7897473.93446  20923043.4534                   20923038.6334
 -15377743.60248 -11966508.61345  21550876.2974                   21550873.6484
 -20637712.89148 -16073473.62147  20200964.1334                   20200960.8094
 -15997718.23048 -12452286.87946  21834930.4844                   21834929.9614
 11  8 18  1 41 30.0000000  0  8G29G12G04G10G02G30G05G25
 -11157065.87547  -8686011.11744  23771191.4454                   23771189.9654
 -16191473.87548 -12602851.18446  20665402.0554                   20665398.8754
  11675696.91046   9114503.33243  23804741.3054                   23804739.3594
  -6254752.20747  -4770306.90245  21938554.1484                   21938550.9774
 -10081866.88748  -7837976.00846  20937573.4924                   20937568.2734
 -15361525.57048 -11953871.18045  21553962.5704                   21553959.5704
 -20613124.65648 -16054313.93047  20205643.0394                   20205639.6174
 -15998862.16448 -12453178.25046  21834712.9384                   21834712.2034
 11  8 18  1 42  0.0000000  0  8G29G12G04G10G02G30G05G25
 -11192890.04347  -8713926.09844  23764375.0864                   23764372.1454
 -16126127.35948 -12551931.81246  20677837.0784                   20677833.4224
  11803148.29347   9213816.13743  23828995.0234                   23828993.4654
  -6127634.78547  -4671254.34845  21962743.4064                   21962740.9414
 -10005371.48048  -7778369.19946  20952130.0314                   20952124.9414
 -15344703.27048 -11940762.87545  21557163.3444                   21557160.3054
 -20587952.10248 -16034698.92647  20210433.2974                   20210429.6914
 -15999474.82048 -12453655.62546  21834596.2734                   21834595.5314
 11  8 18  1 42 30.0000000  0  8G29G12G04G10G02G30G05G25
 -11228746.21147  -8741866.01244  23757551.9774                   23757549.0234
 -16060198.05948 -12500558.32446  20690382.9384                   20690379.5164
  11930561.36747   9313099.07443  23853241.5784                   23853240.0824
  -6000107.04747  -4571882.09045  21987011.0704                   21987008.6684
  -9928737.00448  -7718654.02046  20966713.2344                   20966708.0944
 -15327275.67648 -11927182.91045  21560479.8834                   21560477.1024
 -20562194.79748 -16014628.27047  20215334.3594                   20215331.3914
 -15999554.49848 -12453717.69946  21834581.3524                   21834580.5044
 11  8 18  1 43  0.0000000  0  8G29G12G04G10G02G30G05G25
 -11264630.55147  -8769827.84044  23750723.2194                   23750720.7464
 -15993683.79348 -12448729.01646  20703040.6174                   20703036.4884
  12057938.49247   9412353.98043  23877480.4384                   23877478.4884
  -5872168.64147  -4472189.81645  22011357.4384                   22011354.5594
  -9851961.34448  -7658828.82446  20981322.9694                   20981317.9064
 -15309238.84048 -11913128.19545  21563912.2424                   21563908.9304
 -20535849.26248 -15994099.25047  20220347.9534                   20220344.6214
 -15999096.34848 -12453360.68046  21834668.1174                   21834667.5394
 11  8 18  1 43 30.0000000  0  8G29G12G04G10G02G30G05G25
 -11300547.12946  -8797814.78544  23743887.5394                   23743886.6254
 -15926590.26248 -12396448.34046  20715807.9614                   20715804.3244
  12185274.10947   9511576.52344  23901711.1024                   23901709.5164
  -5743827.67647  -4372183.85545  22035779.5554                   22035776.7894
  -9775050.67648  -7598898.42246  20995958.8524                   20995953.2234
 -15290597.24247 -11898602.23445  21567459.1564                   21567456.9104
 -20508920.53148 -15973115.79747  20225472.2894                   20225469.3134
 -15998104.15648 -12452587.52746  21834856.7344                   21834855.9064
 11  8 18  1 44  0.0000000  0  8G29G12G04G10G02G30G05G25
 -11336498.24246  -8825828.61744  23737046.6174                   23737045.6884
 -15858921.59448 -12343719.50046  20728684.4844                   20728681.1254
  12312564.10946   9610763.50043  23925932.7734                   23925931.8404
  -5615090.16047  -4271868.89845  22060277.5784                   22060274.6524
  -9698008.77048  -7538865.77046  21010619.2894                   21010614.4884
 -15271353.35947 -11883606.97345  21571121.1174                   21571118.6604
 -20481411.86748 -15951680.44147  20230707.1254                   20230703.9384
 -15996579.69548 -12451399.60546  21835147.0394                   21835146.6294
 11  8 18  1 44 30.0000000  0  8G29G12G04G10G02G30G05G25
 -11372474.69946  -8853862.18444  23730200.9614                   23730198.9534
 -15790670.12548 -12290536.53546  20741672.0784                   20741668.5704
  12439816.33246   9709921.02043  23950149.2034                   23950147.3094
  -5485950.95347  -4171240.92645  22084852.0474                   22084848.8794
  -9620828.34848  -7478725.17646  21025306.1484                   21025300.8874
 -15251498.35548 -11868135.50845  21574899.9064                   21574897.1024
 -20453314.75448 -15929786.55947  20236053.8204                   20236050.5314
 -15994513.31348 -12449789.41846  21835540.3364                   21835539.8404
 11  8 18  1 45  0.0000000  0  8G29G12G04G10G02G30G05G25
 -11408474.02747  -8881913.59444  23723350.3674                   23723348.1054
 -15721835.87948 -12236899.46146  20754771.2974                   20754767.7194
  12567031.64546   9809049.86743  23974357.4534                   23974355.8914
  -5356411.54347  -4070301.12145  22109502.5234                   22109499.1844
  -9543509.01648  -7418476.34446  21040019.6954                   21040014.5514
 -15231030.05547 -11852186.14145  21578794.5164                   21578792.1604
 -20424627.12148 -15907432.54347  20241512.9384                   20241509.6484
 -15991902.02048 -12447754.60946  21836036.8284                   21836036.0164
 11  8 18  1 45 30.0000000  0  8G29G12G04G10G02G30G05G25
 -11444502.04747  -8909987.32444  23716494.3914                   23716492.2854
 -15652426.02748 -12182813.86746  20767979.4064                   20767975.8094
  12694203.09846   9908144.44143  23998557.4614                   23998555.9384
  -5226481.35547  -3969056.80145  22134227.0944                   22134225.0314
  -9466058.14148  -7358125.01246  21054758.0394                   21054752.6094
 -15209954.34048 -11835763.46545  21582805.1484                   21582802.1094
 -20395355.80548 -15884623.69947  20247082.7814                   20247079.4264
 -15988750.92648 -12445299.18446  21836636.6724                   21836635.5554
 11  8 18  1 46  0.0000000  0  8G29G12G04G10G02G30G05G25
 -11480556.31646  -8938081.50444  23709633.5864                   23709631.8524
 -15582440.60248 -12128279.77746  20781297.3984                   20781294.0434
  12821330.97346  10007205.07043  24022749.4384                   24022747.7894
  -5096162.03547  -3867509.26645  22159026.3984                   22159023.8524
  -9388475.18048  -7297670.73846  21069521.6094                   21069516.5944
 -15188269.56348 -11818866.19945  21586931.7344                   21586928.6134
 -20365499.41048 -15861358.95747  20252764.2034                   20252760.9344
 -15985057.54748 -12442421.18746  21837339.4064                   21837338.4064
 11  8 18  1 46 30.0000000  0  8G29G12G04G10G02G30G05G25
 -11516641.28147  -8966199.57044  23702766.6884                   23702764.3204
 -15511885.80148 -12073302.01646  20794723.2424                   20794719.9574
  12948409.49246  10106227.25843  24046931.6884                   24046929.7624
  -4965461.83647  -3765664.94945  22183897.9064                   22183895.0904
  -9310766.43848  -7237118.46546  21084309.1884                   21084304.0784
 -15165980.49248 -11801498.06245  21591173.4384                   21591170.3014
 -20335063.62548 -15837642.73447  20258556.0314                   20258553.0124
 -15980825.91848 -12439123.77346  21838144.6724                   21838143.7894
 11  8 18  1 47  0.0000000  0  8G29G12G04G10G02G30G05G25
 -11552744.45747  -8994331.84444  23695896.8444                   23695894.4614
 -15440751.10248 -12017872.39846  20808259.6954                   20808255.8914
  13075449.66046  10205219.58643  24071105.8444                   24071104.2384
  -4834371.94147  -3663516.96145  22208843.1094                   22208840.4384
  -9232921.24248  -7176459.85946  21099122.5164                   21099117.5204
 -15143074.82848 -11783649.46945  21595532.1564                   21595529.2814
 -20304036.18748 -15813465.48847  20264460.2974                   20264457.1484
 -15976042.93048 -12435396.73846  21839055.0234                   21839053.9384
 11  8 18  1 47 30.0000000  0  8G29G12G04G10G02G30G05G25
 -11588867.87947  -9022479.86744  23689022.8984                   23689020.3634
 -15369040.80148 -11961994.25846  20821905.9384                   20821902.4774
  13202447.94546  10304179.29343  24095272.9144                   24095271.3164
  -4702898.68847  -3561070.25045  22233861.6804                   22233859.4614
  -9154943.30148  -7115697.81646  21113961.1644                   21113955.9964
 -15119555.39848 -11765322.62545  21600007.7114                   21600004.6764
 -20272420.51648 -15788829.87547  20270476.8134                   20270473.7234
 -15970710.52348 -12431241.58246  21840069.6174                   21840068.8404
 11  8 18  1 48  0.0000000  0  8G29G12G04G10G02G30G05G25
 -11625015.68047  -9050646.90644  23682143.6414                   23682141.7234
 -15296761.18048 -11905672.48846  20835660.0864                   20835656.8444
  13329398.46946  10403101.77043  24119430.4304                   24119429.4534
  -4571050.21947  -3458331.18845  22258952.1174                   22258949.0394
  -9076838.91048  -7054837.25446  21128824.3204                   21128819.0784
 -15095426.81348 -11746521.10246  21604599.3914                   21604596.1524
 -20240222.14548 -15763740.21947  20276604.0004                   20276600.9654
 -15964832.56348 -12426661.31246  21841187.9304                   21841187.4304
 11  8 18  1 48 30.0000000  0  8G29G12G04G10G02G30G05G25
 -11661185.33247  -9078830.94944  23675260.8914                   23675259.1174
 -15223911.76248 -11848906.72346  20849523.0704                   20849519.7624
  13456302.47946  10501987.97443  24143580.4304                   24143578.8444
  -4438827.87947  -3355300.77745  22284112.6024                   22284110.1024
  -8998607.25848  -6993877.51246  21143710.8134                   21143705.1844
 -15070686.98048 -11727243.29345  21609306.4454                   21609303.9964
 -20207439.17648 -15738195.03147  20282842.2584                   20282838.8794
 -15958406.07448 -12421653.62946  21842411.1724                   21842410.3984
 11  8 18  1 49  0.0000000  0  8G29G12G04G10G02G30G05G25
 -11697369.83247  -9107026.57444  23668374.8524                   23668372.5434
 -15150487.39148 -11791692.94946  20863495.2664                   20863491.8834
  13583165.40646  10600842.17243  24167722.0784                   24167720.1484
  -4306228.07847  -3251976.24644  22309345.4614                   22309342.7974
  -8920242.88348  -6932814.34846  21158623.4534                   21158617.8554
 -15045329.35548 -11707484.10245  21614132.6564                   21614129.5124
 -20174065.21548 -15712189.32047  20289193.1564                   20289189.6684
 -15951423.67648 -12416212.76646  21843739.7424                   21843739.0124
 11  8 18  1 49 30.0000000  0  8G29G12G04G10G02G30G05G25
 -11733576.01247  -9135239.09844  23661485.3984                   23661483.0354
 -15076497.60248 -11734038.58646  20877575.2194                   20877571.5634
  13709978.64846  10699657.66043  24191853.5944                   24191852.0864
  -4173262.01647  -3148366.30945  22334648.0314                   22334645.7464
  -8841754.75048  -6871654.75446  21173558.8594                   21173553.5434
 -15019361.68848 -11687249.56645  21619073.6884                   21619071.1684
 -20140108.77348 -15685729.74247  20295654.8914                   20295651.3444
 -15943892.37948 -12410344.19946  21845172.8364                   21845172.2344
 11  8 18  1 50  0.0000000  0  8G29G12G04G10G02G30G05G25
 -11769799.57847  -9163465.19144  23654591.9454                   23654589.1804
 -15001940.50448 -11675942.16446  20891763.0164                   20891759.3204
  13836744.85246  10798436.46143  24215975.6334                   24215975.0314
  -4039929.73447  -3044471.03945  22360021.2344                   22360018.3834
  -8763140.46548  -6810396.84846  21188519.0234                   21188513.9264
 -14992780.39848 -11666536.88345  21624131.7664                   21624129.2544
 -20105566.92648 -15658813.98447  20302227.8204                   20302224.4964
 -15935807.72748 -12404044.44946  21846711.3674                   21846710.5274
 11  8 18  1 50 30.0000000  0  8G29G12G04G10G02G30G05G25
 -11806039.78147  -9191704.24644  23647695.5474                   23647693.3484
 -14926816.71948 -11617404.15246  20906058.4694                   20906055.1954
  13963463.66046  10897178.39143  24240090.0004                   24240088.5204
  -3906234.12947  -2940292.62945  22385461.9534                   22385459.6024
  -8684401.17648  -6749041.53946  21203502.2504                   21203497.2464
 -14965585.14148 -11645345.78545  21629306.8914                   21629303.5394
 -20070439.66048 -15631442.06647  20308912.0784                   20308908.9184
 -15927168.46548 -12397312.53946  21848355.5164                   21848354.3794
 11  8 18  1 51  0.0000000  0  8G29G12G04G10G02G30G05G25
 -11842296.21947  -9219955.98044  23640796.4224                   23640793.9494
 -14851128.85547 -11558426.62146  20920461.3914                   20920458.1994
  14090133.50546  10995882.16143  24264194.3134                   24264192.6804
  -3772178.93047  -2835834.03545  22410971.8984                   22410969.5594
  -8605538.02747  -6687589.71946  21218509.4774                   21218504.1254
 -14937776.55948 -11623676.77745  21634599.1804                   21634596.1174
 -20034728.09048 -15603614.84447  20315708.0084                   20315704.5664
 -15917974.41048 -12390148.32446  21850105.0084                   21850103.9614
 11  8 18  1 51 30.0000000  0  8G29G12G04G10G02G30G05G25
 -11878566.03147  -9248218.11344  23633894.5234                   23633892.1604
 -14774876.35248 -11499009.08646  20934971.7114                   20934968.5314
  14216755.84846  11094548.87143  24288288.9614                   24288288.1414
  -3637765.19947  -2731096.05545  22436549.8984                   22436547.1994
  -8526550.31648  -6626040.83246  21233540.3134                   21233535.3244
 -14909352.49248 -11601528.18445  21640007.6024                   21640005.0354
 -19998430.74248 -15575331.16047  20322615.0084                   20322611.8674
 -15908222.63348 -12382549.52746  21851960.5864                   21851959.7154
 11  8 18  1 52  0.0000000  0  8G29G12G04G10G02G30G05G25
 -11914852.09047  -9276492.91044  23626989.1644                   23626987.3834
 -14698064.73448 -11439155.88746  20949589.0394                   20949585.0594
  14343326.29346  11193175.13743  24312375.5704                   24312373.8984
  -3502999.89147  -2626084.13745  22462194.8914                   22462192.4964
  -8447442.35248  -6564398.24246  21248593.8594                   21248588.6524
 -14880316.49648 -11578902.75845  21645533.0004                   21645530.0824
 -19961551.62148 -15546594.16047  20329632.9614                   20329629.6914
 -15897915.77348 -12374518.20746  21853922.0554                   21853921.0664
 11  8 18  1 52 30.0000000  0  8G29G12G04G10G02G30G05G25
 -11951151.13347  -9304777.82044  23620081.4924                   23620079.9224
 -14620692.51648 -11378865.84846  20964312.0864                   20964308.8914
  14469846.74246  11291762.48043  24336451.6804                   24336449.7974
  -3367883.81347  -2520798.87145  22487906.8284                   22487904.0434
  -8368212.62148  -6502660.77046  21263671.0474                   21263665.7584
 -14850666.05948 -11555798.54745  21651175.3914                   21651172.6524
 -19924088.59848 -15517402.16847  20336762.0164                   20336758.8444
 -15887050.38348 -12366051.67646  21855989.6644                   21855988.7704
 11  8 18  1 53  0.0000000  0  9G26G29G12G04G10G02G30G05G25
  -9510545.32056  -7401102.23853  24879054.6644                   24879055.2664
 -11987463.87147  -9333073.41444  23613171.8364                   23613169.2074
 -14542763.03148 -11318141.58246  20979141.4064                   20979138.3714
  14596314.75047  11390309.04343  24360517.8284                   24360516.6484
  -3232421.85947  -2415244.09044  22513684.3054                   22513681.0044
  -8288864.66048  -6440831.15646  21278770.4064                   21278765.3874
 -14820403.04348 -11532217.01645  21656934.1884                   21656931.1604
 -19886043.95348 -15487756.96147  20344001.3834                   20343998.5984
 -15875627.50048 -12357150.74246  21858163.2344                   21858162.3874
 11  8 18  1 53 30.0000000  0  9G26G29G12G04G10G02G30G05G25
  -9556114.71146  -7436610.71943  24870383.9304                   24870382.9064
 -12023787.09447  -9361377.18744  23606259.9614                   23606257.2074
 -14464275.91848 -11256982.78946  20994076.9454                   20994073.8134
  14722731.83247  11488816.02043  24384574.6884                   24384571.3984
  -3096614.85547  -2309420.43044  22539527.6174                   22539524.7274
  -8209396.33248  -6378907.75846  21293892.5164                   21293887.7774
 -14789525.15648 -11508156.35945  21662809.9694                   21662807.7154
 -19847415.70348 -15457657.00047  20351352.4614                   20351348.9344
 -15863643.94548 -12347812.92246  21860443.6724                   21860442.7934
 11  8 18  1 54  0.0000000  0  9G26G29G12G04G10G02G30G05G25
  -9601808.03546  -7472215.76243  24861688.8284                   24861687.9224
 -12060118.75847  -9389687.56244  23599345.7344                   23599343.1804
 -14385231.69948 -11195389.89846  21009118.6024                   21009115.1254
  14849098.59447  11587283.66843  24408620.6174                   24408618.3754
  -2960465.02747  -2203329.64145  22565435.7584                   22565433.1804
  -8129807.71148  -6316890.62946  21309037.7814                   21309032.9064
 -14758031.39548 -11483615.78545  21668803.3444                   21668800.5234
 -19808203.48848 -15427101.99247  20358814.1954                   20358810.7624
 -15851097.86748 -12338036.78146  21862830.9614                   21862830.6914
 11  8 18  1 54 30.0000000  0  9G26G29G12G04G10G02G30G05G25
  -9647623.89846  -7507916.28943  24852970.0084                   24852969.3244
 -12096459.34047  -9418004.85944  23592430.0164                   23592427.9414
 -14305632.52048 -11133364.55946  21024265.7584                   21024262.7034
  14975412.93746  11685710.39143  24432656.9924                   24432655.3554
  -2823976.53547  -2096974.95345  22591408.8054                   22591406.3554
  -8050100.96148  -6254781.45346  21324205.5474                   21324200.5164
 -14725922.99248 -11458596.27345  21674912.9694                   21674910.6994
 -19768409.09848 -15396093.35247  20366386.5944                   20366383.2774
 -15837989.56348 -12327822.53546  21865325.4774                   21865325.1254
 11  8 18  1 55  0.0000000  0  9G26G29G12G04G10G02G30G05G25
  -9693565.07846  -7543714.46943  24844226.9454                   24844226.5984
 -12132813.17246  -9446332.50044  23585511.9614                   23585510.3054
 -14225486.26648 -11070912.93046  21039517.0944                   21039513.8954
  15101668.93046  11784091.60943  24456683.1334                   24456681.3594
  -2687158.48447  -1990363.48444  22617443.7734                   22617442.0204
  -7970282.68848  -6192585.37146  21339394.3284                   21339389.0594
 -14693205.71548 -11433102.30945  21681139.1334                   21681136.3834
 -19728038.91448 -15364636.03947  20374068.8054                   20374065.3984
 -15824323.92648 -12317173.99246  21867925.9454                   21867925.3594
 11  8 18  1 55 30.0000000  0  9G26G29G12G04G10G02G30G05G25
  -9739622.66846  -7579603.34444  24835462.7734                   24835462.5864
 -12169172.82846  -9474664.69944  23578593.0084                   23578591.1914
 -14144788.02348 -11008031.18746  21054873.6564                   21054870.4024
  15227872.20346  11882431.87143  24480699.3524                   24480696.6484
  -2550007.28147  -1883492.41844  22643543.0784                   22643540.6214
  -7890347.24248  -6130297.99246  21354605.3594                   21354600.4924
 -14659873.05148 -11407128.81245  21687482.0944                   21687479.0664
 -19687086.66848 -15332725.17247  20381861.6564                   20381858.6764
 -15810093.52048 -12306085.37546  21870634.1954                   21870633.4104
 11  8 18  1 56  0.0000000  0  9G26G29G12G04G10G02G30G05G25
  -9785794.18846  -7615580.99643  24826676.7194                   24826676.4064
 -12205537.44947  -9503000.77044  23571673.3674                   23571671.1564
 -14063539.07048 -10944720.31646  21070334.6804                   21070331.6134
  15354022.36346  11980730.76643  24504704.4304                   24504702.3674
  -2412525.83647  -1776364.00044  22669704.7274                   22669702.7034
  -7810295.36748  -6067919.89846  21369838.8204                   21369833.5514
 -14625925.17648 -11380675.92245  21693942.4694                   21693940.1684
 -19645553.05948 -15300361.30147  20389765.4534                   20389761.9534
 -15795297.60548 -12294556.10546  21873449.3834                   21873448.7854
 11  8 18  1 56 30.0000000  0  9G26G29G12G04G10G02G30G05G25
  -9832077.91846  -7651646.07443  24817868.5634                   24817868.8244
 -12241907.00047  -9531340.66444  23564752.9614                   23564750.3524
 -13981742.50448 -10880982.72746  21085900.1644                   21085896.9694
  15480117.88745  12078987.04343  24528699.4924                   24528698.5004
  -2274718.75847  -1668981.87544  22695928.9844                   22695926.5394
  -7730129.31648  -6005452.83246  21385094.2424                   21385088.4614
 -14591363.21948 -11353744.52045  21700519.4224                   21700516.6564
 -19603439.47748 -15267545.49647  20397779.2424                   20397776.0744
 -15779936.45748 -12282586.37946  21876372.5864                   21876372.1024
 11  8 18  1 57  0.0000000  0  9G26G29G12G04G10G02G30G05G25
  -9878467.78546  -7687793.86343  24809040.7114                   24809040.7384
 -12278277.21547  -9559681.08245  23557831.2034                   23557829.4494
 -13899396.78948 -10816817.23446  21101569.8204                   21101566.4344
  15606161.68054  12177202.88752  24552682.2274                   24552684.2584
  -2136585.89147  -1561345.87944  22722214.7344                   22722212.1094
  -7649846.22348  -5942894.54346  21400371.2814                   21400366.2234
 -14556184.21948 -11326332.30945  21707213.1334                   21707210.7854
 -19560743.60248 -15234275.95747  20405903.9064                   20405900.4224
 -15764006.10948 -12270173.12546  21879404.0554                   21879403.3244
 11  8 18  1 57 30.0000000  0  9G26G29G12G04G10G02G30G05G25
  -9924967.50046  -7724027.26343  24800192.1334                   24800191.8954
 -12314653.10247  -9588025.91044  23550909.7114                   23550907.0204
 -13816509.62148 -10752229.84046  21117342.9924                   21117339.6564
  15732146.64856  12275372.89553  24576659.9454                   24576657.8914
  -1998136.29347  -1453463.05544  22748560.8364                   22748557.7894
  -7569453.02747  -5880250.50046  21415669.5784                   21415664.6454
 -14520394.38748 -11298444.11345  21714024.1094                   21714021.7424
 -19517472.29348 -15200558.03547  20414138.1884                   20414134.9184
 -15747511.94948 -12257320.53146  21882542.7194                   21882542.3794
 11  8 18  1 58  0.0000000  0  9G26G29G12G04G10G02G30G05G25
 -11546992.04746  -8987942.30943  24491531.0314                   24491531.0394
 -13926451.08647 -10843972.35244  23244193.8914                   23244191.3134
 -15308496.21148 -11914816.79746  20833427.1954                   20833424.0864
  14282660.25846  11145903.02044  24300830.9144                   24300830.1054
  -3434784.70347  -2572929.37144  22475175.5864                   22475173.3484
  -9064364.29748  -7045116.41046  21131197.4534                   21131192.3834
 -16059409.01648 -12497676.27045  21421159.2734                   21421156.7704
 -21049040.71948 -16393987.95347  20122690.6414                   20122687.2234
 -17305868.91048 -13471624.65246  21585997.3594                   21585996.8484
 11  8 18  1 58 30.0000000  0  9G26G29G12G04G10G02G30G05G25
 -11593691.23445  -9024331.05542  24482644.1254                   24482644.9304
 -13962822.94147 -10872314.02044  23237272.7734                   23237270.5864
 -15224519.23848 -11849380.19546  20849407.3914                   20849404.0164
  14408538.47746  11243989.98844  24324784.8984                   24324783.3554
  -3295699.30147  -2464551.11344  22501642.6724                   22501639.6724
  -8983741.70748  -6982293.60546  21146539.4144                   21146534.2664
 -16022386.32848 -12468827.40245  21428204.4064                   21428201.8634
 -21004608.06648 -16359365.08247  20131145.8204                   20131142.2504
 -17288233.00048 -13457882.36346  21589353.5234                   21589352.8094
 11  8 18  1 59  0.0000000  0  9G26G29G12G04G10G02G30G05G25
 -11640490.40645  -9060797.82042  24473737.5474                   24473739.9224
 -13999195.53147 -10900656.24644  23230352.0314                   23230349.8594
 -15140004.21548 -11783524.33246  20865489.6254                   20865486.8524
  14534357.98046  11342031.20343  24348727.1024                   24348726.3244
  -3156304.85247  -2355932.07444  22528168.5474                   22528165.8754
  -8903010.11348  -6919385.86746  21161902.0784                   21161896.8364
 -15984751.89548 -12439501.85945  21435366.1174                   21435363.3094
 -20959600.04348 -16324293.86347  20139710.1954                   20139706.8594
 -17270029.62148 -13443697.89546  21592817.3674                   21592816.9064
 11  8 18  1 59 30.0000000  0  9G26G29G12G04G10G02G30G05G25
 -11687383.15245  -9097337.53942  24464814.9384                   24464815.7974
 -14035564.09846 -10928995.32844  23223430.9694                   23223428.1994
 -15054949.54748 -11717247.97746  20881675.5474                   20881672.2814
  14660122.38746  11440029.43443  24372658.7114                   24372658.0514
  -3016600.72347  -2247071.70344  22554753.4144                   22554751.0824
  -8822166.79748  -6856391.07846  21177286.3834                   21177281.0824
 -15946502.28948 -12409696.95345  21442644.9304                   21442642.4774
 -20914013.87948 -16288772.15647  20148385.3204                   20148381.6094
 -17251254.25448 -13429067.72746  21596390.4224                   21596389.2974
 11  8 18  2  0  0.0000000  0  9G26G29G12G04G10G02G30G05G25
 -11734364.41446  -9133946.12142  24455873.7664                   24455875.6134
 -14071925.42246 -10957328.77744  23216511.2034                   23216509.3054
 -14969354.80948 -11650550.77746  20897963.6484                   20897960.0634
  14785833.12147  11537985.91043  24396582.1174                   24396579.3404
  -2876588.18047  -2137971.02744  22581396.9454                   22581394.5704
  -8741210.11348  -6793307.93446  21192691.6174                   21192686.5514
 -15907635.78148 -12379411.32845  21450040.7814                   21450037.8674
 -20867848.19948 -16252798.87947  20157170.2344                   20157166.9494
 -17231904.31248 -13413989.82846  21600072.0554                   21600071.4614
 11  8 18  2  0 30.0000000  0  9G26G29G12G04G10G02G30G05G25
 -11781430.39146  -9170620.85242  24446918.2814                   24446918.6644
 -14108277.39546 -10985654.95344  23209593.4304                   23209591.9844
 -14883220.37148 -11583433.03946  20914354.7814                   20914351.2584
  14911490.92647  11635901.11744  24420493.7664                   24420492.2154
  -2736269.15647  -2028631.51644  22608099.2114                   22608096.4414
  -8660139.37148  -6730135.91446  21208118.7344                   21208113.7504
 -15868151.52748 -12348644.35545  21457554.4454                   21457551.6914
 -20821102.64548 -16216373.73847  20166065.4844                   20166062.2704
 -17211978.02048 -13398462.80146  21603864.0944                   21603863.4884
 11  8 18  2  1  0.0000000  0  9G26G29G12G04G10G02G30G05G25
 -11828585.37146  -9207364.88343  24437945.0314                   24437945.1334
 -14144625.47346 -11013978.09844  23202677.0784                   23202674.6094
 -14796555.57448 -11515902.04346  20930846.5234                   20930842.9694
  15037088.36747  11733769.30544  24444394.3524                   24444392.6214
  -2595653.56647  -1919060.93444  22634857.0234                   22634854.6604
  -8578962.83248  -6666881.45746  21223566.3674                   21223561.3794
 -15828056.86348 -12317401.73845  21465183.8834                   21465181.2034
 -20773784.85548 -16179502.71147  20175069.6414                   20175066.3204
 -17191481.66848 -13382491.58646  21607764.3524                   21607763.5354
 11  8 18  2  1 30.0000000  0  9G26G29G12G04G10G02G30G05G25
 -11875816.30146  -9244168.14843  24428957.0704                   24428957.2814
 -14180958.42646 -11042289.48044  23195762.8524                   23195760.7464
 -14709351.83648 -11447951.07846  20947441.0704                   20947437.6294
  15162635.10247  11831597.93444  24468284.8444                   24468283.3874
  -2454734.63747  -1809253.96544  22661672.7974                   22661670.4614
  -8497670.91848  -6603537.09046  21239036.0944                   21239030.5084
 -15787342.05948 -12285675.91045  21472931.7734                   21472928.8284
 -20725885.57048 -16142178.57047  20184184.7274                   20184181.2304
 -17170404.70348 -13366067.94546  21611775.0394                   21611774.4064
 11  8 18  2  2  0.0000000  0  9G26G29G12G04G10G02G30G05G25
 -11923129.02746  -9281035.03943  24419953.8444                   24419952.6524
 -14217283.69547 -11070594.86344  23188850.3444                   23188848.2344
 -14621619.56648 -11379588.28146  20964135.6094                   20964132.1334
  15288122.20346  11929380.12543  24492163.9304                   24492163.1884
  -2313523.83247  -1699219.59844  22688544.7194                   22688541.8094
  -8416272.87147  -6540110.02346  21254525.0084                   21254519.9694
 -15746016.04748 -12253473.81345  21480796.0314                   21480793.1024
 -20677413.94148 -16104408.44547  20193408.3134                   20193405.1174
 -17148755.04348 -13349198.04746  21615895.3204                   21615894.4024
 11  8 18  2  2 30.0000000  0  9G26G29G12G04G10G02G30G05G25
 -11970515.06346  -9317959.12143  24410936.4064                   24410935.5084
 -14253594.55947 -11098889.03544  23181941.2894                   23181937.9454
 -14533354.95748 -11310810.66446  20980931.7344                   20980928.3674
  15413554.77346  12027119.74242  24516032.1484                   24516032.2774
  -2172018.89147  -1588955.99644  22715472.6024                   22715469.1374
  -8334764.02047  -6476596.59446  21270035.1094                   21270030.2774
 -15704073.83248 -12220791.55545  21488777.2734                   21488774.0434
 -20628365.55548 -16066188.90247  20202742.1024                   20202738.9654
 -17126526.71148 -13331877.22746  21620124.6954                   21620124.0904
 11  8 18  2  3  0.0000000  0  9G26G29G12G04G10G02G30G05G25
 -12017973.64847  -9354939.70744  24401905.2814                   24401905.3834
 -14289891.56347 -11127172.36345  23175033.7034                   23175031.4344
 -14444561.94148 -11241621.30946  20997828.6334                   20997824.9884
  15538930.73446  12124815.29342  24539890.1724                   24539891.0554
  -2030224.62147  -1478466.94544  22742454.8914                   22742451.6684
  -8253146.87547  -6412998.80146  21285566.9844                   21285561.8364
 -15661517.62548 -12187630.85945  21496875.3284                   21496872.7584
 -20578742.98048 -16027521.94547  20212184.7894                   20212181.5394
 -17103720.95748 -13314106.47746  21624464.4304                   21624464.1254
 11  8 18  2  3 30.0000000  0  9G26G29G12G04G10G02G30G05G25
 -12065502.18847  -9391974.78143  24392861.5004                   24392860.6564
 -14326174.13747 -11155444.47745  23168129.6954                   23168127.1294
 -14355243.24648 -11172022.32846  21014825.4304                   21014821.8594
  15664248.711 6                  24563738.578
  -1888144.57847  -1367755.24644  22769491.7974                   22769488.5744
  -8171422.90247  -6349317.76646  21301118.7974                   21301113.4804
 -15618348.55148 -12153992.61345  21505090.4844                   21505087.9264
 -20528547.87148 -15988408.84847  20221736.7114                   20221733.5554
 -17080337.99648 -13295885.95746  21628914.0164                   21628913.4024
 11  8 18  2  4  0.0000000  0  9G26G29G12G04G10G02G30G05G25
 -12113098.14546  -9429062.39143  24383804.2584                   24383803.4774
 -14362441.07447 -11183704.39845  23161228.1094                   23161226.0474
 -14265400.72748 -11102015.16846  21031921.6484                   21031918.5354
  15789508.49246  12204879.88753  24587574.8364                   24587571.4844
  -1745782.00447  -1256823.36744  22796582.0944                   22796579.2504
  -8089592.31347  -6285553.65246  21316690.0474                   21316685.1724
 -15574567.15647 -12119877.23445  21513421.6174                   21513419.0164
 -20477780.88348 -15948850.13747  20231397.1724                   20231394.0904
 -17056377.35248 -13277215.29746  21633473.9694                   21633473.1684
 11  8 18  2  4 30.0000000  0  9G26G29G12G04G10G02G30G05G25
 -12160765.19946  -9466205.37543  24374733.0784                   24374732.3874
 -14398698.10247 -11211956.59445  23154328.1334                   23154326.2194
 -14175042.98448 -11031606.55146  21049116.5634                   21049113.0044
  15914703.13346  12302434.15243  24611397.5164                   24611396.0864
  -1603146.87147  -1145679.09444  22823724.5314                   22823722.1414
  -8007662.77348  -6221712.43846  21332281.2344                   21332275.7464
 -15530180.69948 -12085290.38346  21521868.1884                   21521865.3634
 -20426450.02048 -15908852.04747  20241165.2114                   20241161.7704
 -17031845.36348 -13258099.44946  21638142.5554                   21638141.4224
 11  8 18  2  5  0.0000000  0  9G26G29G12G04G10G02G30G05G25
 -12208489.37146  -9503392.88343  24365650.6414                   24365650.9064
 -14434932.31347 -11240191.00445  23147433.1094                   23147431.0234
 -14084160.89848 -10960789.34046  21066410.3284                   21066407.1214
  16039843.34446  12399946.01642  24635211.4694                   24635210.1094
  -1460230.73447  -1034315.87544  22850921.5784                   22850918.5274
  -7925623.83648  -6157785.98846  21347893.0164                   21347887.3014
 -15485178.55948 -12050223.77745  21530432.0004                   21530428.7034
 -20374544.92248 -15868406.48847  20251042.1254                   20251038.6254
 -17006730.36748 -13238529.31346  21642921.4384                   21642920.7344
 11  8 18  2  5 30.0000000  0  8G26G29G12G10G02G30G05G25
 -12256278.50446  -9540630.97343  24356556.2424                   24356556.6914
 -14471153.25047 -11268415.10945  23140541.1484                   23140538.1414
 -13992766.97648 -10889573.30346  21083802.0864                   21083798.6884
  -1317047.76147   -922744.73944  22878167.1414                   22878165.2194
  -7843486.84448  -6093783.11046  21363522.9224                   21363517.4964
 -15439572.01548 -12014686.20745  21539110.2814                   21539107.6884
 -20322077.16148 -15827522.50347  20261026.7894                   20261023.0084
 -16981042.73348 -13218512.96346  21647809.1724                   21647808.6174
 11  8 18  2  6  0.0000000  0  8G26G29G12G10G02G30G05G25
 -12304115.08646  -9577906.06643  24347453.0634                   24347453.1454
 -14507345.44947 -11296616.77344  23133653.6644                   23133651.0084
 -13900848.91048 -10817948.84446  21101293.4844                   21101290.2624
  -1173586.07847   -810956.41444  22905468.0704                   22905464.7464
  -7761238.01247  -6029693.08646  21379174.2814                   21379168.9224
 -15393347.23448 -11978666.89146  21547906.7424                   21547904.0704
 -20269033.57848 -15786189.82047  20271120.6094                   20271116.9654
 -16954767.68748 -13198038.89546  21652809.6334                   21652808.5664
 11  8 18  2  6 30.0000000  0  8G26G29G12G10G02G30G05G25
 -12352003.13346  -9615221.25843  24338340.5864                   24338340.9144
 -14543514.19947 -11324800.19544  23126771.3054                   23126768.2384
 -13808415.78148 -10745923.02746  21118883.3284                   21118879.5594
  -1029855.81347   -698958.80544  22932818.2734                   22932815.5514
  -7678884.66048  -5965521.63746  21394845.5704                   21394840.4264
 -15346511.71948 -11942171.67246  21556819.0704                   21556816.5904
 -20215421.88748 -15744414.45347  20281322.3134                   20281319.0514
 -16927911.64148 -13177112.10246  21657920.0474                   21657919.1374
 11  8 18  2  7  0.0000000  0  8G26G29G12G10G02G30G05G25
 -12399934.04746  -9652569.85543  24329219.5394                   24329219.9224
 -14579653.06347 -11352960.31645  23119893.7034                   23119891.3984
 -13715464.01248 -10673493.07846  21136571.4064                   21136568.0434
   -885854.81647   -586750.22344  22960220.8524                   22960218.2854
  -7596422.28148  -5901265.21546  21410537.0314                   21410532.2734
 -15299060.72748 -11905196.87946  21565848.6174                   21565846.2584
 -20161237.50848 -15702192.84447  20291633.6954                   20291630.0634
 -16900468.95348 -13155728.18846  21663142.2114                   21663141.5084
 11  8 18  2  7 30.0000000  0  8G26G29G12G10G02G30G05G25
 -12447914.76246  -9689957.20343  24320089.5164                   24320088.4144
 -14615770.13347 -11381103.46545  23113020.9924                   23113018.5704
 -13622005.54348 -10600668.29746  21154355.8204                   21154352.1024
   -741595.80547   -474340.60944  22987672.7194                   22987669.8324
  -7513861.16048  -5836931.85946  21426248.1804                   21426243.0514
 -15251004.62548 -11867750.55545  21574993.2424                   21574990.8634
 -20106491.16448 -15659533.33247  20302051.6094                   20302047.5784
 -16872448.94148 -13133894.41446  21668474.1484                   21668473.1414
 11  8 18  2  8  0.0000000  0  8G26G29G12G10G02G30G05G25
 -12495933.88747  -9727374.55943  24310951.5554                   24310950.1914
 -14651855.78547 -11409222.12944  23106153.9384                   23106151.8164
 -13528033.84448 -10527443.60946  21172238.1024                   21172234.5004
   -597073.28947   -361725.66444  23015174.1724                   23015171.6994
  -7431193.38747  -5772515.38746  21441979.1174                   21441974.3444
 -15202335.63348 -11829826.65646  21584254.9224                   21584252.0044
 -20051175.70748 -15616430.36347  20312577.4924                   20312573.7584
 -16843842.85248 -13111603.95746  21673917.8914                   21673916.8284
 11  8 18  2  8 30.0000000  0  8G26G29G12G10G02G30G05G25
 -12543998.15647  -9764827.10243  24301804.2504                   24301803.8204
 -14687918.15647 -11437322.62944  23099291.2114                   23099288.8204
 -13433560.71148 -10453828.17646  21190215.7424                   21190211.9414
   -452299.90247   -248915.21944  23042724.0394                   23042720.8484
  -7348429.21948  -5708023.80946  21457728.9304                   21457723.9384
 -15153064.13348 -11791433.27346  21593630.7814                   21593628.7034
 -19995301.70348 -15572892.16447  20323209.9144                   20323206.2584
 -16814660.17248 -13088864.21146  21679471.0944                   21679470.4654
 11  8 18  2  9  0.0000000  0  8G26G29G12G10G02G30G05G25
 -12592095.89847  -9802305.71943  24292651.2194                   24292651.1414
 -14723947.33647 -11465397.29344  23092435.2424                   23092432.1564
 -13338579.62948 -10379816.94146  21208289.9224                   21208286.3914
   -307270.09447   -135904.96944  23070322.1174                   23070319.3164
  -7265560.62147  -5643450.86346  21473498.0704                   21473492.9964
 -15103182.44547 -11752564.41446  21603122.8364                   21603120.5164
 -19938861.98448 -15528913.14847  20333949.9694                   20333946.7584
 -16784892.09448 -13065668.32046  21685135.9924                   21685135.0394
 11  8 18  2  9 30.0000000  0  8G26G29G12G10G02G30G05G25
 -12640227.79347  -9839810.96943  24283492.4384                   24283492.6214
 -14759945.74647 -11493447.95744  23085584.8204                   23085582.3364
 -13243096.45348 -10305414.46946  21226459.8674                   21226456.5984
   -161990.55647    -22700.13944  23097967.5164                   23097964.8524
  -7182592.28148  -5578800.18046  21489286.3594                   21489281.5984
 -15052695.10547 -11713223.60945  21612730.2504                   21612727.7384
 -19881861.05148 -15484496.82447  20344796.7974                   20344793.6564
 -16754542.19948 -13042019.05546  21690910.9774                   21690910.3014
 11  8 18  2 10  0.0000000  0  8G26G29G12G10G02G30G05G25
 -12688392.83647  -9877342.04743  24274327.1724                   24274326.6024
 -14795914.12147 -11521475.20745  23078740.5234                   23078738.3484
 -13147115.68048 -10230624.24646  21244724.2424                   21244720.9344
    -16466.31347     90695.39144  23125660.1024                   23125657.3324
  -7099526.43048  -5514073.52746  21505093.2734                   21505088.3054
 -15001604.93448 -11673413.07845  21622452.6724                   21622449.9774
 -19824302.16848 -15439645.72747  20355750.0004                   20355746.7234
 -16723612.17648 -13017917.73046  21696796.8594                   21696796.2274
 11  8 18  2 10 30.0000000  0  8G26G29G12G10G02G30G05G25
 -12736587.52747  -9914896.22743  24265155.8984                   24265155.3054
 -14831850.27747 -11549477.34845  23071901.9144                   23071900.0514
 -13050638.86348 -10155447.50846  21263083.5864                   21263079.9344
    129299.93046    204279.46943  23153398.2344                   23153395.3984
  -7016363.00048  -5449270.84446  21520919.1484                   21520913.3054
 -14949912.14848 -11633132.97746  21632289.4924                   21632286.5784
 -19766186.19148 -15394360.53147  20366808.8134                   20366805.5944
 -16692101.45348 -12993363.92246  21702793.4534                   21702792.7584
 11  8 18  2 11  0.0000000  0  8G26G29G12G10G02G30G05G25
 -12784804.78947  -9952467.98443  24255980.3984                   24255979.5124
 -14867748.89547 -11577450.26245  23065070.6094                   23065068.2664
 -12953663.82048 -10079882.53946  21281537.0164                   21281533.6524
    275309.28946    318052.98844  23181183.0704                   23181180.5664
  -6933098.57848  -5384389.45746  21536763.7034                   21536758.6334
 -14897613.67648 -11592380.90645  21642241.4454                   21642238.9774
 -19707510.16048 -15348638.93447  20377974.7114                   20377971.1994
 -16660005.84448 -12968354.34046  21708901.1174                   21708900.1844
 11  8 18  2 11 30.0000000  0  8G26G29G12G10G02G30G05G25
 -12833042.58247  -9990055.71143  24246800.7344                   24246800.1884
 -14903609.80547 -11605393.78945  23058246.7734                   23058244.0084
 -12856194.22748 -10003932.20346  21300084.6024                   21300081.0634
    421557.60946    432012.73843  23209013.0634                   23209009.9494
  -6849734.79748  -5319430.66446  21552627.3444                   21552621.9614
 -14844711.59448 -11551158.48845  21652308.4774                   21652305.4534
 -19648276.46948 -15302482.78947  20389246.3284                   20389242.8834
 -16627326.41048 -12942889.82846  21715119.6884                   21715118.9384
 11  8 18  2 12  0.0000000  0  8G26G29G12G10G02G30G05G25
 -12881297.10246 -10027656.49243  24237617.5944                   24237617.1414
 -14939430.24647 -11633305.78945  23051430.5084                   23051427.5164
 -12758231.29348  -9927597.44546  21318726.5164                   21318723.0044
    568043.10246    546157.26244  23236888.5784                   23236885.7934
  -6766271.38348  -5254394.21946  21568510.0784                   21568504.5824
 -14791205.62148 -11509465.52346  21662490.3054                   21662487.4184
 -19588485.23048 -15255892.19547  20400624.3054                   20400621.0554
 -16594061.87548 -12916969.39846  21721449.4844                   21721448.7624
 11  8 18  2 12 30.0000000  0  8G26G29G12G10G02G30G05G25
 -12929567.24647 -10065269.50843  24228433.5234                   24228431.8714
 -14975211.29747 -11661187.08245  23044621.1334                   23044618.4614
 -12659779.43848  -9850881.72346  21337461.4144                   21337457.7774
    714760.07846    660482.18744  23264807.3984                   23264805.4414
  -6682711.04748  -5189282.25446  21584410.6724                   21584405.2854
 -14737099.16448 -11467304.65245  21672786.4534                   21672783.8984
 -19528140.15248 -15208870.03147  20412107.7274                   20412104.3014
 -16560214.68848 -12890594.95346  21727890.5084                   21727889.6134
 11  8 18  2 13  0.0000000  0  8G26G29G12G10G02G30G05G25
 -12977851.19546 -10102893.21543  24219244.1254                   24219243.4534
 -15010952.80147 -11689037.55545  23037820.2034                   23037817.3984
 -12560842.18448  -9773787.76246  21356288.3204                   21356285.2544
    861704.58246    774984.34444  23292770.5314                   23292767.4454
  -6599055.55148  -5124096.14546  21600329.9924                   21600324.5124
 -14682394.34848 -11424677.52746  21683196.2974                   21683194.0004
 -19467243.63748 -15161418.18847  20423695.8134                   20423692.3794
 -16525785.89548 -12863767.30946  21734442.0004                   21734441.2664
 11  8 18  2 13 30.0000000  0  8G26G29G12G10G02G30G05G25
 -13026142.80546 -10140522.94144  24210054.9064                   24210053.4224
 -15046650.04747 -11716853.53945  23031026.8914                   23031024.2734
 -12461418.96148  -9696315.12546  21375207.6804                   21375205.0084
   1008876.54346    889663.81644  23320776.8134                   23320773.3554
  -6515302.40248  -5058833.93446  21616267.8054                   21616262.3954
 -14627089.10947 -11381582.52745  21693720.6564                   21693717.5704
 -19405793.94148 -15113535.28147  20435389.5004                   20435385.9844
 -16490772.50048 -12836484.12946  21741104.8984                   21741104.1914
 11  8 18  2 14  0.0000000  0  8G26G29G12G10G02G30G05G25
 -13074436.34446 -10178154.12943  24200864.8134                   24200864.1524
 -15082298.78947 -11744631.72345  23024243.1804                   23024240.6024
 -12361508.99248  -9618463.20346  21394220.4454                   21394216.8634
   1156275.74247   1004520.33644  23348826.0004                   23348823.0354
  -6431449.18448  -4993493.76646  21632224.3204                   21632219.1094
 -14571181.68847 -11338018.31645  21704359.3204                   21704356.4454
 -19343789.46548 -15065220.09047  20447188.0474                   20447184.7274
 -16455171.68848 -12808743.21146  21747879.5234                   21747878.7704
 11  8 18  2 14 30.0000000  0  8G26G29G12G10G02G30G05G25
 -13122736.61346 -10215790.57443  24191672.7664                   24191672.6564
 -15117905.61747 -11772377.24245  23017466.7894                   23017465.1414
 -12261122.50448  -9540239.97746  21413322.9774                   21413319.8794
   1303891.25846   1119545.37544  23376915.7664                   23376913.1454
  -6347504.46948  -4928082.28146  21648198.4384                   21648192.8524
 -14514681.23447 -11293991.99645  21715111.1564                   21715108.8204
 -19281239.53148 -15016479.85947  20459091.2274                   20459087.4414
 -16418991.57448 -12780550.90646  21754764.3134                   21754763.6254
 11  8 18  2 15  0.0000000  0  8G26G29G12G10G02G30G05G25
 -14746454.48046 -11481025.12143  23882689.9384                   23882689.0204
 -16728882.51247 -13027683.87545  22710908.2734                   22710905.9884
 -13735671.16448 -10689238.93446  21132726.0234                   21132722.6844
   -123687.27747      7146.52344  23105256.7814                   23105253.8094
  -7838878.47748  -6090191.89146  21364399.3284                   21364394.0044
 -16032999.34847 -12477097.03945  21426184.8834                   21426182.0824
 -20793555.94548 -16194908.21147  20171306.9064                   20171303.9064
 -17957643.49248 -13979500.43746  21461968.2424                   21461967.8164
 11  8 18  2 15 30.0000000  0  8G26G29G12G10G02G30G05G25
 -14794746.25046 -11518654.95343  23873500.7734                   23873498.8954
 -16764388.60247 -13055350.90245  22704152.3134                   22704148.5124
 -13634326.62948 -10610269.17646  21152011.3834                   21152008.0474
     24364.56347    122511.60544  23133430.3524                   23133427.0864
  -7754739.66848  -6024629.16046  21380410.3134                   21380405.3444
 -15975303.54748 -12432139.27746  21437163.7034                   21437161.0944
 -20729907.25848 -16145311.81647  20183419.0784                   20183415.2664
 -17920292.50848 -13950395.76246  21469076.2894                   21469075.1374
 11  8 18  2 16  0.0000000  0  8G26G29G12G10G02G30G05G25
 -14843029.85246 -11556278.43743  23864311.6884                   23864311.2194
 -16799842.71947 -13082977.44945  22697404.6884                   22697402.3404
 -13532507.45748 -10530929.56246  21171386.8444                   21171383.5204
    172629.09047    238042.38344  23161643.2274                   23161641.5904
  -7670505.36348  -5958992.02046  21396439.4534                   21396434.3874
 -15917012.61748 -12386717.78145  21448256.6564                   21448253.9804
 -20665712.26248 -16095289.72747  20195634.5704                   20195631.3484
 -17882357.14548 -13920835.72346  21476294.9224                   21476294.2194
 11  8 18  2 16 30.0000000  0  8G26G29G12G10G02G30G05G25
 -14891301.46146 -11593892.56243  23855125.8984                   23855125.2194
 -16835242.57847 -13110561.69545  22690668.2344                   22690666.3954
 -13430215.06648 -10451221.20346  21190852.3834                   21190848.8554
    321104.05547    353737.15244  23189897.5634                   23189895.3284
  -7586175.40248  -5893280.35946  21412487.3364                   21412482.2734
 -15858126.93448 -12340832.84846  21459462.4224                   21459459.3914
 -20600971.11348 -16044842.06247  20207954.7584                   20207951.1094
 -17843836.72748 -13890819.81246  21483624.9384                   21483624.5004
 11  8 18  2 17  0.0000000  0  8G26G29G12G10G02G30G05G25
 -14939556.27346 -11631493.62944  23845943.4774                   23845943.2664
 -16870585.12147 -13138101.25845  22683942.5004                   22683940.5744
 -13327450.34848 -10371144.80146  21210407.7504                   21210404.3284
    469788.52747    469595.19143  23218191.5704                   23218188.5664
  -7501748.59848  -5827493.22746  21428552.9384                   21428547.9534
 -15798645.98848 -12294484.07845  21470780.5704                   21470778.1994
 -20535683.63348 -15993968.68047  20220378.5164                   20220374.7854
 -17804729.77048 -13860346.86746  21491066.9534                   21491066.2704
 11  8 18  2 17 30.0000000  0  8G26G29G12G10G02G30G05G25
 -14987793.78946 -11669081.21144  23836763.9144                   23836763.1094
 -16905871.63747 -13165597.18045  22677227.9534                   22677226.1954
 -13224218.52748 -10290704.41446  21230052.0704                   21230048.8634
    618676.38747    585611.68043  23246523.4454                   23246520.4224
  -7417228.09048  -5761633.08246  21444636.7894                   21444631.3834
 -15738573.97748 -12247674.72745  21482212.0554                   21482209.3134
 -20469854.46948 -15942673.21147  20232905.4384                   20232902.2114
 -17765039.38348 -13829419.27746  21498620.0474                   21498618.9574
 11  8 18  2 18  0.0000000  0  8G26G29G12G10G02G30G05G25
 -15036006.63746 -11706649.57044  23827589.6174                   23827588.3324
 -16941096.21947 -13193044.84445  22670525.5554                   22670522.9224
 -13120518.05548 -10209898.85946  21249785.4694                   21249782.1884
    767769.02047    701787.77043  23274894.8984                   23274892.3244
  -7332610.15648  -5695697.03146  21460739.2034                   21460733.5594
 -15677907.86748 -12200402.45345  21493756.2814                   21493753.8714
 -20403480.72348 -15890953.38347  20245535.6564                   20245532.3714
 -17724761.52348 -13798033.94546  21506284.4614                   21506283.9494
 11  8 18  2 18 30.0000000  0  8G26G29G12G10G02G30G05G25
 -15084201.70347 -11744204.11344  23818418.2664                   23818417.2154
 -16976267.12147 -13220450.68445  22663832.3984                   22663830.4804
 -13016361.14548 -10128737.62146  21269605.9694                   21269603.0274
    917053.35947    818113.26643  23303302.8524                   23303299.9494
  -7247905.09048  -5629693.07446  21476857.9144                   21476852.5124
 -15616658.82448 -12152675.92245  21505412.0004                   21505409.1134
 -20336574.20748 -15838818.42647  20258267.9534                   20258264.1334
 -17683906.41848 -13766198.78546  21514059.1254                   21514058.3714
 11  8 18  2 19  0.0000000  0  8G26G29G12G10G02G30G05G25
 -15132372.88747 -11781740.04743  23809251.5864                   23809250.4144
 -17011380.30947 -13247811.54345  22657150.5554                   22657148.0274
 -12911747.53148 -10047220.52346  21289513.2114                   21289510.3874
   1066529.45347    934588.09444  23331747.3524                   23331744.9104
  -7163110.44948  -5563619.30946  21492993.4384                   21492988.6564
 -15554825.40648 -12104494.04345  21517178.3594                   21517175.5864
 -20269133.26648 -15786267.02347  20271101.3134                   20271097.6524
 -17642471.52048 -13733911.86346  21521943.3754                   21521942.9144
 11  8 18  2 19 30.0000000  0  8G26G29G12G10G02G30G05G25
 -15180506.28547 -11819246.52343  23800091.7034                   23800090.7894
 -17046423.31247 -13275117.71945  22650481.5164                   22650479.2194
 -12806668.63747  -9965340.86746  21309509.4384                   21309505.8284
   1216205.26647   1051218.60243  23360229.9304                   23360227.1174
  -7078216.04348  -5497467.82046  21509148.8444                   21509143.1214
 -15492398.15248 -12055849.42645  21529057.8834                   21529055.1294
 -20201148.40248 -15733291.78147  20284038.3364                   20284034.8834
 -17600446.41448 -13701165.04346  21529940.5784                   21529940.0164
 11  8 18  2 20  0.0000000  0  8G26G29G12G10G02G30G05G25
 -15228602.43446 -11856723.99243  23790939.2424                   23790937.6374
 -17081398.58247 -13302371.11345  22643826.6564                   22643823.4924
 -12701131.39147  -9883104.05146  21329592.5394                   21329589.0904
   1366073.86347   1167999.30143  23388749.3594                   23388746.2344
  -6993226.20748  -5431241.96945  21525321.5234                   21525316.1094
 -15429382.38348 -12006746.23845  21541049.5084                   21541046.5274
 -20132625.49248 -15679897.28947  20297077.4774                   20297074.0744
 -17557835.38748 -13667961.64546  21538049.3444                   21538048.6884
 11  8 18  2 20 30.0000000  0  8G26G29G12G10G02G30G05G25
 -15276668.73046 -11894178.21143  23781792.2424                   23781791.0664
 -17116315.14847 -13329578.77045  22637181.7344                   22637179.2624
 -12595148.51647  -9800519.99646  21349760.1094                   21349756.5864
   1516121.37947   1284919.46143  23417302.2584                   23417298.7974
  -6908151.96548  -5364950.34446  21541510.7894                   21541505.4694
 -15365790.02348 -11957193.73445  21553150.5944                   21553148.0274
 -20063576.98848 -15626093.24247  20310217.1804                   20310213.7034
 -17514649.36348 -13634310.20746  21546267.5784                   21546266.4844
 11  8 18  2 21  0.0000000  0  8G26G29G12G10G02G30G05G25
 -15324687.49646 -11931595.41043  23772654.6954                   23772653.1764
 -17151156.64547 -13356727.92645  22630552.1724                   22630549.1684
 -12488708.52048  -9717579.75046  21370015.4144                   21370011.6724
   1666359.68447   1401988.27044  23445891.6884                   23445888.8014
  -6822979.21148  -5298581.96546  21557718.3444                   21557713.0664
 -15301607.98448 -11907181.74245  21565364.0944                   21565361.0784
 -19993989.55548 -15571869.24647  20323459.1484                   20323456.0434
 -17470874.19948 -13600199.69546  21554597.5784                   21554596.7424
 11  8 18  2 21 30.0000000  0  8G26G29G12G10G02G30G05G25
 -15372665.08646 -11968980.41843  23763524.1644                   23763523.4884
 -17185931.09047 -13383824.85945  22623934.5784                   22623932.0634
 -12381823.28948  -9634292.56246  21390354.8054                   21390351.8364
   1816776.26647   1519195.97344  23474514.8444                   23474511.6724
  -6737718.06248  -5232144.70346  21573943.0864                   21573937.8874
 -15236847.35248 -11856718.90645  21577687.2504                   21577684.8284
 -19923874.60948 -15517234.21147  20336801.7504                   20336798.1484
 -17426520.00048 -13565637.98446  21563038.0634                   21563036.9224
 11  8 18  2 22  0.0000000  0  8G26G29G12G10G02G30G05G25
 -15420595.11746 -12006328.41043  23754403.7194                   23754402.7974
 -17220633.65247 -13410865.76645  22617330.8054                   22617327.8284
 -12274492.06247  -9550657.84846  21410778.5864                   21410775.5984
   1967371.55547   1636542.93044  23503172.3754                   23503169.6294
  -6652365.47748  -5165636.19546  21590185.2194                   21590179.6604
 -15171506.39848 -11805803.86746  21590121.6804                   21590119.1054
 -19853230.56248 -15462186.87946  20350244.5634                   20350241.1454
 -17381583.93448 -13530622.87546  21571588.9144                   21571587.8714
 11  8 18  2 22 30.0000000  0  8G26G29G12G10G02G30G05G25
 -15468472.03946 -12043635.02043  23745292.9924                   23745292.3094
 -17255261.23047 -13437848.25045  22610741.1484                   22610738.1914
 -12166715.37948  -9466676.02746  21431288.1954                   21431285.2704
   2118144.32847   1754028.20744  23531863.5164                   23531860.7074
  -6566919.73048  -5099055.09846  21606444.8674                   21606439.4264
 -15105584.56648 -11754436.19146  21602666.0634                   21602662.9574
 -19782057.22748 -15406727.11747  20363788.7194                   20363785.3364
 -17336064.53948 -13495153.21546  21580251.2034                   21580250.0004
 11  8 18  2 23  0.0000000  0  8G26G29G12G10G02G30G05G25
 -15516291.38746 -12080896.79743  23736193.9774                   23736192.4224
 -17289809.73847 -13464769.11745  22604166.7194                   22604164.1254
 -12058494.47348  -9382348.05546  21451882.1334                   21451879.2624
   2269093.13747   1871650.64844  23560587.4694                   23560585.2234
  -6481379.99648  -5032400.76646  21622722.7194                   21622716.9144
 -15039081.84448 -11702615.87945  21615321.0314                   21615318.2114
 -19710354.64848 -15350854.96147  20377433.1414                   20377429.7074
 -17289960.69148 -13459228.12146  21589024.2814                   21589023.0784
 11  8 18  2 23 30.0000000  0  9G26G29G12G15G10G02G30G05G25
 -15564051.94147 -12118112.69144  23727104.8204                   23727104.4774
 -17324279.89547 -13491628.93045  22597607.1024                   22597604.0594
 -11949834.04347  -9297677.59846  21472559.2504                   21472556.3164
 -12655212.67656  -9850232.80153  24637034.2894                   24637032.6174
   2420213.55147   1989406.77344  23589344.9304                   23589342.8284
  -6395748.41848  -4965674.85945  21639017.7034                   21639012.2074
 -14972001.85248 -11650345.71945  21628085.9224                   21628083.0704
 -19638126.59848 -15294573.34447  20391177.4694                   20391174.1644
 -17243275.06248 -13422849.70746  21597908.5394                   21597907.5744
 11  8 18  2 24  0.0000000  0  9G26G29G12G15G10G02G30G05G25
 -15611752.02046 -12155281.49244  23718026.9924                   23718026.8794
 -17358671.91447 -13518427.85245  22591062.9224                   22591059.7344
 -11840738.52747  -9212668.10946  21493319.6954                   21493316.5434
 -12701294.85546  -9886140.82042  24628264.2114                   24628264.3164
   2571500.77347   2107292.87944  23618133.7664                   23618131.5704
  -6310027.19148  -4898879.09446  21655329.6414                   21655324.3364
 -14904347.77048 -11597628.23845  21640959.8204                   21640957.3984
 -19565376.19948 -15237884.71147  20405021.6954                   20405018.1604
 -17196009.85248 -13386019.66446  21606902.7344                   21606901.7894
 11  8 18  2 24 30.0000000  0  9G26G29G12G15G10G02G30G05G25
 -15659394.70346 -12192405.56244  23708961.7504                   23708960.7734
 -17392990.55947 -13545169.61345  22584532.1724                   22584529.1294
 -11731216.65648  -9127326.39846  21514161.1094                   21514157.8134
 -12747511.30946  -9922153.44542  24619470.0314                   24619469.0394
   2722945.13347   2225301.44543  23646953.5864                   23646950.4224
  -6224223.33648  -4832018.95345  21671657.5634                   21671652.1994
 -14836127.83248 -11544469.84045  21653941.8364                   21653939.4104
 -19492111.81648 -15180795.55547  20418963.4304                   20418959.9774
 -17148172.17248 -13348743.53146  21616005.8674                   21616004.9924
 11  8 18  2 25  0.0000000  0  9G26G29G12G15G10G02G30G05G25
 -15706968.30147 -12229475.82444  23699908.8524                   23699907.5234
 -17427225.59847 -13571846.22345  22578017.2894                   22578014.2974
 -11621262.89148  -9041648.14846  21535084.2194                   21535081.1914
 -12793851.39146  -9958262.45342  24610651.4694                   24610651.2344
   2874552.53147   2343437.03943  23675802.4144                   23675800.6524
  -6138328.20348  -4765087.67646  21688002.9304                   21687997.2854
 -14767335.04748 -11490865.05946  21667032.6254                   21667029.7854
 -19418326.99248 -15123300.86747  20433004.1334                   20433000.1884
 -17099754.03948 -13311015.09046  21625219.6254                   21625218.8754
 11  8 18  2 25 30.0000000  0  9G26G29G12G15G10G02G30G05G25
 -15754471.27046 -12266491.03144  23690869.2194                   23690867.6604
 -17461377.21147 -13598457.81645  22571518.5554                   22571515.7814
 -11510881.77347  -8955636.90246  21556089.4844                   21556085.9844
 -12840314.73045  -9994467.49242  24601808.9384                   24601809.4024
   3026318.07847   2461695.85943  23704682.9304                   23704681.2194
  -6052344.30148  -4698087.23446  21704365.0474                   21704360.0084
 -14697972.89848 -11436816.60945  21680232.0394                   21680229.2704
 -19344025.19148 -15065403.34047  20447143.3594                   20447139.7074
 -17050757.98848 -13272836.33246  21634542.9224                   21634542.0354
 11  8 18  2 26  0.0000000  0  9G26G29G12G15G10G02G30G05G25
 -15801904.72346 -12303452.08644  23681842.8674                   23681840.9774
 -17495448.07847 -13625006.48845  22565035.0314                   22565032.4184
 -11400080.18048  -8869297.99646  21577174.1254                   21577171.2934
 -12886903.08246 -10030769.97743  24592944.0944                   24592943.1174
   3178234.63347   2580072.35243  23733590.7664                   23733589.7814
  -5966276.30948  -4631021.27046  21720743.8204                   21720738.2774
 -14628047.43048 -11382329.21545  21693537.9304                   21693535.2544
 -19269212.41848 -15007107.64547  20461379.8134                   20461376.0394
 -17001189.07048 -13234211.18446  21643975.7424                   21643974.7304
 11  8 18  2 26 30.0000000  0  9G26G29G12G15G10G02G30G05G25
 -15849263.80946 -12340355.16444  23672831.1564                   23672828.7814
 -17529434.87147 -13651489.65245  22558567.3284                   22558564.6914
 -11288859.31648  -8782632.39846  21598338.8984                   21598335.4104
 -12933612.59446 -10067166.87143  24584055.8284                   24584054.2814
   3330301.07047   2698565.63743  23762528.9144                   23762526.6764
  -5880123.07848  -4563888.89546  21737138.1334                   21737132.9534
 -14557558.77348 -11327402.97345  21706951.7894                   21706948.7544
 -19193888.98048 -14948414.03547  20475713.3134                   20475709.5314
 -16951046.41448 -13195138.96546  21653517.4924                   21653516.7034
 11  8 18  2 27  0.0000000  0  9G26G29G12G15G10G02G30G05G25
 -15896539.04346 -12377192.91844  23663834.8524                   23663833.3554
 -17563329.82847 -13677901.26245  22552117.5554                   22552114.8794
 -11177215.49648  -8695637.21946  21619584.0314                   21619580.8324
 -12980434.63746 -10103651.43444  24575145.6804                   24575143.9614
   3482520.45746   2817178.09043  23791494.3284                   23791493.6024
  -5793878.64148  -4496685.42246  21753549.9304                   21753544.1524
 -14486502.57848 -11272034.49645  21720473.1094                   21720470.2934
 -19118050.64548 -14889319.19946  20490144.6414                   20490140.9384
 -16900324.56648 -13155615.44146  21663169.3204                   21663168.8324
 11  8 18  2 27 30.0000000  0  9G26G29G12G15G10G02G30G05G25
 -15943724.19547 -12413960.49244  23654856.0634                   23654854.3714
 -17597128.46147 -13704237.82045  22545685.8054                   22545682.8284
 -11065149.06248  -8608312.71946  21640909.6254                   21640906.5004
 -13027364.27746 -10140219.85544  24566215.1804                   24566214.1454
   3634892.70746   2935909.65243  23820491.0084                   23820489.2464
  -5707540.81248  -4429409.19146  21769979.5004                   21769974.0354
 -14414877.73848 -11216222.93745  21734103.0864                   21734100.5904
 -19041696.51648 -14829822.46147  20504674.5554                   20504670.7734
 -16849021.53148 -13115639.03946  21672932.0164                   21672931.4344
 11  8 18  2 28  0.0000000  0  9G26G29G12G15G10G02G30G05G25
 -15990822.10547 -12450660.06244  23645893.2344                   23645891.1804
 -17630834.95347 -13730502.57445  22539271.7664                   22539268.6764
 -10952668.92648  -8520665.86346  21662314.1414                   21662310.6374
 -13074405.19547 -10176874.96544  24557263.5394                   24557261.7894
   3787409.34047   3054753.75843  23849514.0634                   23849511.3014
  -5621115.42648  -4362064.72346  21786425.8834                   21786420.2504
 -14342692.12548 -11159974.39845  21747839.1884                   21747836.5944
 -18964834.53148 -14769929.98846  20519301.0004                   20519297.0124
 -16797144.04748 -13075215.01246  21682804.1804                   21682803.2194
 11  8 18  2 28 30.0000000  0  9G26G29G12G15G10G02G30G05G25
 -16037827.28547 -12487287.40643  23636947.9534                   23636945.6884
 -17664445.62147 -13756692.65245  22532875.6804                   22532872.9734
 -10839775.09448  -8432696.63746  21683796.7734                   21683793.9104
 -13121552.81247 -10213613.20344  24548291.0084                   24548290.2624
   3940069.57447   3173709.77343  23878564.3674                   23878561.3984
  -5534600.88348  -4294650.78146  21802888.9534                   21802883.5124
 -14269945.30148 -11103288.55145  21761682.4454                   21761679.7854
 -18887464.61748 -14709641.73047  20534023.6174                   20534020.0164
 -16744690.78948 -13034342.32446  21692785.4534                   21692784.7894
 11  8 18  2 29  0.0000000  0  9G26G29G12G15G10G02G30G05G25
 -16084735.82447 -12523839.47344  23628021.8524                   23628019.1954
 -17697957.80147 -13782805.99245  22526498.5004                   22526495.5664
 -10726470.48848  -8344407.33246  21705358.1414                   21705355.0394
 -13168804.21146 -10250432.30943  24539299.6024                   24539298.4384
   4092870.93847   3292775.73843  23907641.7664                   23907638.3054
  -5447996.78148  -4227167.06645  21819368.6884                   21819363.3364
 -14196638.63748 -11046166.46145  21775632.4454                   21775629.8634
 -18809587.85948 -14648958.52347  20548843.2344                   20548839.3404
 -16691662.12948 -12993021.28546  21702876.5864                   21702876.1414
 11  8 18  2 29 30.0000000  0  9G26G29G12G15G10G02G30G05G25
 -16131549.41847 -12560317.53144  23619114.1484                   23619110.8554
 -17731374.92647 -13808845.26245  22520139.6094                   22520136.5984
 -10612762.81248  -8255803.94546  21726995.7664                   21726992.5084
 -13216162.02346 -10287334.33643  24530287.4774                   24530286.3984
   4245805.39147   3411945.39143  23936744.3444                   23936741.9064
  -5361308.69947  -4159617.89145  21835865.1484                   21835859.4804
 -14122778.93748 -10988613.45345  21789687.5084                   21789684.8284
 -18731211.11348 -14587885.72347  20563757.6414                   20563754.2464
 -16638063.91848 -12951256.43446  21713076.0164                   21713075.2154
 11  8 18  2 30  0.0000000  0  9G26G29G12G15G10G02G30G05G25
 -16178257.74647 -12596713.55544  23610225.1254                   23610222.8524
 -17764688.44547 -13834803.80145  22513799.9384                   22513796.9774
 -10498647.75848  -8166883.12946  21748711.1884                   21748708.1294
 -13263616.99647 -10324312.06643  24521257.6724                   24521254.9494
   4398877.04347   3531221.98843  23965872.2814                   23965870.1804
  -5274530.00047  -4091998.12145  21852378.6024                   21852373.1604
 -14048361.22347 -10930625.62545  21803848.9844                   21803846.0704
 -18652329.50048 -14526419.51646  20578768.3834                   20578764.6804
 -16583890.05548 -12909043.03146  21723384.8914                   21723383.8594
 11  8 18  2 30 30.0000000  0  9G26G29G12G15G10G02G30G05G25
 -16224863.07646 -12633029.30243  23601355.7424                   23601353.8834
 -17797902.06647 -13860684.49645  22507479.1094                   22507476.5554
 -10384133.62947  -8077651.34046  21770502.4384                   21770499.3324
 -13311172.07046 -10361367.81643  24512207.0634                   24512206.0594
   4552077.82447   3650599.17243  23995025.7974                   23995023.3554
  -5187666.42247  -4024312.20545  21868908.1884                   21868902.9384
 -13973392.88348 -10872208.72745  21818114.8524                   21818112.2544
 -18572950.76848 -14464565.95246  20593873.9384                   20593869.9774
 -16529146.99248 -12866386.07846  21733802.2344                   21733801.2154
 11  8 18  2 31  0.0000000  0  9G26G29G12G15G10G02G30G05G25
 -16271360.26247 -12669260.77344  23592507.8834                   23592506.1914
 -17831012.35947 -13886484.68445  22501179.2504                   22501176.0744
 -10269221.63747  -7988109.53146  21792369.5234                   21792366.5124
 -13358823.32847 -10398498.54343  24503140.0554                   24503138.7114
   4705406.41447   3770075.99243  24024202.9224                   24024199.9414
  -5100716.73447  -3956559.18445  21885454.3444                   21885449.1174
 -13897874.21947 -10813363.01245  21832485.6484                   21832482.7194
 -18493075.01648 -14402325.09446  20609073.6334                   20609070.0554
 -16473834.11748 -12823285.12546  21744327.8984                   21744326.8054
 11  8 18  2 31 30.0000000  0  9G26G29G12G15G10G02G30G05G25
 -17893166.82047 -13933006.07444  23283888.1644                   23283886.7154
 -19439438.06347 -15139803.37545  22195105.6414                   22195102.4534
 -11729330.21547  -9125856.48046  21514520.1174                   21514517.0634
 -14981989.30547 -11663303.07443  24194261.5554                   24194260.1214
   3283445.68447   2662054.62543  23753613.0394                   23753610.6414
  -6589097.31648  -5116336.24246  21602224.8754                   21602219.3524
 -15397223.91047 -11981687.43845  21547168.8754                   21547166.1174
 -19988120.85948 -15567295.86746  20324575.8594                   20324572.3714
 -17993369.74648 -14007338.85946  21455170.1254                   21455169.3014
 11  8 18  2 32  0.0000000  0  9G26G29G12G15G10G02G30G05G25
 -17939434.60947 -13969058.87544  23275084.2274                   23275081.4224
 -19472333.26247 -15165435.95345  22188845.5084                   22188843.0204
 -11613628.10947  -9035699.00046  21536537.7974                   21536534.4694
 -15029822.50146 -11700575.55743  24185158.6804                   24185156.4144
   3437024.51647   2781726.40643  23782837.4844                   23782836.0744
  -6501972.45748  -5048446.73846  21618804.0554                   21618798.8284
 -15320607.29748 -11921986.17645  21561748.4534                   21561745.5314
 -19907253.82448 -15504282.58246  20339964.0234                   20339960.6804
 -17936916.87548 -13963349.59846  21465912.4384                   21465911.5864
 11  8 18  2 32 30.0000000  0  9G26G29G12G15G10G02G30G05G25
 -17985582.09047 -14005017.88344  23266302.5634                   23266299.9804
 -19505117.71147 -15190982.24245  22182607.2664                   22182604.0784
 -11497534.21548  -8945236.22346  21558629.5004                   21558625.6844
 -15077742.63746 -11737915.84043  24176039.9144                   24176037.5474
   3590724.81247   2901492.84043  23812086.3134                   23812083.7234
  -6414760.25448  -4980489.16845  21635400.0474                   21635394.2304
 -15243444.22348 -11861859.08645  21576431.9694                   21576428.8444
 -19825893.72348 -15440885.09446  20355446.9534                   20355443.1764
 -17879895.07448 -13918917.01646  21476763.4304                   21476762.6374
 11  8 18  2 33  0.0000000  0  9G26G29G12G15G10G02G30G05G25
 -18031603.26647 -14040878.46944  23257545.0634                   23257542.7504
 -19537786.69948 -15216438.56345  22176390.2974                   22176387.0314
 -11381049.54748  -8854468.96146  21580795.8834                   21580792.4224
 -15125744.24646 -11775319.55143  24166905.7584                   24166904.2704
   3744546.78146   3021354.09843  23841357.3134                   23841355.7274
  -6327458.07448  -4912461.48045  21652012.7194                   21652007.7194
 -15165734.02347 -11801305.68045  21591219.9924                   21591217.0594
 -19744039.94148 -15377102.92646  20371022.9694                   20371019.1134
 -17822302.61748 -13874039.77346  21487722.7974                   21487721.7584
 11  8 18  2 33 30.0000000  0  9G26G29G12G15G10G02G30G05G25
 -18077504.23847 -14076645.39144  23248809.9924                   23248808.4494
 -19570348.35247 -15241811.25045  22170193.9534                   22170190.8984
 -11264186.50448  -8763406.85546  21603033.5784                   21603031.0944
 -15173834.78946 -11812792.57443  24157753.6804                   24157752.8874
   3898478.05946   3141300.48043  23870650.3754                   23870647.8714
  -6240075.75448  -4844371.35545  21668641.0234                   21668635.8054
 -15087488.34847 -11740335.00845  21606109.6094                   21606106.3524
 -19661704.43448 -15312945.38347  20386690.5784                   20386687.4344
 -17764150.23448 -13828726.21546  21498788.8444                   21498788.2774
 11  8 18  2 34  0.0000000  0  9G26G29G12G15G10G02G30G05G25
 -18123271.19147 -14112307.93444  23240100.7974                   23240098.5124
 -19602790.57047 -15267090.87145  22164020.5084                   22164017.1914
 -11146937.33248  -8672043.87146  21625345.8204                   21625342.4454
 -15222001.02747 -11850324.57443  24148588.2194                   24148587.1054
   4052525.95746   3261337.80543  23899964.6644                   23899961.9264
  -6152603.25847  -4776210.94545  21685286.3524                   21685281.3364
 -15008698.76248 -11678940.52045  21621102.6804                   21621099.4264
 -19578878.30548 -15248405.53547  20402452.2274                   20402448.6684
 -17705428.56648 -13782969.05946  21509963.2034                   21509962.4184
 11  8 18  2 34 30.0000000  0  9G26G29G12G15G10G02G30G05G25
 -18168905.46547 -14147867.05544  23231416.8204                   23231414.5314
 -19635116.12547 -15292279.59845  22157869.1254                   22157866.5744
 -11029309.75848  -8580386.03146  21647729.5474                   21647726.0044
 -15270245.74247 -11887917.69144  24139407.1414                   24139406.1024
   4206683.17246   3381460.30543  23929298.7584                   23929296.2464
  -6065045.39547  -4707984.02745  21701948.2974                   21701942.6764
 -14929372.25847 -11617127.65245  21636198.2814                   21636195.1954
 -19495568.73848 -15183488.98846  20418305.1414                   20418301.5744
 -17646143.55948 -13736772.93846  21521244.8524                   21521243.8984
 11  8 18  2 35  0.0000000  0  9G26G29G12G15G10G02G30G05G25
 -18214406.12547 -14183322.07844  23222758.1094                   23222756.6844
 -19667325.28947 -15317377.60945  22151739.8754                   22151736.8014
 -10911308.89848  -8488437.31646  21670184.4064                   21670181.0354
 -15318568.23447 -11925571.42244  24130212.2504                   24130211.1524
   4360944.54746   3501663.94143  23958653.7114                   23958651.9654
  -5977404.61347  -4639692.50445  21718625.5704                   21718620.1054
 -14849513.23848 -11554899.83645  21651394.4774                   21651391.8954
 -19411780.16448 -15118199.18847  20434249.7584                   20434246.2074
 -17586298.65648 -13690140.53146  21532633.0234                   21532631.6884
 11  8 18  2 35 30.0000000  0  9G26G29G12G15G10G02G30G05G25
 -18259754.69547 -14218658.56344  23214128.8524                   23214126.8674
 -19699401.37947 -15342371.93845  22145635.8444                   22145633.3914
 -10792922.92248  -8396188.51646  21692712.8364                   21692709.2934
 -15366951.43447 -11963272.46144  24121004.7584                   24121003.5314
   4515322.03946   3621958.09043  23988031.4774                   23988029.0554
  -5889666.53147  -4571325.17645  21735321.7424                   21735316.7074
 -14769108.89847 -11492247.10945  21666695.2894                   21666692.3634
 -19327499.84447 -15052526.20747  20450287.9304                   20450284.5084
 -17525880.16048 -13643061.16046  21544130.0554                   21544129.1844
 11  8 18  2 36  0.0000000  0  9G26G29G12G15G10G02G30G05G25
 -18304960.93847 -14253884.15644  23205526.1804                   23205524.7384
 -19731355.57047 -15367271.26645  22139555.2194                   22139552.6094
 -10674167.84047  -8303652.10946  21715311.1174                   21715307.3674
 -15415405.57047 -12001028.81644  24111784.4694                   24111782.1604
   4669799.85246   3742330.41843  24017427.3054                   24017424.7194
  -5801844.16047  -4502892.14845  21752033.7424                   21752028.7344
 -14688174.30548 -11429181.19145  21682096.5554                   21682093.4774
 -19242742.61748 -14986481.61346  20466416.7274                   20466413.0824
 -17464902.18848 -13595545.84446  21555734.0084                   21555732.8634
 11  8 18  2 36 30.0000000  0  9G26G29G12G15G10G02G30G05G25
 -18350019.86747 -14288994.95344  23196951.4304                   23196949.5234
 -19763184.71947 -15392073.17645  22133498.6254                   22133495.3244
 -10555044.99647  -8210829.12146  21737979.5314                   21737975.7194
 -15463927.00047 -12038837.56644  24102550.8524                   24102549.6174
   4824376.91846   3862780.07443  24046843.1414                   24046839.3164
  -5713936.50848  -4434392.67245  21768762.3754                   21768756.9344
 -14606710.48848 -11365702.89545  21697598.6414                   21697595.8594
 -19157509.49248 -14920066.19147  20482635.8364                   20482632.3754
 -17403364.68448 -13547594.53146  21567443.8674                   21567442.8164
 11  8 18  2 37  0.0000000  0  9G26G29G12G15G10G02G30G05G25
 -18394926.97747 -14323987.44944  23188406.6174                   23188404.3914
 -19794885.91047 -15416775.37545  22127466.0394                   22127462.8634
 -10435556.23048  -8117720.99646  21760717.2974                   21760713.8594
 -15512512.22747 -12076696.05544  24093304.7034                   24093303.5594
   4979051.94546   3983306.09443  24076276.6724                   24076272.8754
  -5625942.82047  -4365826.14545  21785506.8914                   21785501.7304
 -14524718.40648 -11301812.95345  21713201.1564                   21713197.6724
 -19071801.52047 -14853280.75046  20498945.2974                   20498941.5984
 -17341267.77748 -13499207.30946  21579260.6174                   21579259.5394
 11  8 18  2 37 30.0000000  0  9G26G29G12G15G10G02G30G05G25
 -18439682.70347 -14358861.98044  23179889.7894                   23179887.2854
 -19826460.95347 -15441379.27345  22121456.9384                   22121454.2624
 -10315708.69547  -8024333.32046  21783523.5084                   21783520.2854
 -15561162.17247 -12114604.97744  24084047.3204                   24084045.3524
   5133818.00047   4103903.03543  24105728.3754                   24105724.3054
  -5537866.46947  -4297195.22745  21802267.2194                   21802261.9614
 -14442204.05148 -11237516.05545  21728902.9454                   21728899.8484
 -18985624.57448 -14786129.88346  20515344.2894                   20515340.9024
 -17278616.46148 -13450388.09446  21591182.6484                   21591181.8594
 11  8 18  2 38  0.0000000  0  9G26G29G12G15G10G02G30G05G25
 -18484280.05947 -14393613.12944  23171402.5704                   23171400.3134
 -19857904.45747 -15465880.68045  22115473.4694                   22115470.5784
 -10195501.64147  -7930665.49246  21806398.2114                   21806394.9144
 -15609871.22347 -12152559.92244  24074778.1094                   24074776.5984
   5288675.95747   4224571.60543  24135196.2584                   24135192.4454
  -5449704.39148  -4228497.50446  21819043.8284                   21819038.4024
 -14359166.11747 -11172811.18845  21744705.0164                   21744701.5784
 -18898977.23448 -14718612.46946  20531832.9774                   20531829.3204
 -17215408.51248 -13401135.15246  21603210.8134                   21603209.7734
 11  8 18  2 38 30.0000000  0  9G26G29G12G15G10G02G30G05G25
 -18528717.72347 -14428239.84044  23162946.2734                   23162944.4224
 -19889216.58247 -15490279.68445  22109514.8444                   22109512.5084
 -10074940.25847  -7836721.58246  21829340.3284                   21829337.0274
 -15658638.66847 -12190560.40644  24065497.6414                   24065495.9454
   5443621.25847   4345308.23043  24164680.7894                   24164677.7814
  -5361458.99248  -4159734.84845  21835836.1804                   21835831.3834
 -14275609.19147 -11107701.89845  21760605.2344                   21760602.1844
 -18811864.11748 -14650732.11346  20548409.8054                   20548406.3524
 -17151647.53948 -13351451.26246  21615344.0234                   21615343.0474
 11  8 18  2 39  0.0000000  0  9G26G29G12G15G10G02G30G05G25
 -18572986.03147 -14462734.54344  23154521.8524                   23154520.9184
 -19920389.09047 -15514569.90645  22103583.1094                   22103580.1644
  -9954021.30147  -7742499.03546  21852350.4844                   21852347.2234
 -15707455.55546 -12228599.39544  24056207.9534                   24056206.3714
   5598657.08246   4466115.32042  24194182.8754                   24194180.1604
  -5273124.37147  -4090902.66845  21852645.7974                   21852640.4884
 -14191529.21548 -11042185.02345  21776605.0394                   21776602.3874
 -18724280.89848 -14582485.44146  20565076.3834                   20565073.2894
 -17087328.51648 -13301332.53146  21627583.4144                   21627582.3134
 11  8 18  2 39 30.0000000  0  9G26G29G12G15G10G02G30G05G25
 -18617079.18047 -14497092.80944  23146131.8134                   23146130.0704
 -19951417.85547 -15538748.12145  22097678.5004                   22097675.7974
  -9832745.44547  -7647998.38746  21875428.3984                   21875424.9264
 -15756317.31346 -12266673.33244  24046909.4844                   24046908.3204
   5753783.43746   4586993.11342  24223703.1644                   24223699.1414
  -5184697.92247  -4021998.93445  21869472.9614                   21869466.8634
 -14106926.05948 -10976260.48445  21792704.1254                   21792701.4494
 -18636227.72748 -14513872.57447  20581832.3984                   20581829.2544
 -17022450.47748 -13250778.20346  21639929.1564                   21639928.6724
 11  8 18  2 40  0.0000000  0  9G26G29G12G15G10G02G30G05G25
 -18661002.49647 -14531318.73044  23137773.6804                   23137771.4304
 -19982310.01247 -15562819.88345  22091800.0474                   22091796.5124
  -9711124.38747  -7553228.73446  21898572.0314                   21898569.0004
 -15805229.98447 -12304786.92644  24037602.1644                   24037600.8364
   5908988.73446   4707932.27042  24253236.9774                   24253234.5664
  -5096188.74247  -3953030.73845  21886315.8524                   21886310.3244
 -14021810.94548 -10909937.02345  21808901.1724                   21808898.1644
 -18547715.56348 -14444902.04746  20598675.5784                   20598672.2274
 -16957023.53948 -13199796.18046  21652379.7504                   21652379.2384
 11  8 18  2 40 30.0000000  0  9G26G29G12G15G10G02G30G05G25
 -18704751.34847 -14565408.71544  23129448.3594                   23129445.8204
 -20013062.18447 -15586782.56645  22085948.2034                   22085945.1844
  -9589160.07047  -7458191.62146  21921781.0944                   21921777.9224
 -15854189.81647 -12342937.31644  24028285.8674                   24028282.9614
   6064271.50846   4828931.87142  24282786.4064                   24282783.1524
  -5007595.94947  -3883997.41445  21903174.3594                   21903168.6564
 -13936184.94148 -10843215.48445  21825195.2114                   21825192.2664
 -18458745.35248 -14375574.61746  20615606.1174                   20615602.6564
 -16891048.18448 -13148386.80546  21664934.9454                   21664933.6954
 11  8 18  2 41  0.0000000  0  9G26G29G12G15G10G02G30G05G25
 -18748316.77747 -14599355.73444  23121157.8754                   23121155.5354
 -20043667.13747 -15610630.52345  22080123.5474                   22080120.7034
  -9466850.12947  -7362885.18446  21945055.9534                   21945052.8364
 -15903188.78547 -12381118.25843  24018961.4144                   24018958.8834
   6219634.57446   4949994.02743  24312350.0784                   24312348.1174
  -4918914.10947  -3814894.68845  21920049.8444                   21920044.7464
 -13850045.12547 -10776093.54345  21841587.0084                   21841584.5474
 -18369314.24248 -14305888.03146  20632624.1254                   20632620.8794
 -16824520.30148 -13096546.90246  21677594.4064                   21677593.4924
 11  8 18  2 41 30.0000000  0  9G26G29G12G15G10G02G30G05G25
 -18791694.30547 -14633156.35944  23112903.4774                   23112901.2464
 -20074121.93447 -15634361.47745  22074328.4924                   22074325.7274
  -9344196.46947  -7267310.91046  21968396.0474                   21968392.8834
 -15952223.45746 -12419326.99643  24009629.7504                   24009627.6484
   6375075.95346   5071117.20743  24341930.3754                   24341927.7074
  -4830142.55548  -3745722.03945  21936942.7114                   21936937.5354
 -13763392.79348 -10708572.24245  21858076.5704                   21858073.9614
 -18279423.25048 -14235843.09446  20649730.0864                   20649726.2894
 -16757440.38348 -13044276.83246  21690359.1484                   21690358.4884
 11  8 18  2 42  0.0000000  0  9G26G29G12G15G10G02G30G05G25
 -18834889.06347 -14666814.55944  23104683.6094                   23104681.3554
 -20104433.07047 -15657980.48445  22068560.3754                   22068557.5474
  -9221210.89548  -7171478.00446  21991799.2894                   21991796.2664
 -16001299.65647 -12457568.09044  24000290.9144                   24000289.4534
   6530585.05145   5192293.12143  24371522.0944                   24371520.4924
  -4741289.56647  -3676485.93445  21953850.7814                   21953845.4614
 -13676238.85248 -10640660.07445  21874661.2034                   21874658.5744
 -18189082.85248 -14165447.95746  20666921.3364                   20666917.2664
 -16689818.37948 -12991584.36346  21703227.0394                   21703226.4264
 11  8 18  2 42 30.0000000  0  9G26G29G12G15G10G02G30G05G25
 -18877892.68847 -14700323.84044  23096501.0474                   23096498.5744
 -20134593.66847 -15681482.20345  22062821.2664                   22062818.5784
  -9097891.26647  -7075384.81346  22015266.7974                   22015263.5514
 -16050409.69147 -12495835.59044  23990946.0864                   23990943.3444
   6686164.30946   5313523.68043  24401129.8204                   24401127.2234
  -4652350.76247  -3607182.96545  21970775.2894                   21970769.1954
 -13588580.81347 -10572355.10945  21891342.0004                   21891339.4344
 -18098290.77048 -14094700.87946  20684198.4224                   20684194.5554
 -16621650.82848 -12938466.79346  21716199.1334                   21716198.3164
 11  8 18  2 43  0.0000000  0  9G26G29G12G15G10G02G30G05G25
 -18920696.70747 -14733677.55944  23088355.0634                   23088352.4884
 -20164596.86347 -15704861.25045  22057111.8524                   22057108.6334
  -8974235.88748  -6979029.96146  22038797.4064                   22038794.2894
 -16099546.20346 -12534123.71144  23981594.7664                   23981593.1214
   6841815.52746   5434810.32043  24430748.3524                   24430746.0044
  -4563321.18848  -3537809.25045  21987716.8984                   21987711.6804
 -13500416.18847 -10503655.39845  21908119.2504                   21908116.6884
 -18007044.38348 -14023599.78946  20701562.0554                   20701557.9534
 -16552934.45348 -12884921.55546  21729275.1724                   21729274.3834
 11  8 18  2 43 30.0000000  0  9G26G29G12G15G10G02G30G05G25
 -18963306.33647 -14766879.80944  23080246.8834                   23080244.1254
 -20194449.39147 -15728122.90645  22051430.8134                   22051427.6334
  -8850256.64147  -6882422.77746  22062389.6414                   22062386.2074
 -16148715.36347 -12572437.26644  23972238.4384                   23972235.5864
   6997527.27746   5556144.13343  24460379.5314                   24460377.1024
  -4474209.73048  -3468371.74245  22004674.1884                   22004668.7974
 -13411756.18047 -10434569.67645  21924990.3754                   21924988.3164
 -17915354.78548 -13952153.33246  20719010.2664                   20719006.2734
 -16483679.55548 -12830956.71146  21742454.1884                   21742453.3984
 11  8 18  2 44  0.0000000  0  9G26G29G12G15G10G02G30G05G25
 -19005709.48447 -14799921.16444  23072177.7504                   23072174.8594
 -20224140.87147 -15751259.06345  22045780.7894                   22045777.7814
  -8725947.96548  -6785558.87545  22086045.0704                   22086041.5124
 -16197905.80947 -12610767.37944  23962877.8914                   23962874.8834
   7153305.91446   5677530.09443  24490023.4614                   24490020.4224
  -4385007.84848  -3398863.78545  22021649.1094                   22021643.5434
 -13322594.74247 -10365093.22345  21941957.9924                   21941954.6764
 -17823215.57448 -13880356.54746  20736543.5314                   20736539.6374
 -16413879.11748 -12776566.75446  21755736.7974                   21755735.7854
 11  8 18  2 44 30.0000000  0  9G26G29G12G15G10G02G30G05G25
 -19047904.13747 -14832800.07844  23064148.3834                   23064145.7544
 -20253670.41047 -15774269.04746  22040161.1724                   22040158.4144
  -8601314.34848  -6688441.78145  22109762.0474                   22109758.6254
 -16247116.07847 -12649112.96544  23953512.9924                   23953510.7624
   7309147.27346   5798964.97743  24519678.9064                   24519676.2234
  -4295717.00848  -3329286.50445  22038640.3134                   22038634.7114
 -13232935.66848 -10295228.99645  21959019.1724                   21959016.6844
 -17730630.72348 -13808212.50046  20754161.7114                   20754157.9924
 -16343536.05548 -12721753.97346  21769122.5004                   21769121.7194
 11  8 18  2 45  0.0000000  0  9G26G29G12G15G10G02G30G05G25
 -19089888.03147 -14865514.73444  23056158.6414                   23056156.0514
 -20283037.50847 -15797152.44546  22034572.9144                   22034570.4574
  -8476360.42247  -6591075.08645  22133539.5474                   22133536.5864
 -16296345.12947 -12687473.18044  23944144.9614                   23944142.4734
   7465047.29747   5920445.50043  24549346.3054                   24549343.0434
  -4206338.45948  -3259640.89045  22055648.5784                   22055642.9344
 -13142782.88347 -10224980.06645  21976174.4304                   21976172.4104
 -17637603.73048 -13735723.92246  20771863.9924                   20771860.5784
 -16272653.40648 -12666520.73046  21782610.9614                   21782610.4024
 11  8 18  2 45 30.0000000  0  9G26G29G12G15G10G02G30G05G25
 -19131662.46947 -14898066.20744  23048209.4304                   23048207.2074
 -20312244.97748 -15819911.46946  22029015.1254                   22029012.2114
  -8351093.54748  -6493464.54345  22157377.5864                   22157374.0554
 -16345595.02747 -12725849.63344  23934773.4774                   23934770.3984
   7620999.05946   6041966.32843  24579022.3834                   24579019.1374
  -4116877.25047  -3189930.86345  22072672.6724                   22072666.6454
 -13052143.78148 -10154352.20745  21993422.9304                   21993420.3674
 -17544141.68048 -13662896.33246  20789649.1094                   20789645.8164
 -16201237.73448 -12610872.15646  21796201.0864                   21796200.7704
 11  8 18  2 46  0.0000000  0 10G26G29G12G15G10G02G30G05G25G21
 -19173219.67647 -14930448.38744  23040301.4924                   23040298.8834
 -20341286.53948 -15842541.23446  22023488.5474                   22023485.5124
  -8225512.89548  -6395609.49245  22181274.5634                   22181271.3594
 -16394858.79347 -12764236.91844  23925398.8984                   23925395.7154
   7777004.27746   6163528.80142  24608709.2504                   24608706.0744
  -4027329.02748  -3120153.00845  22089712.9614                   22089706.9654
 -12961016.42648 -10083343.88346  22010763.5004                   22010760.9804
 -17450242.47748 -13589728.10246  20807517.5234                   20807514.3324
 -16129286.16448 -12554806.00446  21809892.9844                   21809892.3634
 -14189415.33656 -11054462.78153  25282174.7274                   25282173.1884
 11  8 18  2 46 30.0000000  0 10G26G29G12G15G10G02G30G05G25G21
 -19214553.36747 -14962656.39844  23032435.5784                   23032433.5554
 -20370157.26648 -15865037.86746  22017995.0234                   22017991.4414
  -8099618.62547  -6297510.07445  22205231.6174                   22205228.4774
 -16444130.94547 -12802630.73044  23916022.0164                   23916020.4494
   7933062.99646   6285132.90642  24638406.5234                   24638402.7034
  -3937691.18447  -3050305.33645  22106770.2274                   22106765.4184
 -12869400.52747 -10011954.87145  22028197.6484                   22028194.6134
 -17355905.75848 -13516218.96546  20825469.6724                   20825465.8874
 -16056797.65248 -12498321.44946  21823687.4534                   21823686.5204
 -14198745.19546 -11061732.76243  25280399.0084                   25280398.0664
 11  8 18  2 47  0.0000000  0 10G26G29G12G15G10G02G30G05G25G21
 -19255665.58247 -14994691.83244  23024612.8364                   23024609.3754
 -20398860.59048 -15887404.06346  22012532.7034                   22012529.7034
  -7973419.63348  -6199173.19545  22229246.6414                   22229242.8054
 -16493414.19146 -12841033.16044  23906643.9224                   23906642.1844
   8089167.297 6                  24668111.414
  -3847969.12147  -2980392.03145  22123844.2734                   22123838.3754
 -12777304.33647  -9940191.60545  22045722.9774                   22045720.7074
 -17261139.76648 -13442375.32846  20843502.8984                   20843498.5514
 -15983779.45748 -12441424.14146  21837581.8524                   21837580.9774
 -14208066.34846 -11068995.94543  25278625.6334                   25278624.1334
 11  8 18  2 47 30.0000000  0 10G26G29G12G15G10G02G30G05G25G21
 -19296555.10947 -15026553.75444  23016830.9224                   23016828.7194
 -20427396.96947 -15909640.17646  22007101.9304                   22007099.2194
  -7846920.82447  -6100602.70345  22253318.2894                   22253314.7704
 -16542708.23446 -12879444.01644  23897263.4924                   23897261.6454
   8245312.711 5                  24697825.531
  -3758165.63348  -2910415.27745  22140932.8204                   22140927.4264
 -12684732.68847  -9868057.85945  22063338.7344                   22063336.3484
 -17165949.07848 -13368200.75046  20861616.8834                   20861613.2624
 -15910235.68448 -12384117.29346  21851576.8204                   21851575.9964
 -14217381.67646 -11076254.56643  25276852.8524                   25276851.3014
 11  8 18  2 48  0.0000000  0 10G26G29G12G15G10G02G30G05G25G21
 -19337217.14147 -15058238.39144  23009093.7424                   23009091.2074
 -20455763.29347 -15931743.79346  22001704.5634                   22001701.1334
  -7720124.79747  -6001800.62545  22277446.4844                   22277443.7034
 -16592009.38746 -12917860.41844  23887881.9064                   23887879.6914
   8401497.527 6                  24727545.070
  -3668279.06648  -2840373.80545  22158037.7734                   22158032.3554
 -12591687.12948  -9795554.81646  22081044.6804                   22081042.4574
 -17070334.78948 -13293696.10246  20879812.0314                   20879808.0664
 -15836166.87548 -12326401.33246  21865671.8754                   21865671.5204
 -14226690.78146 -11083508.35243  25275081.3984                   25275079.7584
 11  8 18  2 48 30.0000000  0  9G26G29G12G15G02G30G05G25G21
 -20953065.37947 -16317340.86744  22701607.5554                   22701604.7424
 -22059373.83647 -17181310.43846  21696547.3674                   21696544.2464
  -9168445.75847  -7130362.45745  22001840.3284                   22001837.3284
 -18216732.12147 -14183878.02744  23578707.8984                   23578705.3164
  -5153722.37948  -3997862.11745  21875367.4224                   21875360.9924
 -14073582.78147 -10950278.69545  21799049.4454                   21799046.4804
 -18549711.70348 -14446457.33246  20598295.9454                   20598292.0274
 -17336988.07448 -13495872.39846  21580075.1564                   21580074.2154
 -15811410.16446 -12318354.60942  24973519.2814                   24973517.2464
 11  8 18  2 49  0.0000000  0  9G26G29G12G15G02G30G05G25G21
 -20993258.37147 -16348660.02044  22693958.9614                   22693956.7194
 -22087389.76647 -17203141.01646  21691216.0704                   21691213.2274
  -9041060.37948  -7031101.13745  22026080.7584                   22026077.7464
 -18266035.18447 -14222295.92644  23569325.4454                   23569322.3094
  -5063666.50448  -3927688.71945  21892504.2584                   21892498.6134
 -13979593.41448 -10877040.22745  21816935.2344                   21816932.5904
 -18453253.58648 -14371295.14146  20616650.9064                   20616647.5514
 -17261870.82048 -13437339.46946  21594369.2894                   21594368.4024
 -15820705.21146 -12325597.44142  24971749.2274                   24971748.6094
 11  8 18  2 49 30.0000000  0  9G26G29G12G15G02G30G05G25G21
 -21033208.65647 -16379790.05544  22686356.8834                   22686354.8794
 -22115224.66048 -17224830.54346  21685919.3284                   21685916.2504
  -8913382.23847  -6931611.71945  22050377.8134                   22050374.5004
 -18315332.43447 -14260709.30544  23559944.0784                   23559942.1054
  -4973523.06347  -3857447.08245  21909657.9224                   21909652.2814
 -13885133.29747 -10803434.93845  21834910.4304                   21834907.4534
 -18356374.62148 -14295805.02346  20635086.2504                   20635083.0744
 -17186229.31348 -13378398.03146  21608763.1564                   21608762.5234
 -15829991.37546 -12332833.31642  24969981.9384                   24969981.0274
 11  8 18  2 50  0.0000000  0  9G26G29G12G15G02G30G05G25G21
 -21072909.14847 -16410725.49244  22678802.0864                   22678799.5314
 -22142872.80947 -17246374.53946  21680658.1724                   21680655.0124
  -8785410.77347  -6831893.71145  22074729.7894                   22074726.5354
 -18364617.33647 -14299113.06344  23550565.8594                   23550563.7274
  -4883288.70747  -3787134.60245  21926829.3054                   21926823.7424
 -13790201.54347 -10729462.14145  21852975.1334                   21852972.5124
 -18259073.21548 -14219985.73046  20653602.3674                   20653598.5744
 -17110061.71948 -13319046.65246  21623257.3054                   21623256.9184
 -15839265.80146 -12340060.03542  24968217.8284                   24968216.3054
 11  8 18  2 50 30.0000000  0  9G26G29G12G15G02G30G05G25G21
 -21112349.50847 -16441458.19144  22671296.4224                   22671294.5634
 -22170325.17647 -17267765.99246  21675434.2034                   21675430.7344
  -8657142.53147  -6731944.44945  22099138.5784                   22099135.2974
 -18413880.48847 -14337499.88744  23541191.5164                   23541189.2154
  -4792956.62547  -3716745.96545  21944018.4924                   21944013.8984
 -13694794.03948 -10655118.63345  21871130.4534                   21871127.6914
 -18161345.17248 -14143834.00046  20672199.3984                   20672196.0004
 -17033363.16048 -13259281.54746  21637852.6644                   21637852.0594
 -15848522.67646 -12347273.05742  24966456.6254                   24966454.2194
 11  8 18  2 51  0.0000000  0  9G26G29G12G15G02G30G05G25G21
 -21151532.94947 -16471990.69144  22663840.4924                   22663838.4694
 -22197586.60248 -17289008.64846  21670246.5164                   21670243.2734
  -8528587.07447  -6631771.38745  22123601.8524                   22123598.8834
 -18463125.68046 -14375872.73444  23531819.5234                   23531817.5434
  -4702533.04347  -3646286.02745  21961225.4844                   21961220.4844
 -13598920.03947 -10580411.60945  21889374.7664                   21889372.0004
 -18063199.87548 -14067357.12946  20690875.9304                   20690871.8634
 -16956142.10548 -13199109.29346  21652547.2114                   21652546.8594
 -15857769.03546 -12354477.91843  24964696.8134                   24964694.3244
 11  8 18  2 51 30.0000000  0  9G26G29G12G15G02G30G05G25G21
 -21190454.26647 -16502318.94944  22656434.2034                   22656431.5944
 -22224653.30947 -17310099.57846  21665095.6724                   21665092.4844
  -8399745.99247  -6531375.76645  22148118.8594                   22148115.4494
 -18512348.71146 -14414228.30544  23522452.9924                   23522450.5704
  -4612016.54748  -3575753.69545  21978450.6414                   21978445.4064
 -13502580.81647 -10505342.09845  21907707.4064                   21907704.5704
 -17964638.00048 -13990555.65646  20709631.4304                   20709627.9414
 -16878398.91448 -13138530.19146  21667341.7734                   21667340.8634
 -15867004.19946 -12361674.05943  24962939.6884                   24962936.8284
 11  8 18  2 52  0.0000000  0  9G26G29G12G15G02G30G05G25G21
 -21229114.68447 -16532443.93044  22649077.0474                   22649074.3714
 -22251527.99648 -17331040.87146  21659981.3444                   21659978.5274
  -8270627.15647  -6430763.69945  22172689.6024                   22172686.2384
 -18561551.44547 -14452568.07044  23513090.3984                   23513087.8674
  -4521412.19947  -3505152.91045  21995691.8444                   21995686.2234
 -13405783.89147 -10429915.93045  21926127.2894                   21926124.6254
 -17865666.73848 -13913435.18446  20728465.2274                   20728462.2274
 -16800140.27348 -13077549.43446  21682233.5004                   21682233.1884
 -15876233.76646 -12368865.75842  24961183.4384                   24961181.4614
 11  8 18  2 52 30.0000000  0  9G26G29G12G15G02G30G05G25G21
 -21267511.93847 -16562363.84845  22641769.9774                   22641768.1414
 -22278209.69548 -17351831.78946  21654904.0944                   21654901.0474
  -8141235.32447  -6329938.91845  22197311.7974                   22197308.8524
 -18610732.37546 -14490890.84444  23503730.9614                   23503728.9104
  -4430720.91047  -3434484.39545  22012949.6334                   22012944.5354
 -13308533.22348 -10354136.19545  21944633.2974                   21944630.4414
 -17766289.69948 -13835998.52046  20747376.2424                   20747372.4924
 -16721369.42248 -13016169.56346  21697223.1644                   21697222.7544
 -15885459.38746 -12376054.45342  24959427.7034                   24959425.5164
 11  8 18  2 53  0.0000000  0  9G26G29G12G15G02G30G05G25G21
 -21305645.05147 -16592077.91844  22634513.9844                   22634511.4224
 -22304698.77348 -17372472.60246  21649863.6334                   21649859.9024
  -8011575.88347  -6228905.60945  22221985.6254                   22221982.2814
 -18659891.24247 -14529196.37544  23494376.7344                   23494373.9804
  -4339945.32047  -3363750.16445  22030223.8204                   22030218.6334
 -13210834.00847 -10278006.93445  21963224.7974                   21963222.3324
 -17666511.97748 -13758249.64546  20766363.1024                   20766359.3594
 -16642090.80148 -12954394.01646  21712309.4224                   21712308.6214
 -15894684.87546 -12383242.93043  24957672.0704                   24957669.6334
 11  8 18  2 53 30.0000000  0  9G26G29G12G15G02G30G05G25G21
 -21343502.08247 -16621576.86345  22627310.1254                   22627307.6484
 -22330984.85548 -17392955.22746  21644861.4694                   21644858.0664
  -7881643.60947  -6127659.70745  22246711.1174                   22246707.8484
 -18709016.85247 -14567476.06644  23485028.3204                   23485025.6994
  -4249076.94147  -3292943.66045  22047515.7974                   22047510.3754
 -13112680.64847 -10201523.82045  21981902.1564                   21981900.3134
 -17566327.60948 -13680183.89546  20785427.7584                   20785423.5984
 -16562298.01248 -12892217.82046  21727493.5944                   21727492.9494
 -15903902.17646 -12390425.11743  24955917.5084                   24955915.8134
 11  8 18  2 54  0.0000000  0  9G26G29G12G15G02G30G05G25G21
 -21381082.65647 -16650860.40244  22620159.1254                   22620156.0354
 -22357069.07448 -17413280.53946  21639897.8284                   21639894.6254
  -7751445.07847  -6026206.32845  22271486.6644                   22271483.9884
 -18758109.41447 -14605729.95744  23475686.2894                   23475684.5944
  -4158118.81647  -3222067.19945  22064824.5944                   22064819.1524
 -13014079.15247 -10124691.50845  22000666.0314                   22000663.2624
 -17465742.18448 -13601805.62946  20804568.4064                   20804564.3054
 -16481996.26248 -12829645.02746  21742774.5554                   21742773.7304
 -15913114.81346 -12397603.62943  24954164.8984                   24954162.5314
 11  8 18  2 54 30.0000000  0  9G26G29G12G15G02G30G05G25G21
 -21418383.49247 -16679925.94144  22613060.6644                   22613057.2074
 -22382949.34048 -17433446.94946  21634973.0314                   21634969.4804
  -7620983.42247  -5924547.91845  22296313.1024                   22296309.5824
 -18807166.68847 -14643956.34444  23466350.3054                   23466348.8484
  -4067071.27047  -3151121.05945  22082149.7584                   22082144.6804
 -12915032.64147 -10047512.43045  22019513.5784                   22019511.2774
 -17364758.89148 -13523117.35546  20823784.8754                   20823781.2344
 -16401187.77348 -12766677.39546  21758151.7504                   21758150.7504
 -15922324.46946 -12404779.89843  24952412.0704                   24952409.4614
 11  8 18  2 55  0.0000000  0  9G26G29G12G15G02G30G05G25G21
 -21455403.87947 -16708772.96145  22606014.9224                   22606012.9224
 -22408626.38348 -17453454.98046  21630086.6334                   21630083.7074
  -7490264.62947  -5822689.14145  22321187.7274                   22321184.4344
 -18856188.44547 -14682155.02344  23457021.9144                   23457019.0704
  -3975937.07847  -3080107.41045  22099492.5944                   22099486.9224
 -12815546.58247  -9969990.84445  22038445.5394                   22038442.7854
 -17263382.32848 -13444122.61746  20843076.2114                   20843072.3914
 -16319877.28948 -12703318.58646  21773624.5084                   21773623.8134
 -15931534.18446 -12411956.12943  24950659.3054                   24950656.4184
 11  8 18  2 55 30.0000000  0  9G26G29G12G15G02G30G05G25G21
 -21492139.05947 -16737397.75045  22599025.2974                   22599022.5904
 -22434097.03548 -17473302.19946  21625239.7734                   21625236.2504
  -7359290.81347  -5720631.64845  22346111.2274                   22346108.6374
 -18905170.39547 -14720322.76644  23447701.5474                   23447697.7854
  -3884714.78547  -3009025.11345  22116851.5864                   22116845.7344
 -12715622.63747  -9892128.03145  22057460.1484                   22057457.7384
 -17161613.82848 -13364822.48046  20862442.0234                   20862438.0164
 -16238065.77748 -12639569.37146  21789193.1024                   21789191.9264
 -15940743.67246 -12419132.16042  24948906.1884                   24948903.8954
 11  8 18  2 56  0.0000000  0  9G26G29G12G15G02G30G05G25G21
 -21528586.41047 -16765798.23045  22592089.8524                   22592086.5514
 -22459359.95748 -17492987.55146  21620432.3674                   21620428.9574
  -7228066.09447  -5618378.63345  22371082.7424                   22371079.4184
 -18954111.24247 -14758458.41444  23438388.1334                   23438385.8984
  -3793405.42247  -2937874.98045  22134227.1254                   22134222.3874
 -12615264.69547  -9813927.06645  22076558.0164                   22076555.6334
 -17059457.37948 -13285220.05146  20881881.6334                   20881878.2154
 -16155756.34848 -12575432.17646  21804855.7814                   21804854.9494
 -15949954.65646 -12426309.41043  24947153.6884                   24947151.6884
 11  8 18  2 56 30.0000000  0  9G26G29G12G15G02G30G05G25G21
 -21564735.76247 -16793966.52045  22585210.5084                   22585207.4144
 -22484406.21948 -17512504.06646  21615666.1334                   21615663.1414
  -7096586.89147  -5515927.33645  22396102.5314                   22396098.9574
 -19003001.10547 -14796554.34044  23429084.3674                   23429082.7704
  -3702002.44148  -2866651.88745  22151620.1564                   22151614.9494
 -12514468.81348  -9735384.84045  22095739.1024                   22095736.6724
 -16956908.21148 -13205311.62146  20901395.9844                   20901392.4494
 -16072944.29748 -12510903.32846  21820614.7274                   21820613.6254
 -15959161.06646 -12433483.05543  24945401.5474                   24945399.7194
 11  8 18  2 57  0.0000000  0  9G26G29G12G15G02G30G05G25G21
 -21600591.15247 -16821905.73445  22578387.2974                   22578385.2814
 -22509241.32048 -17531856.03546  21610940.0164                   21610937.0164
  -6964864.25847  -5413286.34045  22421168.3674                   22421165.1604
 -19051844.67247 -14834614.16844  23419790.1174                   23419787.4414
  -3610512.89847  -2795361.33645  22169030.3674                   22169024.8874
 -12413245.45747  -9656509.50845  22115001.0704                   22114998.5084
 -16853976.81648 -13125105.32846  20920983.1484                   20920979.8404
 -15989639.36748 -12445990.40246  21836467.1724                   21836466.0474
 -15968370.96946 -12440659.49243  24943648.7734                   24943646.7464
 11  8 18  2 57 30.0000000  0  9G26G29G12G15G02G30G05G25G21
 -21636141.56347 -16849607.30945  22571622.1334                   22571620.1724
 -22533855.76248 -17551036.07446  21606256.0164                   21606252.7424
  -6832893.68447  -5310452.14545  22446281.8444                   22446278.1644
 -19100631.78147 -14872630.02744  23410506.1804                   23410503.2544
  -3518929.43848  -2723997.60245  22186458.2344                   22186452.8554
 -12311590.28947  -9577297.71545  22134345.2664                   22134342.9884
 -16750658.09448 -13044597.23446  20940644.7504                   20940640.5704
 -15905836.36748 -12380689.37946  21852414.3364                   21852413.3164
 -15977577.91446 -12447833.60943  24941896.3834                   24941894.8164
 11  8 18  2 58  0.0000000  0  9G26G29G12G15G02G30G05G25G21
 -21671387.94947 -16877071.98445  22564914.7584                   22564912.2544
 -22558251.78148 -17570045.92246  21601613.8284                   21601610.4494
  -6700682.76247  -5207430.65645  22471440.7034                   22471437.3364
 -19149364.25847 -14910603.30944  23401232.5004                   23401230.7704
  -3427256.34848  -2652564.02345  22203902.8674                   22203897.9924
 -12209510.40647  -9497754.96545  22153770.6174                   22153767.9414
 -16646958.96548 -12963792.71546  20960377.3834                   20960373.8984
 -15821541.83648 -12315005.34046  21868455.0474                   21868453.9454
 -15986786.94546 -12455009.34042  24940144.0314                   24940141.8204
 11  8 18  2 58 30.0000000  0  9G26G29G12G15G02G30G05G25G21
 -21706323.41847 -16904294.37945  22558266.9774                   22558264.4614
 -22582423.93448 -17588881.33246  21597013.8834                   21597010.9694
  -6568231.42247  -5104221.85545  22496644.8754                   22496642.0394
 -19198035.59047 -14948528.94945  23391970.6644                   23391968.2854
  -3335490.23847  -2581057.99245  22221365.4924                   22221360.3204
 -12107005.45747  -9417881.00445  22173276.6024                   22173273.7304
 -16542878.84047 -12882691.32046  20980183.4384                   20980179.9344
 -15736754.48448 -12248937.30146  21884589.6334                   21884588.4614
 -15995995.34446 -12462184.57443  24938392.0004                   24938389.2304
 11  8 18  2 59  0.0000000  0  9G26G29G12G15G02G30G05G25G21
 -21740941.25847 -16931269.27345  22551679.3364                   22551676.7734
 -22606366.66048 -17607537.95746  21592457.3134                   21592454.5434
  -6435539.36347  -5000825.47345  22521895.9694                   22521892.5664
 -19246639.51647 -14986402.04744  23382720.9614                   23382718.7384
  -3243627.71147  -2509476.80545  22238846.2814                   22238840.5514
 -12004075.04747  -9337675.49245  22192863.7344                   22192860.8754
 -16438416.91448 -12801292.41846  21000061.9224                   21000057.7894
 -15651473.28548 -12182484.42646  21900817.8984                   21900816.8244
 -16005200.37146 -12469357.21143  24936639.8914                   24936637.5744
 11  8 18  2 59 30.0000000  0  9G26G29G12G15G02G30G05G25G21
 -21775249.13747 -16958002.66445  22545150.6174                   22545148.6054
 -22630089.11348 -17626022.95346  21587943.3674                   21587940.3594
  -6302621.33247  -4897252.99645  22547189.1414                   22547186.1604
 -19295184.79347 -15024229.50444  23373483.9694                   23373480.9384
  -3151680.10547  -2437829.32045  22256343.1884                   22256337.8444
 -11900733.51247  -9257149.65645  22212528.7034                   22212526.5004
 -16333586.96148 -12719606.74646  21020010.3834                   21020006.8284
 -15565711.86348 -12115657.36346  21917137.6024                   21917136.7894
 -16014414.08246 -12476536.60343  24934886.2814                   24934884.6294
 11  8 18  3  0  0.0000000  0  9G26G29G12G15G02G30G05G25G21
 -21809236.43047 -16984486.20745  22538682.8594                   22538681.3794
 -22653581.59048 -17644328.75046  21583473.0944                   21583470.1844
  -6169473.33647  -4793501.32845  22572526.1334                   22572523.5234
 -19343661.10247 -15062003.16045  23364258.5634                   23364256.0944
  -3059640.16448  -2366109.88345  22273857.9224                   22273852.3364
 -11796976.43847  -9176300.00445  22232273.6724                   22232270.7734
 -16228384.11748 -12637630.50046  21040029.8674                   21040026.2344
 -15479465.13348 -12048452.13346  21933550.2034                   21933548.9884
 -16023630.28946 -12483717.89543  24933131.7734                   24933130.4144
 11  8 18  3  0 30.0000000  0  9G26G29G12G15G02G30G05G25G21
 -21842899.84047 -17010717.39145  22532276.8674                   22532274.9574
 -22676842.77748 -17662454.34046  21579046.4534                   21579043.0784
  -6036098.75447  -4689573.10245  22597906.6094                   22597903.3244
 -19392066.39847 -15099721.50044  23355047.6094                   23355044.9064
  -2967507.90647  -2294318.52745  22291390.4454                   22291385.4184
 -11692807.40647  -9095129.35245  22252096.0704                   22252093.5164
 -16122811.50848 -12555366.13346  21060119.4924                   21060115.9774
 -15392735.89848 -11980870.93046  21950054.1484                   21950053.4104
 -16032849.88746 -12490901.87943  24931378.0864                   24931374.5744
 11  8 18  3  1  0.0000000  0  9G26G29G12G15G02G30G05G25G21
 -21876237.87947 -17036695.05145  22525932.7274                   22525930.6094
 -22699871.84848 -17680399.04346  21574664.3524                   21574660.7424
  -5902502.74647  -4585472.33245  22623329.1564                   22623326.2464
 -19440399.06647 -15137383.27344  23345850.3754                   23345847.0904
  -2875284.99248  -2222456.51645  22308939.8754                   22308934.8204
 -11588230.99647  -9013641.25445  22271996.4064                   22271993.4844
 -16016873.92648 -12472817.37146  21080278.7664                   21080275.1334
 -15305528.17648 -11912916.86346  21966649.1024                   21966648.5744
 -16042075.57046 -12498090.62543  24929622.8754                   24929619.0274
 11  8 18  3  1 30.0000000  0  9G26G29G12G15G02G30G05G25G21
 -21909248.07447 -17062417.24645  22519651.1094                   22519649.4614
 -22722668.07048 -17698162.32046  21570326.1884                   21570322.4804
  -5768689.57847  -4481202.35245  22648792.5164                   22648789.8634
 -19488657.53947 -15174987.22344  23336666.5634                   23336663.5864
  -2782972.76648  -2150524.91845  22326506.3914                   22326501.3054
 -11483251.38347  -8931838.97745  22291973.1414                   22291970.3284
 -15910574.62548 -12389986.75046  21100507.1094                   21100502.9534
 -15217845.27048 -11844592.53946  21983334.4924                   21983333.6214
 -16051308.82646 -12505285.23343  24927865.4924                   24927862.3914
 11  8 18  3  2  0.0000000  0  9G26G29G12G15G02G30G05G25G21
 -21941923.85547 -17087878.87145  22513433.0084                   22513430.6254
 -22745226.28548 -17715740.14846  21566033.5704                   21566030.5824
  -5634659.56647  -4376763.40645  22674298.2194                   22674295.4774
 -19536835.80547 -15212528.65244  23327498.8984                   23327495.7114
  -2690567.63748  -2078520.91845  22344090.3284                   22344084.7074
 -11377868.50047  -8849722.45345  22312026.2894                   22312023.9694
 -15803912.75848 -12306873.60946  21120803.7894                   21120800.3594
 -15129686.50448 -11775897.41046  22000110.8914                   22000110.0004
 -16060547.23846 -12512483.82043  24926108.0474                   24926104.9144
 11  8 18  3  2 30.0000000  0  9G26G29G12G15G02G30G05G25G21
 -21974259.10247 -17113075.13745  22507280.4454                   22507277.7344
 -22767541.28548 -17733128.44146  21561786.9534                   21561783.7154
  -5500413.02747  -4272155.72745  22699844.4534                   22699841.2734
 -19584928.11347 -15250003.11344  23318346.9144                   23318344.2384
  -2598066.84047  -2006442.39145  22361692.5784                   22361686.8284
 -11272082.77747  -8767292.04745  22332157.0084                   22332154.8404
 -15696888.64848 -12223478.19946  21141169.9534                   21141166.2974
 -15041051.64148 -11706831.28546  22016977.2584                   22016976.7894
 -16069788.98446 -12519685.02743  24924348.5704                   24924346.2664
 11  8 18  3  3  0.0000000  0  9G26G29G12G15G02G30G05G25G21
 -22006256.15647 -17138007.85945  22501191.8204                   22501189.3094
 -22789617.19148 -17750330.43846  21557586.0784                   21557582.9654
  -5365959.09447  -4167386.43045  22725430.1804                   22725426.8054
 -19632937.79347 -15287413.16044  23309210.6644                   23309208.1644
  -2505476.05948  -1934293.73045  22379311.8914                   22379306.1564
 -11165902.92247  -8684554.49645  22352362.6884                   22352360.3054
 -15589510.50848 -12139806.91446  21161603.2814                   21161599.4384
 -14951948.77748 -11637400.49646  22033932.9064                   22033932.3134
 -16079040.43446 -12526893.79743  24922588.2344                   24922584.9614
 11  8 18  3  3 30.0000000  0  9G26G29G12G15G02G30G05G25G21
 -22037911.73847 -17162674.52745  22495167.7584                   22495165.4064
 -22811451.75848 -17767344.38746  21553430.9534                   21553427.5944
  -5231301.41447  -4062458.39145  22751054.4614                   22751051.5354
 -19680862.10247 -15324756.72745  23300091.3444                   23300088.6994
  -2412795.54348  -1862075.18045  22396948.2814                   22396942.8754
 -11059332.28547  -8601512.46145  22372642.5634                   22372639.8954
 -15481781.10248 -12055861.93046  21182103.5944                   21182099.7854
 -14862380.53548 -11567607.07846  22050977.2274                   22050976.5164
 -16088302.67246 -12534111.02743  24920824.8754                   24920821.6644
 11  8 18  3  4  0.0000000  0  9G26G29G12G15G02G30G05G25G21
 -22069216.51647 -17187067.81345  22489210.3984                   22489208.1334
 -22833036.74248 -17784163.84446  21549323.6484                   21549320.0164
  -5096436.92247  -3957369.18445  22776718.5784                   22776715.1994
 -19728692.02347 -15362026.75444  23290989.7734                   23290986.6604
  -2320019.39847  -1789782.10245  22414603.0944                   22414597.6334
 -10952367.98847  -8518163.67245  22392996.8054                   22392994.5904
 -15373697.40648 -11971640.86746  21202671.3054                   21202667.6374
 -14772343.28548 -11497448.18046  22068110.7664                   22068110.1294
 -16097570.36746 -12541332.52343  24919061.8594                   24919058.5164
 11  8 18  3  4 30.0000000  0  9G26G29G12G15G02G30G05G25G21
 -22100166.20347 -17211184.43045  22483321.3984                   22483318.1374
 -22854369.14148 -17800786.49646  21545264.2894                   21545260.8794
  -4961368.08247  -3852120.76245  22802421.1954                   22802418.2154
 -19776423.81647 -15399220.28944  23281906.2274                   23281903.4414
  -2227146.40247  -1717413.51645  22432276.1174                   22432270.9614
 -10845012.27747  -8434509.89145  22413425.9924                   22413423.5044
 -15265261.05148 -11887145.00846  21223305.8674                   21223302.5634
 -14681838.78148 -11426925.19546  22085333.3134                   22085332.4694
 -16106843.46546 -12548558.18843  24917297.2894                   24917292.8554
 11  8 18  3  5  0.0000000  0  9G26G29G12G15G02G30G05G25G21
 -23706181.09847 -18462624.55945  22177706.7034                   22177703.9344
 -24450870.39548 -19044813.44946  21241459.9064                   21241456.7774
  -6401516.52747  -4974314.37145  22528369.9304                   22528366.8364
 -21399478.96147 -16663938.57045  22973049.7894                   22973046.1484
  -3709596.15247  -2872569.18045  22150175.4534                   22150170.6024
 -12312687.41447  -9578152.86745  22134136.8444                   22134134.0274
 -16731893.77748 -13029975.70346  20944214.6884                   20944210.8794
 -16166289.13348 -12583639.75846  21802851.9304                   21802851.0594
 -17691545.51646 -13783390.85243  24615737.9844                   24615734.2424
 11  8 18  3  5 30.0000000  0  9G26G29G12G15G02G30G05G25G21
 -23736415.18447 -18486183.55145  22171953.3444                   22171949.8524
 -24471696.12148 -19061041.28946  21237497.2114                   21237493.9804
  -6266054.11347  -4868759.27045  22554147.8284                   22554144.5004
 -21447010.99247 -16700976.46945  22964004.8054                   22964001.8204
  -3616534.14848  -2800053.34845  22167885.2194                   22167879.2304
 -12204563.10547  -9493900.18845  22154712.3054                   22154709.9344
 -16622764.75848 -12944940.11346  20964981.7344                   20964977.8674
 -16074862.27348 -12512398.05946  21820249.8674                   21820248.8134
 -17700836.20746 -13790630.25443  24613969.8984                   24613967.0204
 11  8 18  3  6  0.0000000  0  9G26G29G12G15G02G30G05G25G21
 -23766288.57047 -18509461.47344  22166268.0474                   22166265.5864
 -24492267.57047 -19077070.97346  21233582.4454                   21233579.1804
  -6130401.78146  -4763056.15245  22579961.6414                   22579958.8014
 -21494441.03546 -16737934.85544  22954978.1174                   22954976.1374
  -3523379.60546  -2727465.39545  22185611.1024                   22185605.9064
 -12096061.44546  -9409353.44145  22175359.5784                   22175356.7584
 -16513295.54347 -12859639.39846  20985812.8284                   20985808.8484
 -15982980.20347 -12440801.64145  21837733.9454                   21837733.4534
 -17710139.00046 -13797879.05543  24612199.3984                   24612197.1174
 11  8 18  3  6 30.0000000  0  9G26G29G12G15G02G30G05G25G21
 -23795795.34447 -18532453.74245  22160653.4224                   22160650.9734
 -24512579.80948 -19092898.69146  21229717.2274                   21229713.5554
  -5994560.45747  -4657205.78945  22605811.2114                   22605808.0554
 -21541763.73847 -16774809.64845  22945973.0784                   22945971.2114
  -3430129.89147  -2654803.31645  22203356.5864                   22203351.0394
 -11987183.11747  -9324513.19545  22196078.4844                   22196075.5554
 -16403486.20748 -12774073.69946  21006708.6954                   21006705.2734
 -15890643.02048 -12368850.61346  21855305.7034                   21855304.8674
 -17719452.21146 -13805136.03143  24610427.0004                   24610424.5634
 11  8 18  3  7  0.0000000  0  9G26G29G12G15G02G30G05G25G21
 -23824932.98447 -18555158.37145  22155108.5704                   22155106.2774
 -24532631.66048 -19108523.48846  21225901.1484                   21225897.9104
  -5858534.40647  -4551211.49645  22631696.2504                   22631692.9384
 -21588977.12547 -16811599.26244  22936988.0944                   22936986.3324
  -3336786.05147  -2582067.85945  22221119.2194                   22221114.1134
 -11877932.11747  -9239382.57045  22216867.8594                   22216865.6374
 -16293340.57848 -12688245.93446  21027668.7814                   21027665.1134
 -15797854.10948 -12296547.57446  21872962.8914                   21872961.7814
 -17728777.43446 -13812402.33643  24608653.0164                   24608650.5514
 11  8 18  3  7 30.0000000  0  9G26G29G12G15G02G30G05G25G21
 -23853698.23447 -18577572.79745  22149634.7194                   22149632.1214
 -24552421.41048 -19123944.07046  21222135.3674                   21222131.5864
  -5722326.78547  -4445075.69545  22657615.6884                   22657612.5784
 -21636078.56347 -16848301.62545  22928025.3754                   22928022.5354
  -3243347.81347  -2509258.83245  22238899.7114                   22238895.0824
 -11768311.69147  -9153964.07445  22237728.0314                   22237725.3204
 -16182861.10548 -12602158.02346  21048692.3674                   21048688.1294
 -15704616.22748 -12223894.69146  21890705.4304                   21890704.7934
 -17738115.44946 -13819678.64143  24606875.5234                   24606873.3594
 11  8 18  3  8  0.0000000  0  9G26G29G12G15G02G30G05G25G21
 -23882084.80147 -18599692.17245  22144232.7814                   22144230.1254
 -24571943.61348 -19139156.16446  21218420.7814                   21218417.0784
  -5585937.88347  -4338798.63745  22683569.3284                   22683566.4344
 -21683061.80547 -16884911.88344  22919084.7814                   22919082.3014
  -3149811.95747  -2436373.77345  22256699.3364                   22256694.2814
 -11658322.08647  -9068257.89845  22258658.6174                   22258655.9654
 -16072047.65248 -12515809.86746  21069779.2584                   21069776.0864
 -15610928.79748 -12150891.52346  21908533.5234                   21908532.6294
 -17747463.93846 -13826963.03143  24605096.8444                   24605093.8754
 11  8 18  3  8 30.0000000  0  9G26G29G12G15G02G30G05G25G21
 -23910089.91047 -18621514.29745  22138903.6334                   22138900.3524
 -24591196.72748 -19154158.58646  21214756.8834                   21214753.4694
  -5449371.70747  -4232383.47345  22709557.2504                   22709554.3674
 -21729924.76247 -16921428.41445  22910167.3674                   22910165.0314
  -3056179.19547  -2363413.22345  22274517.0704                   22274511.4264
 -11547967.16847  -8982267.07845  22279658.6254                   22279655.4964
 -15960903.35548 -12429203.91046  21090929.7584                   21090925.6724
 -15516795.18448 -12077540.67246  21926446.4774                   21926445.4024
 -17756824.18446 -13834256.60943  24603315.5314                   24603312.5394
 11  8 18  3  9  0.0000000  0  9G26G29G12G15G02G30G05G25G21
 -23937712.66847 -18643038.48845  22133646.7114                   22133643.9844
 -24610181.24248 -19168951.70346  21211144.0634                   21211140.7814
  -5312633.73847  -4125834.41845  22735577.9144                   22735574.2734
 -21776666.87947 -16957850.81345  22901272.4224                   22901269.4534
  -2962451.63347  -2290378.77745  22292352.9844                   22292347.6804
 -11437252.54347  -8895995.94545  22300726.7974                   22300724.0864
 -15849433.35948 -12342344.16846  21112141.3914                   21112137.8524
 -15422220.42648 -12003846.05946  21944443.4304                   21944442.7384
 -17766199.40646 -13841561.89143  24601530.9454                   24601527.7424
 11  8 18  3  9 30.0000000  0 10G26G18G29G12G15G02G30G05G25G21
 -23964944.49647 -18664258.07445  22128464.6254                   22128461.8984
 -17387543.96156 -13515404.87152  24603113.8444                   24603111.0274
 -24628889.55548 -19183529.59846  21207584.0164                   21207580.8324
  -5175722.29747  -4019150.18445  22761631.4924                   22761627.6724
 -21823280.23847 -16994172.84844  22892401.8134                   22892399.2814
  -2868624.13347  -2217266.45345  22310207.1414                   22310201.8754
 -11326176.16847  -8809442.94945  22321863.9144                   22321861.2234
 -15737635.14848 -12255228.68446  21133415.8674                   21133411.9264
 -15327201.88348 -11929805.64846  21962524.8914                   21962524.2544
 -17775584.94546 -13848875.15643  24599745.3444                   24599741.7854
 11  8 18  3 10  0.0000000  0 10G26G18G29G12G15G02G30G05G25G21
 -23991790.02047 -18685176.62545  22123356.5084                   22123353.9774
 -17429937.12946 -13548438.25842  24595046.8054                   24595045.0904
 -24647327.50048 -19197896.80946  21204075.4144                   21204072.0394
  -5038648.49247  -3912339.43845  22787715.3834                   22787712.1914
 -21869769.62947 -17030398.29745  22883555.4774                   22883552.0164
  -2774704.39547  -2144082.24245  22328079.4144                   22328074.8674
 -11214749.25847  -8722616.79745  22343067.7034                   22343065.1994
 -15625519.21548 -12167865.61746  21154751.0004                   21154747.0314
 -15231750.16448 -11855427.70346  21980688.8204                   21980688.1524
 -17784989.51246 -13856203.26643  24597954.6414                   24597952.3164
 11  8 18  3 10 30.0000000  0 10G26G18G29G12G15G02G30G05G25G21
 -24018245.06647 -18705790.91845  22118322.4924                   22118319.8524
 -17472169.67646 -13581346.48843  24587010.2734                   24587008.8954
 -24665492.25048 -19212051.16046  21200619.0004                   21200615.4694
  -4901415.35247  -3805404.54345  22813830.2584                   22813826.7274
 -21916131.43047 -17066524.33645  22874732.8594                   22874730.1994
  -2680691.75847  -2070825.68045  22345970.0864                   22345964.9534
 -11102974.32447  -8635519.45745  22364337.8134                   22364334.7544
 -15513087.73048 -12080256.66846  21176145.8914                   21176142.2034
 -15135867.29348 -11780713.79746  21998934.7194                   21998933.9884
 -17794413.05546 -13863546.18843  24596162.1954                   24596158.9344
 11  8 18  3 11  0.0000000  0 10G26G18G29G12G15G02G30G05G25G21
 -24044306.01647 -18726098.09845  22113363.0314                   22113360.8134
 -17514240.07046 -13614128.38343  24579003.7504                   24579003.0514
 -24683381.19948 -19225990.58246  21197214.3754                   21197211.2774
  -4764025.30947  -3698347.37145  22839974.3754                   22839971.5004
 -21962362.75447 -17102548.68845  22865935.6954                   22865932.6764
  -2586585.54347  -1997496.13745  22363877.4144                   22363872.6724
 -10990854.16048  -8548153.10545  22385673.6334                   22385671.0084
 -15400342.85948 -11992403.51646  21197600.5394                   21197596.9774
 -15039555.41047 -11705665.59046  22017262.6804                   22017261.5824
 -17803856.07846 -13870904.30943  24594365.5554                   24594361.6214
 11  8 18  3 11 30.0000000  0 10G26G18G29G12G15G02G30G05G25G21
 -24069970.41047 -18746096.29745  22108479.1174                   22108476.3014
 -17556148.35246 -13646783.94543  24571028.7814                   24571027.9414
 -24700993.05948 -19239714.09446  21193863.3054                   21193859.9804
  -4626482.60947  -3591171.26245  22866147.9224                   22866145.3754
 -22008461.59847 -17138469.81344  22857163.2424                   22857159.8914
  -2492386.45747  -1924094.28945  22381803.1334                   22381798.3444
 -10878393.03148  -8460521.05945  22407074.4384                   22407071.8284
 -15287288.20348 -11904308.97746  21219114.2584                   21219110.4184
 -14942818.24248 -11630286.00046  22035670.7344                   22035670.0274
 -17813320.07046 -13878278.71943  24592564.1024                   24592561.4654
 11  8 18  3 12  0.0000000  0 10G26G18G29G12G15G02G30G05G25G21
 -24095226.83247 -18765776.59045  22103673.0704                   22103670.4384
 -17597884.99246 -13679305.78143  24563086.6644                   24563085.2704
 -24718317.44148 -19253213.59846  21190566.5394                   21190563.0594
  -4488782.30947  -3483872.34845  22892351.6564                   22892348.8484
 -22054416.61347 -17174278.88345  22848418.1884                   22848415.0944
  -2398086.15647  -1850613.55545  22399747.7504                   22399742.7894
 -10765586.02347  -8372619.48845  22428540.9224                   22428538.5824
 -15173918.57048 -11815968.99246  21240687.7584                   21240683.8524
 -14845650.36748 -11554570.78946  22054161.2194                   22054160.3364
 -17822797.68046 -13885663.79343  24590760.3754                   24590757.3714
 11  8 18  3 12 30.0000000  0 10G26G18G29G12G15G02G30G05G25G21
 -24120080.21947 -18785142.84045  22098943.5314                   22098940.9184
 -17639457.24646 -13711699.52743  24555175.6414                   24555174.1564
 -24735360.47748 -19266493.87546  21187323.6484                   21187319.7424
  -4350935.73447  -3376459.44145  22918582.9774                   22918579.8554
 -22100233.15647 -17209980.03145  22839699.1564                   22839696.6914
  -2303692.84047  -1777060.34445  22417710.0634                   22417704.0664
 -10652444.52347  -8284457.28545  22450070.6724                   22450068.2974
 -15060244.40648 -11727391.73046  21262319.3364                   21262315.9384
 -14748062.57048 -11478528.37546  22072731.6254                   22072730.7304
 -17832297.47746 -13893066.13343  24588952.5474                   24588950.1724
 11  8 18  3 13  0.0000000  0 10G26G18G29G12G15G02G30G05G25G21
 -24144517.69147 -18804184.99245  22094293.0554                   22094290.4614
 -17680854.41446 -13743956.87143  24547298.0084                   24547296.1414
 -24752110.11748 -19279545.53146  21184136.2894                   21184132.8554
  -4212936.73047  -3268927.76245  22944843.1884                   22944840.3984
 -22145898.93847 -17245563.68845  22831009.1644                   22831006.8914
  -2209196.39547  -1703426.78545  22435692.7664                   22435687.3404
 -10538962.14147  -8196029.45745  22471665.9924                   22471663.2304
 -14946258.59048 -11638571.60546  21284010.1954                   21284006.6294
 -14650048.00448 -11402153.39846  22091383.1414                   22091382.3594
 -17841810.52746 -13900478.84043  24587142.6954                   24587139.8914
 11  8 18  3 13 30.0000000  0 10G26G18G29G12G15G02G30G05G25G21
 -24168544.36747 -18822907.03545  22089720.8204                   22089718.2544
 -17722083.77346 -13776083.43043  24539452.2114                   24539450.7114
 -24768572.76248 -19292373.55946  21181002.9844                   21180999.9574
  -4074796.77747  -3161286.25845  22971130.4384                   22971127.4844
 -22191418.84847 -17281033.71945  22822347.3524                   22822344.2624
  -2114605.27347  -1629719.45745  22453692.7894                   22453686.8364
 -10425150.55547  -8107345.10945  22493323.2194                   22493320.6174
 -14831972.35948 -11549517.39846  21305757.7504                   21305754.5204
 -14551617.80548 -11325454.56346  22110113.7974                   22110113.3714
 -17851346.46546 -13907909.36743  24585327.8754                   24585324.8524
 11  8 18  3 14  0.0000000  0 10G26G18G29G12G15G02G30G05G25G21
 -24192147.43447 -18841299.02745  22085229.7734                   22085226.9104
 -17763134.88346 -13808071.09843  24531639.5634                   24531638.4144
 -24784736.79348 -19304968.89146  21177927.3524                   21177924.3754
  -3936509.84047  -3053530.21144  22997445.0634                   22997442.0204
 -22236780.89847 -17316380.73445  22813715.3284                   22813712.4224
  -2019909.74647  -1555930.74245  22471712.8364                   22471706.9654
 -10311003.64847  -8018399.49245  22515044.2424                   22515042.1524
 -14717379.00848 -11460223.87546  21327564.2114                   21327560.7774
 -14452765.31348 -11248426.66845  22128924.5164                   22128923.7734
 -17860896.07946 -13915350.54943  24583510.2504                   24583507.9064
 11  8 18  3 14 30.0000000  0 10G26G18G29G12G15G02G30G05G25G21
 -24215331.20347 -18859364.27345  22080817.6174                   22080815.8484
 -17804014.24246 -13839924.95343  24523861.3134                   24523859.6724
 -24800607.89548 -19317335.96546  21174906.6644                   21174903.6564
  -3798086.94547  -2945668.23045  23023786.4694                   23023783.4344
 -22281989.92247 -17351608.50045  22805112.1954                   22805109.8714
  -1925117.59847  -1482066.75845  22489751.5944                   22489746.0204
 -10196532.39547  -7929201.12545  22536827.9384                   22536825.4184
 -14602488.95748 -11370699.15246  21349427.5394                   21349423.9774
 -14353500.95348 -11171077.85246  22147814.2424                   22147813.3834
 -17870467.71547 -13922808.91443  24581689.3674                   24581686.1214
 11  8 18  3 15  0.0000000  0 10G26G18G29G12G15G02G30G05G25G21
 -24238084.85547 -18877094.34045  22076487.8594                   22076486.0204
 -17844713.02046 -13871638.07443  24516115.0864                   24516114.6174
 -24816175.78148 -19329466.77346  21171944.7584                   21171941.6374
  -3659523.49647  -2837696.73844  23050154.3594                   23050151.0944
 -22327034.93847 -17386708.44545  22796540.8284                   22796538.3014
  -1830220.72747  -1408121.13745  22507808.7504                   22507804.5434
 -10081732.27047  -7839746.50045  22558673.5704                   22558670.9774
 -14487296.77748 -11280939.00846  21371347.5944                   21371343.8444
 -14253819.68448 -11093404.14545  22166782.6954                   22166782.2114
 -17880054.23047 -13930278.89143  24579864.7274                   24579862.0664
 11  8 18  3 15 30.0000000  0 10G26G18G29G12G15G02G30G05G25G21
 -24260414.60547 -18894494.13345  22072238.4924                   22072236.1914
 -17885239.65246 -13903217.09043  24508404.0234                   24508402.3524
 -24831448.14848 -19341367.32446  21169038.3284                   21169035.2464
  -3520832.27347  -2729625.67645  23076546.4844                   23076543.0864
 -22371922.71947 -17421685.89545  22787998.7344                   22787995.2034
  -1735228.35247  -1334101.14145  22525885.2664                   22525880.5514
  -9966616.17647  -7750045.67645  22580579.7274                   22580577.1294
 -14371815.10548 -11190953.28946  21393322.7814                   21393319.6214
 -14153734.01648 -11015415.33246  22185828.8444                   22185828.0664
 -17889666.09846 -13937768.60543  24578034.9614                   24578032.1994
 11  8 18  3 16  0.0000000  0 10G26G18G29G12G15G02G30G05G25G21
 -24282305.07847 -18911551.61345  22068073.1884                   22068070.3594
 -17925581.19146 -13934651.84042  24500727.1564                   24500725.0514
 -24846410.54748 -19353026.31646  21166191.3594                   21166187.8554
  -3382004.38747  -2621448.10545  23102964.6024                   23102961.7854
 -22416638.40647 -17456529.23445  22779489.1484                   22779486.3284
  -1640128.17247  -1259997.14145  22543982.7504                   22543977.0044
  -9851175.43047  -7660091.86345  22602547.4384                   22602544.8524
 -14256034.33648 -11100734.50846  21415355.2894                   21415351.9224
 -14053234.67248 -10937104.16846  22204952.7734                   22204952.2974
 -17899291.46946 -13945268.87543  24576203.7034                   24576200.4804
 11  8 18  3 16 30.0000000  0 10G26G18G29G12G15G02G30G05G25G21
 -24303764.31647 -18928273.07045  22063989.4844                   22063986.2274
 -17965747.41846 -13965950.03143  24493083.6024                   24493081.4574
 -24861071.91048 -19364450.74646  21163401.4304                   21163397.8324
  -3243054.12147  -2513175.21145  23129405.5004                   23129402.5904
 -22461189.93847 -17491244.66445  22771011.5164                   22771008.9574
  -1544931.06647  -1185817.59845  22562098.0784                   22562092.3794
  -9735424.15247  -7569896.07845  22624573.6644                   22624571.6334
 -14139967.98848 -11010293.19946  21437441.8984                   21437438.7544
 -13952335.38348 -10858481.35946  22224153.4224                   22224152.9494
 -17908942.27746 -13952788.90643  24574367.0314                   24574363.9064
 11  8 18  3 17  0.0000000  0 10G26G18G29G12G15G02G30G05G25G21
 -24324777.69147 -18944647.11745  22059990.2894                   22059987.0944
 -18005726.35546 -13997102.22343  24485474.5394                   24485473.5234
 -24875418.92248 -19375630.21546  21160671.2814                   21160668.0784
  -3103973.76247  -2404800.93045  23155871.6804                   23155868.5864
 -22505563.27347 -17525821.23845  22762567.7664                   22762564.5164
  -1449625.89847  -1111553.88745  22580233.7114                   22580228.4144
  -9619354.70747  -7479452.36745  22646661.3834                   22646658.7384
 -14023607.89548 -10919622.98846  21459584.8134                   21459581.1954
 -13851027.97348 -10779540.53545  22243431.5474                   22243430.7854
 -17918607.88347 -13960320.52043  24572527.3524                   24572524.5864
 11  8 18  3 17 30.0000000  0 10G26G18G29G12G15G02G30G05G25G21
 -24345349.44947 -18960677.03945  22056075.9774                   22056072.2234
 -18045523.87946 -14028113.03142  24477902.4304                   24477900.5434
 -24889456.30948 -19386568.42246  21157999.7894                   21157996.2584
  -2964773.46547  -2296333.18845  23182361.1954                   23182358.0904
 -22549762.72347 -17560262.31645  22754156.9844                   22754153.2464
  -1354219.83647  -1037211.55545  22598389.4224                   22598384.2854
  -9502977.47747  -7388768.85245  22668807.7424                   22668804.7584
 -13906963.93848 -10828731.59446  21481781.1644                   21481777.6054
 -13749322.36348 -10700289.43446  22262785.7034                   22262785.0744
 -17928296.33647 -13967869.89143  24570684.7734                   24570681.2584
 11  8 18  3 18  0.0000000  0 10G26G18G29G12G15G02G30G05G25G21
 -24365478.31347 -18976361.85245  22052245.6644                   22052242.4774
 -18085141.34046 -14058983.62943  24470362.8054                   24470361.7344
 -24903184.05948 -19397265.35946  21155387.4454                   21155383.8984
  -2825458.77047  -2187776.28545  23208871.9144                   23208868.8524
 -22593787.07047 -17594566.94545  22745778.8364                   22745776.1804
  -1258714.13348   -962791.53545  22616563.7504                   22616558.3594
  -9386297.80547  -7297849.62545  22691010.6414                   22691007.6214
 -13790040.43448 -10737622.36746  21504031.1564                   21504027.1764
 -13647223.45748 -10620731.84846  22282214.4924                   22282213.6524
 -17938010.12546 -13975439.04743  24568836.0554                   24568832.0634
 11  8 18  3 18 30.0000000  0 10G26G18G29G12G15G02G30G05G25G21
 -24385152.16447 -18991692.08645  22048501.8674                   22048498.6134
 -18124568.87546 -14089706.18442  24462859.9924                   24462857.6524
 -24916591.35948 -19407712.57846  21152836.5164                   21152832.8674
  -2686023.80547  -2079125.68845  23235405.4534                   23235402.7274
 -22637625.10547 -17628726.41845  22737436.9454                   22737433.5274
  -1163100.15247   -888287.18445  22634757.9224                   22634753.2464
  -9269310.28547  -7206690.52345  22713272.4534                   22713269.9064
 -13672831.22748 -10646290.51646  21526335.1884                   21526331.2934
 -13544725.44148 -10540863.29346  22301719.2584                   22301718.6484
 -17947740.94546 -13983021.44143  24566983.6254                   24566981.0084
